| time (UTC) | temp C | wind direction | speed KPH | gust KPH | rain 1hr cm | rain 24hr cm | rain mn cm | humidity % | barometer mb |
| 20260906195509 | 25 | 304 | 6.4 | 19.3 | 0.00 | 0.00 | 0.00 | 39 | 1013.2 |
| 20260906195409 | 25 | 208 | 8.0 | 19.3 | 0.00 | 0.00 | 0.00 | 37 | 1013.2 |
| 20260906195310 | 25 | 181 | 8.0 | 19.3 | 0.00 | 0.00 | 0.00 | 37 | 1013.2 |
| 20260906195214 | 25 | 248 | 8.0 | 19.3 | 0.00 | 0.00 | 0.00 | 36 | 1013.2 |
| 20260906195204 | 25 | 256 | 8.0 | 19.3 | 0.00 | 0.00 | 0.00 | 36 | 1013.2 |
| 20260906195110 | 25 | 300 | 8.0 | 19.3 | 0.00 | 0.00 | 0.00 | 36 | 1013.2 |
| 20260906195010 | 25 | 243 | 8.0 | 17.7 | 0.00 | 0.00 | 0.00 | 36 | 1013.2 |
| 20260906194909 | 25 | 128 | 6.4 | 17.7 | 0.00 | 0.00 | 0.00 | 38 | 1013.2 |
| 20260906194810 | 25 | 153 | 8.0 | 17.7 | 0.00 | 0.00 | 0.00 | 39 | 1013.1 |
| 20260906194708 | 25 | 160 | 8.0 | 17.7 | 0.00 | 0.00 | 0.00 | 39 | 1013.2 |
| 20260906194605 | 25 | 203 | 6.4 | 17.7 | 0.00 | 0.00 | 0.00 | 39 | 1013.2 |
| 20260906194505 | 25 | 188 | 6.4 | 17.7 | 0.00 | 0.00 | 0.00 | 40 | 1013.2 |
| 20260906194405 | 25 | 246 | 6.4 | 17.7 | 0.00 | 0.00 | 0.00 | 39 | 1013.2 |
| 20260906194306 | 25 | 238 | 6.4 | 17.7 | 0.00 | 0.00 | 0.00 | 38 | 1013.2 |
| 20260906194206 | 25 | 132 | 6.4 | 17.7 | 0.00 | 0.00 | 0.00 | 39 | 1013.3 |
| 20260906194101 | 25 | 236 | 6.4 | 14.5 | 0.00 | 0.00 | 0.00 | 38 | 1013.3 |
| 20260906194001 | 25 | 304 | 4.8 | 14.5 | 0.00 | 0.00 | 0.00 | 41 | 1013.3 |
| 20260906193901 | 25 | 330 | 4.8 | 14.5 | 0.00 | 0.00 | 0.00 | 43 | 1013.3 |
| 20260906193802 | 25 | 208 | 4.8 | 12.9 | 0.00 | 0.00 | 0.00 | 42 | 1013.3 |
| 20260906193707 | 25 | 228 | 4.8 | 12.9 | 0.00 | 0.00 | 0.00 | 43 | 1013.3 |
| 20260906193701 | 25 | 217 | 4.8 | 12.9 | 0.00 | 0.00 | 0.00 | 43 | 1013.3 |
| 20260906193602 | 25 | 216 | 3.2 | 11.3 | 0.00 | 0.00 | 0.00 | 43 | 1013.4 |
| 20260906193459 | 25 | 237 | 3.2 | 9.7 | 0.00 | 0.00 | 0.00 | 43 | 1013.4 |
| 20260906193359 | 25 | 144 | 3.2 | 9.7 | 0.00 | 0.00 | 0.00 | 43 | 1013.4 |
| 20260906193301 | 25 | 146 | 3.2 | 9.7 | 0.00 | 0.00 | 0.00 | 43 | 1013.4 |
| 20260906193204 | 25 | 225 | 4.8 | 9.7 | 0.00 | 0.00 | 0.00 | 43 | 1013.4 |
| 20260906193159 | 25 | 218 | 4.8 | 9.7 | 0.00 | 0.00 | 0.00 | 43 | 1013.4 |
| 20260906193059 | 25 | 219 | 4.8 | 11.3 | 0.00 | 0.00 | 0.00 | 44 | 1013.4 |
| 20260906192959 | 25 | 257 | 6.4 | 17.7 | 0.00 | 0.00 | 0.00 | 44 | 1013.4 |
| 20260906192853 | 25 | 238 | 6.4 | 17.7 | 0.00 | 0.00 | 0.00 | 44 | 1013.5 |
| 20260906192754 | 25 | 226 | 6.4 | 17.7 | 0.00 | 0.00 | 0.00 | 44 | 1013.4 |
| 20260906192702 | 25 | 214 | 6.4 | 17.7 | 0.00 | 0.00 | 0.00 | 43 | 1013.5 |
| 20260906192657 | 25 | 262 | 6.4 | 17.7 | 0.00 | 0.00 | 0.00 | 43 | 1013.5 |
| 20260906192648 | 25 | 231 | 6.4 | 17.7 | 0.00 | 0.00 | 0.00 | 45 | 1013.5 |
| 20260906192553 | 25 | 122 | 6.4 | 17.7 | 0.00 | 0.00 | 0.00 | 44 | 1013.5 |
| 20260906192534 | 25 | 200 | 6.4 | 17.7 | 0.00 | 0.00 | 0.00 | 44 | 1013.4 |
| 20260906192353 | 25 | 218 | 6.4 | 17.7 | 0.00 | 0.00 | 0.00 | 45 | 1013.4 |
| 20260906192313 | 25 | 135 | 6.4 | 17.7 | 0.00 | 0.00 | 0.00 | 45 | 1013.5 |
| 20260906192153 | 25 | 233 | 6.4 | 17.7 | 0.00 | 0.00 | 0.00 | 45 | 1013.5 |
| 20260906192053 | 25 | 191 | 4.8 | 17.7 | 0.00 | 0.00 | 0.00 | 43 | 1013.5 |
| 20260906191953 | 25 | 257 | 4.8 | 17.7 | 0.00 | 0.00 | 0.00 | 43 | 1013.5 |
| 20260906191853 | 25 | 126 | 4.8 | 17.7 | 0.00 | 0.00 | 0.00 | 42 | 1013.4 |
| 20260906191755 | 25 | 139 | 4.8 | 17.7 | 0.00 | 0.00 | 0.00 | 44 | 1013.5 |
| 20260906191702 | 25 | 131 | 4.8 | 17.7 | 0.00 | 0.00 | 0.00 | 47 | 1013.5 |
| 20260906191649 | 25 | 165 | 4.8 | 17.7 | 0.00 | 0.00 | 0.00 | 47 | 1013.5 |
| 20260906191550 | 24 | 232 | 4.8 | 17.7 | 0.00 | 0.00 | 0.00 | 47 | 1013.5 |
| 20260906191449 | 24 | 278 | 4.8 | 17.7 | 0.00 | 0.00 | 0.00 | 47 | 1013.5 |
| 20260906191349 | 24 | 273 | 6.4 | 17.7 | 0.00 | 0.00 | 0.00 | 47 | 1013.5 |
| 20260906191249 | 24 | 194 | 6.4 | 14.5 | 0.00 | 0.00 | 0.00 | 46 | 1013.5 |
| 20260906191202 | 23 | 124 | 6.4 | 14.5 | 0.00 | 0.00 | 0.00 | 46 | 1013.5 |
| 20260906191133 | 23 | 131 | 6.4 | 14.5 | 0.00 | 0.00 | 0.00 | 46 | 1013.5 |
| 20260906191033 | 23 | 233 | 6.4 | 14.5 | 0.00 | 0.00 | 0.00 | 46 | 1013.6 |
| 20260906190933 | 23 | 233 | 8.0 | 14.5 | 0.00 | 0.00 | 0.00 | 44 | 1013.6 |
| 20260906190834 | 23 | 212 | 8.0 | 14.5 | 0.00 | 0.00 | 0.00 | 44 | 1013.6 |
| 20260906190736 | 23 | 215 | 8.0 | 14.5 | 0.00 | 0.00 | 0.00 | 45 | 1013.6 |
| 20260906190702 | 23 | 263 | 6.4 | 14.5 | 0.00 | 0.00 | 0.00 | 45 | 1013.6 |
| 20260906190633 | 23 | 221 | 6.4 | 14.5 | 0.00 | 0.00 | 0.00 | 45 | 1013.6 |
| 20260906190533 | 23 | 240 | 6.4 | 14.5 | 0.00 | 0.00 | 0.00 | 45 | 1013.6 |
| 20260906190433 | 23 | 228 | 6.4 | 14.5 | 0.00 | 0.00 | 0.00 | 43 | 1013.6 |
| 20260906190333 | 23 | 229 | 6.4 | 14.5 | 0.00 | 0.00 | 0.00 | 43 | 1013.6 |
| 20260906190237 | 23 | 193 | 6.4 | 16.1 | 0.00 | 0.00 | 0.00 | 42 | 1013.6 |
| 20260906190214 | 23 | 240 | 4.8 | 16.1 | 0.00 | 0.00 | 0.00 | 43 | 1013.6 |
| 20260906190133 | 24 | 240 | 4.8 | 16.1 | 0.00 | 0.00 | 0.00 | 43 | 1013.6 |
| 20260906190033 | 24 | 250 | 4.8 | 16.1 | 0.00 | 0.00 | 0.00 | 43 | 1013.6 |
| 20260906185933 | 24 | 243 | 4.8 | 16.1 | 0.00 | 0.00 | 0.00 | 45 | 1013.6 |
| 20260906185832 | 24 | 221 | 4.8 | 16.1 | 0.00 | 0.00 | 0.00 | 47 | 1013.6 |
| 20260906185736 | 24 | 233 | 4.8 | 16.1 | 0.00 | 0.00 | 0.00 | 49 | 1013.6 |
| 20260906185702 | 24 | 139 | 4.8 | 16.1 | 0.00 | 0.00 | 0.00 | 49 | 1013.6 |
| 20260906185633 | 23 | 140 | 4.8 | 16.1 | 0.00 | 0.00 | 0.00 | 51 | 1013.6 |
| 20260906185533 | 23 | 168 | 4.8 | 16.1 | 0.00 | 0.00 | 0.00 | 49 | 1013.6 |
| 20260906185433 | 23 | 228 | 4.8 | 16.1 | 0.00 | 0.00 | 0.00 | 48 | 1013.6 |
| 20260906185331 | 23 | 238 | 4.8 | 16.1 | 0.00 | 0.00 | 0.00 | 48 | 1013.5 |
| 20260906185236 | 23 | 231 | 4.8 | 12.9 | 0.00 | 0.00 | 0.00 | 48 | 1013.5 |
| 20260906185157 | 23 | 246 | 3.2 | 12.9 | 0.00 | 0.00 | 0.00 | 48 | 1013.5 |
| 20260906185131 | 23 | 210 | 3.2 | 11.3 | 0.00 | 0.00 | 0.00 | 48 | 1013.5 |
| 20260906185029 | 23 | 235 | 4.8 | 12.9 | 0.00 | 0.00 | 0.00 | 49 | 1013.6 |
| 20260906184929 | 23 | 260 | 4.8 | 12.9 | 0.00 | 0.00 | 0.00 | 48 | 1013.6 |
| 20260906184829 | 23 | 185 | 4.8 | 12.9 | 0.00 | 0.00 | 0.00 | 48 | 1013.6 |
| 20260906184725 | 23 | 204 | 4.8 | 12.9 | 0.00 | 0.00 | 0.00 | 48 | 1013.6 |
| 20260906184656 | 23 | 242 | 4.8 | 12.9 | 0.00 | 0.00 | 0.00 | 48 | 1013.6 |
| 20260906184624 | 23 | 248 | 4.8 | 12.9 | 0.00 | 0.00 | 0.00 | 47 | 1013.6 |
| 20260906184523 | 23 | 271 | 4.8 | 12.9 | 0.00 | 0.00 | 0.00 | 49 | 1013.6 |
| 20260906184423 | 23 | 260 | 4.8 | 12.9 | 0.00 | 0.00 | 0.00 | 49 | 1013.7 |
| 20260906184324 | 23 | 253 | 4.8 | 12.9 | 0.00 | 0.00 | 0.00 | 49 | 1013.6 |
| 20260906184223 | 23 | 218 | 4.8 | 12.9 | 0.00 | 0.00 | 0.00 | 47 | 1013.7 |
| 20260906184157 | 23 | 229 | 4.8 | 12.9 | 0.00 | 0.00 | 0.00 | 47 | 1013.7 |
| 20260906184123 | 23 | 246 | 4.8 | 12.9 | 0.00 | 0.00 | 0.00 | 47 | 1013.7 |
| 20260906184023 | 23 | 221 | 4.8 | 12.9 | 0.00 | 0.00 | 0.00 | 48 | 1013.7 |
| 20260906183923 | 23 | 194 | 4.8 | 12.9 | 0.00 | 0.00 | 0.00 | 49 | 1013.8 |
| 20260906183823 | 23 | 156 | 4.8 | 12.9 | 0.00 | 0.00 | 0.00 | 49 | 1013.7 |
| 20260906183723 | 23 | 216 | 4.8 | 14.5 | 0.00 | 0.00 | 0.00 | 50 | 1013.7 |
| 20260906183656 | 23 | 235 | 4.8 | 14.5 | 0.00 | 0.00 | 0.00 | 50 | 1013.7 |
| 20260906183623 | 23 | 231 | 4.8 | 14.5 | 0.00 | 0.00 | 0.00 | 52 | 1013.7 |
| 20260906183519 | 23 | 223 | 4.8 | 14.5 | 0.00 | 0.00 | 0.00 | 53 | 1013.7 |
| 20260906183419 | 23 | 249 | 6.4 | 14.5 | 0.00 | 0.00 | 0.00 | 52 | 1013.7 |
| 20260906183321 | 22 | 210 | 6.4 | 14.5 | 0.00 | 0.00 | 0.00 | 52 | 1013.7 |
| 20260906183219 | 22 | 266 | 6.4 | 14.5 | 0.00 | 0.00 | 0.00 | 52 | 1013.7 |
| 20260906183157 | 22 | 217 | 6.4 | 14.5 | 0.00 | 0.00 | 0.00 | 52 | 1013.8 |
| 20260906183120 | 22 | 245 | 6.4 | 14.5 | 0.00 | 0.00 | 0.00 | 52 | 1013.8 |
| 20260906183019 | 22 | 219 | 8.0 | 16.1 | 0.00 | 0.00 | 0.00 | 53 | 1013.8 |
| 20260906182919 | 22 | 264 | 6.4 | 16.1 | 0.00 | 0.00 | 0.00 | 53 | 1013.8 |
| 20260906182819 | 22 | 129 | 6.4 | 16.1 | 0.00 | 0.00 | 0.00 | 53 | 1013.8 |
| 20260906182719 | 22 | 243 | 6.4 | 16.1 | 0.00 | 0.00 | 0.00 | 53 | 1013.8 |
| 20260906182656 | 22 | 224 | 6.4 | 16.1 | 0.00 | 0.00 | 0.00 | 53 | 1013.8 |
| 20260906182619 | 22 | 243 | 6.4 | 16.1 | 0.00 | 0.00 | 0.00 | 53 | 1013.8 |
| 20260906182520 | 22 | 232 | 6.4 | 16.1 | 0.00 | 0.00 | 0.00 | 53 | 1013.8 |
| 20260906182419 | 22 | 248 | 6.4 | 16.1 | 0.00 | 0.00 | 0.00 | 52 | 1013.8 |
| 20260906182319 | 22 | 233 | 6.4 | 16.1 | 0.00 | 0.00 | 0.00 | 53 | 1013.8 |
| 20260906182219 | 22 | 218 | 6.4 | 16.1 | 0.00 | 0.00 | 0.00 | 53 | 1013.8 |
| 20260906182157 | 22 | 240 | 6.4 | 16.1 | 0.00 | 0.00 | 0.00 | 53 | 1013.8 |
| 20260906182119 | 22 | 246 | 6.4 | 16.1 | 0.00 | 0.00 | 0.00 | 52 | 1013.8 |
| 20260906182019 | 22 | 277 | 6.4 | 12.9 | 0.00 | 0.00 | 0.00 | 54 | 1013.8 |
| 20260906181919 | 22 | 216 | 6.4 | 12.9 | 0.00 | 0.00 | 0.00 | 53 | 1013.9 |
| 20260906181818 | 22 | 201 | 6.4 | 12.9 | 0.00 | 0.00 | 0.00 | 54 | 1013.8 |
| 20260906181719 | 22 | 238 | 6.4 | 12.9 | 0.00 | 0.00 | 0.00 | 53 | 1013.8 |
| 20260906181656 | 22 | 239 | 6.4 | 12.9 | 0.00 | 0.00 | 0.00 | 53 | 1013.8 |
| 20260906181618 | 22 | 221 | 6.4 | 12.9 | 0.00 | 0.00 | 0.00 | 53 | 1013.8 |
| 20260906181517 | 22 | 219 | 8.0 | 12.9 | 0.00 | 0.00 | 0.00 | 54 | 1013.8 |
| 20260906181417 | 22 | 207 | 6.4 | 12.9 | 0.00 | 0.00 | 0.00 | 54 | 1013.8 |
| 20260906181318 | 22 | 227 | 6.4 | 12.9 | 0.00 | 0.00 | 0.00 | 54 | 1013.9 |
| 20260906181217 | 22 | 200 | 4.8 | 12.9 | 0.00 | 0.00 | 0.00 | 55 | 1013.9 |
| 20260906181156 | 22 | 193 | 4.8 | 12.9 | 0.00 | 0.00 | 0.00 | 55 | 1013.9 |
| 20260906181117 | 22 | 220 | 4.8 | 12.9 | 0.00 | 0.00 | 0.00 | 56 | 1013.9 |
| 20260906181017 | 22 | 271 | 4.8 | 12.9 | 0.00 | 0.00 | 0.00 | 56 | 1013.9 |
| 20260906180915 | 22 | 215 | 4.8 | 12.9 | 0.00 | 0.00 | 0.00 | 55 | 1013.9 |
| 20260906180815 | 22 | 246 | 4.8 | 12.9 | 0.00 | 0.00 | 0.00 | 55 | 1013.9 |
| 20260906180715 | 22 | 195 | 3.2 | 11.3 | 0.00 | 0.00 | 0.00 | 54 | 1014.0 |
| 20260906180656 | 22 | 215 | 3.2 | 11.3 | 0.00 | 0.00 | 0.00 | 54 | 1014.0 |
| 20260906180615 | 22 | 257 | 3.2 | 11.3 | 0.00 | 0.00 | 0.00 | 56 | 1013.9 |
| 20260906180515 | 22 | 214 | 3.2 | 11.3 | 0.00 | 0.00 | 0.00 | 56 | 1014.0 |
| 20260906180413 | 22 | 240 | 3.2 | 14.5 | 0.00 | 0.00 | 0.00 | 57 | 1014.0 |
| 20260906180313 | 22 | 240 | 3.2 | 14.5 | 0.00 | 0.00 | 0.00 | 57 | 1014.0 |
| 20260906180213 | 22 | 240 | 3.2 | 14.5 | 0.00 | 0.00 | 0.00 | 56 | 1014.0 |
| 20260906180150 | 22 | 257 | 3.2 | 14.5 | 0.00 | 0.00 | 0.00 | 56 | 1014.0 |
| 20260906180113 | 22 | 219 | 3.2 | 14.5 | 0.00 | 0.00 | 0.00 | 56 | 1014.0 |
| 20260906180014 | 22 | 242 | 3.2 | 14.5 | 0.00 | 0.00 | 0.00 | 56 | 1014.0 |
| 20260906175915 | 22 | 197 | 3.2 | 14.5 | 0.00 | 0.00 | 0.00 | 56 | 1013.9 |
| 20260906175906 | 22 | 235 | 4.8 | 14.5 | 0.00 | 0.00 | 0.00 | 57 | 1013.9 |
| 20260906175813 | 22 | 270 | 3.2 | 14.5 | 0.00 | 0.00 | 0.00 | 56 | 1014.0 |
| 20260906175758 | 22 | 263 | 4.8 | 14.5 | 0.00 | 0.00 | 0.00 | 57 | 1013.9 |
| 20260906175614 | 22 | 256 | 4.8 | 14.5 | 0.00 | 0.00 | 0.00 | 57 | 1013.9 |
| 20260906175513 | 21 | 245 | 4.8 | 14.5 | 0.00 | 0.00 | 0.00 | 58 | 1013.9 |
| 20260906175413 | 21 | 298 | 4.8 | 12.9 | 0.00 | 0.00 | 0.00 | 59 | 1013.9 |
| 20260906175314 | 21 | 138 | 4.8 | 12.9 | 0.00 | 0.00 | 0.00 | 58 | 1014.0 |
| 20260906175209 | 21 | 139 | 4.8 | 12.9 | 0.00 | 0.00 | 0.00 | 59 | 1014.0 |
| 20260906175146 | 21 | 139 | 4.8 | 12.9 | 0.00 | 0.00 | 0.00 | 58 | 1014.0 |
| 20260906175109 | 21 | 248 | 4.8 | 12.9 | 0.00 | 0.00 | 0.00 | 58 | 1014.0 |
| 20260906175009 | 21 | 230 | 4.8 | 12.9 | 0.00 | 0.00 | 0.00 | 58 | 1014.0 |
| 20260906174909 | 21 | 222 | 6.4 | 12.9 | 0.00 | 0.00 | 0.00 | 59 | 1014.0 |
| 20260906174809 | 21 | 108 | 6.4 | 16.1 | 0.00 | 0.00 | 0.00 | 58 | 1014.1 |
| 20260906174709 | 21 | 218 | 6.4 | 16.1 | 0.00 | 0.00 | 0.00 | 58 | 1014.1 |
| 20260906174646 | 21 | 217 | 6.4 | 16.1 | 0.00 | 0.00 | 0.00 | 57 | 1014.1 |
| 20260906174607 | 21 | 216 | 6.4 | 16.1 | 0.00 | 0.00 | 0.00 | 57 | 1014.1 |
| 20260906174507 | 21 | 186 | 6.4 | 16.1 | 0.00 | 0.00 | 0.00 | 59 | 1014.0 |
| 20260906174407 | 21 | 219 | 6.4 | 16.1 | 0.00 | 0.00 | 0.00 | 60 | 1014.1 |
| 20260906174307 | 21 | 186 | 4.8 | 16.1 | 0.00 | 0.00 | 0.00 | 61 | 1014.0 |
| 20260906174207 | 21 | 214 | 4.8 | 16.1 | 0.00 | 0.00 | 0.00 | 61 | 1014.0 |
| 20260906174147 | 21 | 238 | 4.8 | 16.1 | 0.00 | 0.00 | 0.00 | 61 | 1014.0 |
| 20260906174107 | 21 | 188 | 4.8 | 16.1 | 0.00 | 0.00 | 0.00 | 61 | 1014.0 |
| 20260906174001 | 21 | 259 | 4.8 | 16.1 | 0.00 | 0.00 | 0.00 | 60 | 1014.1 |
| 20260906173901 | 21 | 257 | 4.8 | 16.1 | 0.00 | 0.00 | 0.00 | 60 | 1014.0 |
| 20260906173800 | 21 | 236 | 4.8 | 16.1 | 0.00 | 0.00 | 0.00 | 60 | 1014.1 |
| 20260906173702 | 21 | 231 | 4.8 | 12.9 | 0.00 | 0.00 | 0.00 | 60 | 1014.1 |
| 20260906173646 | 21 | 245 | 4.8 | 12.9 | 0.00 | 0.00 | 0.00 | 60 | 1014.1 |
| 20260906173602 | 21 | 224 | 3.2 | 14.5 | 0.00 | 0.00 | 0.00 | 60 | 1014.1 |
| 20260906173501 | 21 | 222 | 3.2 | 14.5 | 0.00 | 0.00 | 0.00 | 61 | 1014.0 |
| 20260906173401 | 21 | 246 | 3.2 | 14.5 | 0.00 | 0.00 | 0.00 | 61 | 1014.1 |
| 20260906173302 | 21 | 216 | 3.2 | 14.5 | 0.00 | 0.00 | 0.00 | 62 | 1014.1 |
| 20260906173201 | 21 | 250 | 3.2 | 14.5 | 0.00 | 0.00 | 0.00 | 62 | 1014.1 |
| 20260906173144 | 20 | 250 | 3.2 | 14.5 | 0.00 | 0.00 | 0.00 | 62 | 1014.1 |
| 20260906173101 | 20 | 226 | 4.8 | 14.5 | 0.00 | 0.00 | 0.00 | 62 | 1014.1 |
| 20260906173002 | 20 | 226 | 4.8 | 14.5 | 0.00 | 0.00 | 0.00 | 62 | 1014.1 |
| 20260906172901 | 20 | 222 | 4.8 | 14.5 | 0.00 | 0.00 | 0.00 | 61 | 1014.1 |
| 20260906172801 | 20 | 208 | 4.8 | 14.5 | 0.00 | 0.00 | 0.00 | 61 | 1014.1 |
| 20260906172701 | 20 | 237 | 3.2 | 14.5 | 0.00 | 0.00 | 0.00 | 61 | 1014.2 |
| 20260906172644 | 20 | 242 | 3.2 | 14.5 | 0.00 | 0.00 | 0.00 | 61 | 1014.2 |
| 20260906172601 | 20 | 214 | 3.2 | 12.9 | 0.00 | 0.00 | 0.00 | 62 | 1014.1 |
| 20260906172501 | 20 | 235 | 3.2 | 12.9 | 0.00 | 0.00 | 0.00 | 62 | 1014.1 |
| 20260906172401 | 20 | 194 | 4.8 | 12.9 | 0.00 | 0.00 | 0.00 | 63 | 1014.1 |
| 20260906172305 | 20 | 236 | 4.8 | 12.9 | 0.00 | 0.00 | 0.00 | 63 | 1014.1 |
| 20260906172201 | 20 | 236 | 4.8 | 12.9 | 0.00 | 0.00 | 0.00 | 63 | 1014.1 |
| 20260906172145 | 20 | 240 | 4.8 | 12.9 | 0.00 | 0.00 | 0.00 | 63 | 1014.1 |
| 20260906172102 | 20 | 241 | 6.4 | 16.1 | 0.00 | 0.00 | 0.00 | 63 | 1014.1 |
| 20260906172002 | 20 | 239 | 6.4 | 16.1 | 0.00 | 0.00 | 0.00 | 64 | 1014.1 |
| 20260906171901 | 20 | 203 | 6.4 | 16.1 | 0.00 | 0.00 | 0.00 | 64 | 1014.1 |
| 20260906171801 | 20 | 207 | 6.4 | 16.1 | 0.00 | 0.00 | 0.00 | 64 | 1014.2 |
| 20260906171701 | 20 | 180 | 6.4 | 16.1 | 0.00 | 0.00 | 0.00 | 64 | 1014.2 |
| 20260906171645 | 20 | 179 | 6.4 | 16.1 | 0.00 | 0.00 | 0.00 | 64 | 1014.2 |
| 20260906171601 | 20 | 197 | 6.4 | 16.1 | 0.00 | 0.00 | 0.00 | 64 | 1014.2 |
| 20260906171501 | 20 | 135 | 4.8 | 16.1 | 0.00 | 0.00 | 0.00 | 64 | 1014.1 |
| 20260906171402 | 20 | 240 | 4.8 | 16.1 | 0.00 | 0.00 | 0.00 | 64 | 1014.1 |
| 20260906171302 | 20 | 237 | 4.8 | 16.1 | 0.00 | 0.00 | 0.00 | 64 | 1014.1 |
| 20260906171202 | 20 | 233 | 4.8 | 16.1 | 0.00 | 0.00 | 0.00 | 64 | 1014.1 |
| 20260906171144 | 20 | 219 | 4.8 | 16.1 | 0.00 | 0.00 | 0.00 | 64 | 1014.1 |
| 20260906171102 | 20 | 280 | 4.8 | 14.5 | 0.00 | 0.00 | 0.00 | 64 | 1014.1 |
| 20260906171001 | 20 | 214 | 3.2 | 14.5 | 0.00 | 0.00 | 0.00 | 65 | 1014.1 |
| 20260906170857 | 20 | 214 | 3.2 | 12.9 | 0.00 | 0.00 | 0.00 | 66 | 1014.0 |
| 20260906170757 | 20 | 136 | 3.2 | 12.9 | 0.00 | 0.00 | 0.00 | 66 | 1014.0 |
| 20260906170657 | 20 | 246 | 3.2 | 12.9 | 0.00 | 0.00 | 0.00 | 67 | 1014.0 |
| 20260906170644 | 20 | 215 | 3.2 | 12.9 | 0.00 | 0.00 | 0.00 | 67 | 1014.0 |
| 20260906170557 | 19 | 217 | 3.2 | 12.9 | 0.00 | 0.00 | 0.00 | 67 | 1014.1 |
| 20260906170457 | 19 | 217 | 4.8 | 12.9 | 0.00 | 0.00 | 0.00 | 67 | 1014.1 |
| 20260906170409 | 19 | 207 | 3.2 | 12.9 | 0.00 | 0.00 | 0.00 | 67 | 1014.1 |
| 20260906170357 | 19 | 160 | 4.8 | 12.9 | 0.00 | 0.00 | 0.00 | 66 | 1014.1 |
| 20260906170304 | 19 | 239 | 3.2 | 12.9 | 0.00 | 0.00 | 0.00 | 66 | 1014.1 |
| 20260906170256 | 19 | 162 | 3.2 | 12.9 | 0.00 | 0.00 | 0.00 | 67 | 1014.1 |
| 20260906170057 | 19 | 207 | 3.2 | 12.9 | 0.00 | 0.00 | 0.00 | 68 | 1014.1 |
| 20260906165957 | 19 | 136 | 4.8 | 12.9 | 0.00 | 0.00 | 0.00 | 68 | 1014.1 |
| 20260906165857 | 19 | 210 | 4.8 | 12.9 | 0.00 | 0.00 | 0.00 | 67 | 1014.1 |
| 20260906165757 | 19 | 214 | 4.8 | 12.9 | 0.00 | 0.00 | 0.00 | 68 | 1014.1 |
| 20260906165657 | 19 | 208 | 4.8 | 12.9 | 0.00 | 0.00 | 0.00 | 67 | 1014.2 |
| 20260906165645 | 19 | 224 | 4.8 | 12.9 | 0.00 | 0.00 | 0.00 | 67 | 1014.2 |
| 20260906165558 | 19 | 231 | 4.8 | 12.9 | 0.00 | 0.00 | 0.00 | 67 | 1014.1 |
| 20260906165458 | 19 | 237 | 4.8 | 12.9 | 0.00 | 0.00 | 0.00 | 67 | 1014.2 |
| 20260906165357 | 19 | 233 | 4.8 | 11.3 | 0.00 | 0.00 | 0.00 | 68 | 1014.2 |
| 20260906165257 | 19 | 158 | 4.8 | 14.5 | 0.00 | 0.00 | 0.00 | 68 | 1014.1 |
| 20260906165157 | 19 | 240 | 4.8 | 14.5 | 0.00 | 0.00 | 0.00 | 68 | 1014.2 |
| 20260906165145 | 19 | 232 | 4.8 | 14.5 | 0.00 | 0.00 | 0.00 | 68 | 1014.2 |
| 20260906165057 | 19 | 181 | 4.8 | 14.5 | 0.00 | 0.00 | 0.00 | 68 | 1014.1 |
| 20260906164955 | 18 | 307 | 4.8 | 14.5 | 0.00 | 0.00 | 0.00 | 68 | 1014.1 |
| 20260906164855 | 18 | 197 | 4.8 | 14.5 | 0.00 | 0.00 | 0.00 | 69 | 1014.1 |
| 20260906164756 | 18 | 150 | 4.8 | 14.5 | 0.00 | 0.00 | 0.00 | 69 | 1014.1 |
| 20260906164655 | 18 | 266 | 4.8 | 14.5 | 0.00 | 0.00 | 0.00 | 69 | 1014.1 |
| 20260906164645 | 18 | 238 | 4.8 | 14.5 | 0.00 | 0.00 | 0.00 | 69 | 1014.1 |
| 20260906164555 | 18 | 193 | 4.8 | 14.5 | 0.00 | 0.00 | 0.00 | 69 | 1014.1 |
| 20260906164455 | 18 | 217 | 4.8 | 14.5 | 0.00 | 0.00 | 0.00 | 69 | 1014.2 |
| 20260906164355 | 18 | 229 | 4.8 | 14.5 | 0.00 | 0.00 | 0.00 | 70 | 1014.2 |
| 20260906164256 | 18 | 143 | 4.8 | 11.3 | 0.00 | 0.00 | 0.00 | 70 | 1014.1 |
| 20260906164154 | 18 | 229 | 4.8 | 11.3 | 0.00 | 0.00 | 0.00 | 70 | 1014.2 |
| 20260906164144 | 18 | 212 | 4.8 | 11.3 | 0.00 | 0.00 | 0.00 | 70 | 1014.2 |
| 20260906164055 | 18 | 207 | 4.8 | 11.3 | 0.00 | 0.00 | 0.00 | 71 | 1014.1 |
| 20260906163855 | 18 | 145 | 4.8 | 11.3 | 0.00 | 0.00 | 0.00 | 71 | 1014.2 |
| 20260906163755 | 18 | 153 | 4.8 | 11.3 | 0.00 | 0.00 | 0.00 | 71 | 1014.2 |
| 20260906163655 | 18 | 214 | 4.8 | 11.3 | 0.00 | 0.00 | 0.00 | 70 | 1014.2 |
| 20260906163645 | 18 | 236 | 4.8 | 11.3 | 0.00 | 0.00 | 0.00 | 70 | 1014.2 |
| 20260906163555 | 18 | 242 | 4.8 | 11.3 | 0.00 | 0.00 | 0.00 | 70 | 1014.2 |
| 20260906163455 | 18 | 253 | 4.8 | 11.3 | 0.00 | 0.00 | 0.00 | 70 | 1014.2 |
| 20260906163356 | 18 | 205 | 4.8 | 11.3 | 0.00 | 0.00 | 0.00 | 71 | 1014.2 |
| 20260906163256 | 18 | 146 | 4.8 | 11.3 | 0.00 | 0.00 | 0.00 | 71 | 1014.2 |
| 20260906163145 | 18 | 190 | 4.8 | 11.3 | 0.00 | 0.00 | 0.00 | 71 | 1014.2 |
| 20260906163051 | 18 | 239 | 4.8 | 11.3 | 0.00 | 0.00 | 0.00 | 70 | 1014.2 |
| 20260906162951 | 18 | 243 | 4.8 | 11.3 | 0.00 | 0.00 | 0.00 | 70 | 1014.2 |
| 20260906162910 | 18 | 195 | 3.2 | 11.3 | 0.00 | 0.00 | 0.00 | 71 | 1014.3 |
| 20260906162851 | 18 | 233 | 4.8 | 11.3 | 0.00 | 0.00 | 0.00 | 71 | 1014.2 |
| 20260906162803 | 18 | 186 | 4.8 | 11.3 | 0.00 | 0.00 | 0.00 | 70 | 1014.2 |
| 20260906162755 | 18 | 235 | 3.2 | 11.3 | 0.00 | 0.00 | 0.00 | 71 | 1014.3 |
| 20260906162551 | 18 | 225 | 3.2 | 11.3 | 0.00 | 0.00 | 0.00 | 71 | 1014.3 |
| 20260906162451 | 18 | 162 | 4.8 | 12.9 | 0.00 | 0.00 | 0.00 | 71 | 1014.3 |
| 20260906162351 | 18 | 202 | 3.2 | 12.9 | 0.00 | 0.00 | 0.00 | 71 | 1014.3 |
| 20260906162252 | 18 | 201 | 3.2 | 12.9 | 0.00 | 0.00 | 0.00 | 71 | 1014.3 |
| 20260906162155 | 18 | 236 | 3.2 | 12.9 | 0.00 | 0.00 | 0.00 | 72 | 1014.3 |
| 20260906162145 | 18 | 246 | 3.2 | 12.9 | 0.00 | 0.00 | 0.00 | 72 | 1014.3 |
| 20260906162049 | 18 | 203 | 3.2 | 12.9 | 0.00 | 0.00 | 0.00 | 72 | 1014.3 |
| 20260906161949 | 17 | 225 | 3.2 | 12.9 | 0.00 | 0.00 | 0.00 | 73 | 1014.3 |
| 20260906161849 | 17 | 163 | 3.2 | 12.9 | 0.00 | 0.00 | 0.00 | 72 | 1014.3 |
| 20260906161749 | 17 | 200 | 3.2 | 12.9 | 0.00 | 0.00 | 0.00 | 72 | 1014.3 |
| 20260906161643 | 17 | 228 | 3.2 | 12.9 | 0.00 | 0.00 | 0.00 | 71 | 1014.3 |
| 20260906161547 | 18 | 231 | 3.2 | 12.9 | 0.00 | 0.00 | 0.00 | 71 | 1014.3 |
| 20260906161447 | 18 | 243 | 3.2 | 11.3 | 0.00 | 0.00 | 0.00 | 72 | 1014.2 |
| 20260906161347 | 18 | 225 | 3.2 | 11.3 | 0.00 | 0.00 | 0.00 | 72 | 1014.3 |
| 20260906161248 | 17 | 238 | 3.2 | 11.3 | 0.00 | 0.00 | 0.00 | 72 | 1014.2 |
| 20260906161140 | 17 | 203 | 3.2 | 11.3 | 0.00 | 0.00 | 0.00 | 72 | 1014.3 |
| 20260906161047 | 17 | 226 | 3.2 | 8.0 | 0.00 | 0.00 | 0.00 | 73 | 1014.3 |
| 20260906160948 | 17 | 129 | 3.2 | 11.3 | 0.00 | 0.00 | 0.00 | 72 | 1014.3 |
| 20260906160847 | 17 | 226 | 3.2 | 11.3 | 0.00 | 0.00 | 0.00 | 72 | 1014.2 |
| 20260906160748 | 17 | 243 | 3.2 | 11.3 | 0.00 | 0.00 | 0.00 | 72 | 1014.3 |
| 20260906160650 | 17 | 233 | 1.6 | 11.3 | 0.00 | 0.00 | 0.00 | 73 | 1014.3 |
| 20260906160640 | 17 | 229 | 1.6 | 11.3 | 0.00 | 0.00 | 0.00 | 73 | 1014.3 |
| 20260906160621 | 18 | 225 | 1.6 | 11.3 | 0.00 | 0.00 | 0.00 | 72 | 1014.3 |
| 20260906160547 | 17 | 232 | 1.6 | 11.3 | 0.00 | 0.00 | 0.00 | 73 | 1014.3 |
| 20260906160511 | 17 | 233 | 1.6 | 11.3 | 0.00 | 0.00 | 0.00 | 72 | 1014.3 |
| 20260906160347 | 17 | 233 | 1.6 | 11.3 | 0.00 | 0.00 | 0.00 | 72 | 1014.3 |
| 20260906160300 | 17 | 225 | 1.6 | 11.3 | 0.00 | 0.00 | 0.00 | 71 | 1014.3 |
| 20260906160252 | 18 | 218 | 1.6 | 11.3 | 0.00 | 0.00 | 0.00 | 72 | 1014.3 |
| 20260906160047 | 18 | 242 | 1.6 | 9.7 | 0.00 | 0.00 | 0.00 | 73 | 1014.3 |
| 20260906155943 | 17 | 145 | 1.6 | 8.0 | 0.00 | 0.00 | 0.00 | 73 | 1014.2 |
| 20260906155843 | 17 | 117 | 1.6 | 8.0 | 0.00 | 0.00 | 0.00 | 73 | 1014.2 |
| 20260906155744 | 17 | 125 | 1.6 | 8.0 | 0.00 | 0.00 | 0.00 | 74 | 1014.2 |
| 20260906155645 | 17 | 130 | 1.6 | 8.0 | 0.00 | 0.00 | 0.00 | 74 | 1014.2 |
| 20260906155543 | 17 | 129 | 3.2 | 8.0 | 0.00 | 0.00 | 0.00 | 74 | 1014.2 |
| 20260906155444 | 17 | 221 | 3.2 | 8.0 | 0.00 | 0.00 | 0.00 | 74 | 1014.2 |
| 20260906155343 | 17 | 216 | 3.2 | 8.0 | 0.00 | 0.00 | 0.00 | 75 | 1014.2 |
| 20260906155244 | 17 | 253 | 3.2 | 9.7 | 0.00 | 0.00 | 0.00 | 74 | 1014.1 |
| 20260906155145 | 17 | 238 | 3.2 | 9.7 | 0.00 | 0.00 | 0.00 | 74 | 1014.1 |
| 20260906155043 | 17 | 224 | 3.2 | 9.7 | 0.00 | 0.00 | 0.00 | 74 | 1014.1 |
| 20260906154943 | 17 | 215 | 3.2 | 9.7 | 0.00 | 0.00 | 0.00 | 74 | 1014.2 |
| 20260906154843 | 17 | 253 | 3.2 | 9.7 | 0.00 | 0.00 | 0.00 | 74 | 1014.2 |
| 20260906154744 | 17 | 235 | 3.2 | 9.7 | 0.00 | 0.00 | 0.00 | 74 | 1014.2 |
| 20260906154644 | 17 | 221 | 3.2 | 9.7 | 0.00 | 0.00 | 0.00 | 74 | 1014.2 |
| 20260906154543 | 17 | 137 | 3.2 | 9.7 | 0.00 | 0.00 | 0.00 | 74 | 1014.2 |
| 20260906154443 | 17 | 141 | 3.2 | 9.7 | 0.00 | 0.00 | 0.00 | 74 | 1014.2 |
| 20260906154343 | 17 | 165 | 1.6 | 9.7 | 0.00 | 0.00 | 0.00 | 75 | 1014.2 |
| 20260906154244 | 17 | 160 | 1.6 | 9.7 | 0.00 | 0.00 | 0.00 | 74 | 1014.2 |
| 20260906154145 | 17 | 215 | 3.2 | 9.7 | 0.00 | 0.00 | 0.00 | 74 | 1014.2 |
| 20260906154039 | 17 | 130 | 3.2 | 9.7 | 0.00 | 0.00 | 0.00 | 74 | 1014.2 |
| 20260906153939 | 17 | 219 | 1.6 | 9.7 | 0.00 | 0.00 | 0.00 | 76 | 1014.3 |
| 20260906153839 | 17 | 124 | 1.6 | 9.7 | 0.00 | 0.00 | 0.00 | 76 | 1014.2 |
| 20260906153740 | 17 | 186 | 1.6 | 9.7 | 0.00 | 0.00 | 0.00 | 76 | 1014.2 |
| 20260906153639 | 17 | 200 | 1.6 | 9.7 | 0.00 | 0.00 | 0.00 | 76 | 1014.2 |
| 20260906153539 | 16 | 200 | 3.2 | 9.7 | 0.00 | 0.00 | 0.00 | 76 | 1014.1 |
| 20260906153439 | 16 | 121 | 3.2 | 9.7 | 0.00 | 0.00 | 0.00 | 76 | 1014.2 |
| 20260906153340 | 16 | 224 | 3.2 | 9.7 | 0.00 | 0.00 | 0.00 | 75 | 1014.2 |
| 20260906153240 | 16 | 238 | 3.2 | 9.7 | 0.00 | 0.00 | 0.00 | 75 | 1014.2 |
| 20260906153144 | 16 | 243 | 3.2 | 8.0 | 0.00 | 0.00 | 0.00 | 76 | 1014.2 |
| 20260906153139 | 16 | 245 | 3.2 | 8.0 | 0.00 | 0.00 | 0.00 | 76 | 1014.2 |
| 20260906153040 | 16 | 235 | 3.2 | 8.0 | 0.00 | 0.00 | 0.00 | 76 | 1014.2 |
| 20260906152939 | 16 | 116 | 3.2 | 8.0 | 0.00 | 0.00 | 0.00 | 77 | 1014.2 |
| 20260906152839 | 16 | 132 | 3.2 | 8.0 | 0.00 | 0.00 | 0.00 | 77 | 1014.2 |
| 20260906152740 | 16 | 211 | 3.2 | 8.0 | 0.00 | 0.00 | 0.00 | 76 | 1014.2 |
| 20260906152645 | 16 | 232 | 3.2 | 8.0 | 0.00 | 0.00 | 0.00 | 76 | 1014.2 |
| 20260906152639 | 16 | 231 | 3.2 | 8.0 | 0.00 | 0.00 | 0.00 | 76 | 1014.2 |
| 20260906152539 | 16 | 232 | 3.2 | 8.0 | 0.00 | 0.00 | 0.00 | 77 | 1014.3 |
| 20260906152439 | 16 | 229 | 3.2 | 8.0 | 0.00 | 0.00 | 0.00 | 77 | 1014.3 |
| 20260906152339 | 16 | 146 | 3.2 | 8.0 | 0.00 | 0.00 | 0.00 | 77 | 1014.2 |
| 20260906152241 | 16 | 146 | 3.2 | 8.0 | 0.00 | 0.00 | 0.00 | 77 | 1014.3 |
| 20260906152139 | 16 | 204 | 3.2 | 8.0 | 0.00 | 0.00 | 0.00 | 77 | 1014.3 |
| 20260906152038 | 16 | 226 | 3.2 | 8.0 | 0.00 | 0.00 | 0.00 | 77 | 1014.3 |
| 20260906151939 | 16 | 210 | 1.6 | 8.0 | 0.00 | 0.00 | 0.00 | 77 | 1014.3 |
| 20260906151839 | 16 | 210 | 3.2 | 8.0 | 0.00 | 0.00 | 0.00 | 76 | 1014.3 |
| 20260906151738 | 16 | 228 | 1.6 | 8.0 | 0.00 | 0.00 | 0.00 | 77 | 1014.3 |
| 20260906151643 | 16 | 150 | 1.6 | 8.0 | 0.00 | 0.00 | 0.00 | 76 | 1014.3 |
| 20260906151637 | 16 | 173 | 1.6 | 8.0 | 0.00 | 0.00 | 0.00 | 76 | 1014.3 |
| 20260906151537 | 16 | 212 | 1.6 | 6.4 | 0.00 | 0.00 | 0.00 | 77 | 1014.3 |
| 20260906151437 | 16 | 161 | 1.6 | 6.4 | 0.00 | 0.00 | 0.00 | 77 | 1014.3 |
| 20260906151337 | 16 | 129 | 1.6 | 6.4 | 0.00 | 0.00 | 0.00 | 77 | 1014.3 |
| 20260906151239 | 16 | 138 | 1.6 | 6.4 | 0.00 | 0.00 | 0.00 | 77 | 1014.3 |
| 20260906151137 | 16 | 229 | 1.6 | 6.4 | 0.00 | 0.00 | 0.00 | 76 | 1014.3 |
| 20260906151037 | 16 | 190 | 1.6 | 4.8 | 0.00 | 0.00 | 0.00 | 77 | 1014.3 |
| 20260906150937 | 16 | 186 | 1.6 | 4.8 | 0.00 | 0.00 | 0.00 | 77 | 1014.3 |
| 20260906150837 | 16 | 132 | 1.6 | 4.8 | 0.00 | 0.00 | 0.00 | 77 | 1014.3 |
| 20260906150738 | 16 | 243 | 1.6 | 4.8 | 0.00 | 0.00 | 0.00 | 77 | 1014.3 |
| 20260906150637 | 16 | 243 | 1.6 | 4.8 | 0.00 | 0.00 | 0.00 | 78 | 1014.3 |
| 20260906150537 | 16 | 137 | 1.6 | 4.8 | 0.00 | 0.00 | 0.00 | 78 | 1014.3 |
| 20260906150437 | 16 | 137 | 1.6 | 4.8 | 0.00 | 0.00 | 0.00 | 78 | 1014.3 |
| 20260906150337 | 16 | 136 | 1.6 | 4.8 | 0.00 | 0.00 | 0.00 | 78 | 1014.3 |
| 20260906150234 | 16 | 142 | 1.6 | 4.8 | 0.00 | 0.00 | 0.00 | 78 | 1014.3 |
| 20260906150139 | 16 | 138 | 1.6 | 4.8 | 0.00 | 0.00 | 0.00 | 78 | 1014.3 |
| 20260906150133 | 16 | 145 | 1.6 | 4.8 | 0.00 | 0.00 | 0.00 | 78 | 1014.3 |
| 20260906150034 | 16 | 118 | 1.6 | 4.8 | 0.00 | 0.00 | 0.00 | 78 | 1014.3 |
| 20260906145933 | 16 | 155 | 1.6 | 4.8 | 0.00 | 0.00 | 0.00 | 78 | 1014.3 |
| 20260906145833 | 16 | 137 | 1.6 | 4.8 | 0.00 | 0.00 | 0.00 | 79 | 1014.3 |
| 20260906145732 | 16 | 148 | 1.6 | 4.8 | 0.00 | 0.00 | 0.00 | 79 | 1014.3 |
| 20260906145639 | 15 | 163 | 1.6 | 4.8 | 0.00 | 0.00 | 0.00 | 79 | 1014.3 |
| 20260906145629 | 15 | 121 | 1.6 | 4.8 | 0.00 | 0.00 | 0.00 | 79 | 1014.3 |
| 20260906145529 | 15 | 103 | 1.6 | 4.8 | 0.00 | 0.00 | 0.00 | 79 | 1014.3 |
| 20260906145429 | 15 | 101 | 1.6 | 4.8 | 0.00 | 0.00 | 0.00 | 79 | 1014.3 |
| 20260906145355 | 15 | 136 | 1.6 | 3.2 | 0.00 | 0.00 | 0.00 | 80 | 1014.2 |
| 20260906145330 | 15 | 107 | 1.6 | 4.8 | 0.00 | 0.00 | 0.00 | 79 | 1014.2 |
| 20260906145246 | 15 | 96 | 1.6 | 4.8 | 0.00 | 0.00 | 0.00 | 80 | 1014.2 |
| 20260906145129 | 15 | 144 | 1.6 | 3.2 | 0.00 | 0.00 | 0.00 | 80 | 1014.2 |
| 20260906145025 | 15 | 171 | 1.6 | 3.2 | 0.00 | 0.00 | 0.00 | 80 | 1014.2 |
| 20260906144925 | 15 | 136 | 1.6 | 3.2 | 0.00 | 0.00 | 0.00 | 80 | 1014.2 |
| 20260906144825 | 15 | 139 | 1.6 | 3.2 | 0.00 | 0.00 | 0.00 | 80 | 1014.2 |
| 20260906144729 | 15 | 138 | 1.6 | 3.2 | 0.00 | 0.00 | 0.00 | 80 | 1014.2 |
| 20260906144634 | 15 | 123 | 1.6 | 3.2 | 0.00 | 0.00 | 0.00 | 80 | 1014.2 |
| 20260906144625 | 15 | 120 | 1.6 | 3.2 | 0.00 | 0.00 | 0.00 | 80 | 1014.2 |
| 20260906144525 | 15 | 148 | 1.6 | 3.2 | 0.00 | 0.00 | 0.00 | 80 | 1014.1 |
| 20260906144425 | 15 | 134 | 1.6 | 3.2 | 0.00 | 0.00 | 0.00 | 80 | 1014.1 |
| 20260906144325 | 15 | 149 | 0.0 | 3.2 | 0.00 | 0.00 | 0.00 | 81 | 1014.1 |
| 20260906144231 | 15 | 128 | 0.0 | 3.2 | 0.00 | 0.00 | 0.00 | 81 | 1014.0 |
| 20260906144125 | 15 | 143 | 1.6 | 3.2 | 0.00 | 0.00 | 0.00 | 81 | 1014.0 |
| 20260906144025 | 15 | 143 | 1.6 | 3.2 | 0.00 | 0.00 | 0.00 | 81 | 1014.0 |
| 20260906143925 | 15 | 142 | 0.0 | 3.2 | 0.00 | 0.00 | 0.00 | 81 | 1014.0 |
| 20260906143825 | 15 | 143 | 1.6 | 3.2 | 0.00 | 0.00 | 0.00 | 81 | 1014.0 |
| 20260906143729 | 15 | 132 | 1.6 | 3.2 | 0.00 | 0.00 | 0.00 | 82 | 1013.9 |
| 20260906143634 | 15 | 120 | 0.0 | 3.2 | 0.00 | 0.00 | 0.00 | 82 | 1013.9 |
| 20260906143625 | 15 | 122 | 0.0 | 3.2 | 0.00 | 0.00 | 0.00 | 82 | 1013.9 |
| 20260906143526 | 15 | 146 | 0.0 | 3.2 | 0.00 | 0.00 | 0.00 | 82 | 1013.9 |
| 20260906143425 | 14 | 110 | 0.0 | 3.2 | 0.00 | 0.00 | 0.00 | 82 | 1013.8 |
| 20260906143326 | 14 | 186 | 0.0 | 3.2 | 0.00 | 0.00 | 0.00 | 83 | 1013.9 |
| 20260906143230 | 14 | 103 | 1.6 | 3.2 | 0.00 | 0.00 | 0.00 | 83 | 1013.9 |
| 20260906143123 | 14 | 134 | 1.6 | 3.2 | 0.00 | 0.00 | 0.00 | 83 | 1013.9 |
| 20260906143021 | 14 | 134 | 1.6 | 3.2 | 0.00 | 0.00 | 0.00 | 84 | 1013.8 |
| 20260906142921 | 14 | 120 | 1.6 | 3.2 | 0.00 | 0.00 | 0.00 | 84 | 1013.9 |
| 20260906142855 | 13 | 131 | 1.6 | 3.2 | 0.00 | 0.00 | 0.00 | 85 | 1013.8 |
| 20260906142821 | 14 | 150 | 1.6 | 3.2 | 0.00 | 0.00 | 0.00 | 84 | 1013.8 |
| 20260906142746 | 13 | 131 | 1.6 | 3.2 | 0.00 | 0.00 | 0.00 | 85 | 1013.8 |
| 20260906142622 | 13 | 131 | 1.6 | 3.2 | 0.00 | 0.00 | 0.00 | 85 | 1013.8 |
| 20260906142521 | 13 | 131 | 1.6 | 3.2 | 0.00 | 0.00 | 0.00 | 85 | 1013.8 |
| 20260906142422 | 13 | 131 | 1.6 | 3.2 | 0.00 | 0.00 | 0.00 | 85 | 1013.8 |
| 20260906142322 | 13 | 105 | 1.6 | 3.2 | 0.00 | 0.00 | 0.00 | 85 | 1013.8 |
| 20260906142221 | 13 | 101 | 1.6 | 3.2 | 0.00 | 0.00 | 0.00 | 85 | 1013.8 |
| 20260906142135 | 13 | 105 | 1.6 | 3.2 | 0.00 | 0.00 | 0.00 | 86 | 1013.8 |
| 20260906142125 | 13 | 104 | 1.6 | 3.2 | 0.00 | 0.00 | 0.00 | 86 | 1013.8 |
| 20260906142021 | 13 | 111 | 1.6 | 3.2 | 0.00 | 0.00 | 0.00 | 86 | 1013.8 |
| 20260906141921 | 13 | 115 | 1.6 | 3.2 | 0.00 | 0.00 | 0.00 | 86 | 1013.8 |
| 20260906141822 | 13 | 101 | 1.6 | 3.2 | 0.00 | 0.00 | 0.00 | 86 | 1013.8 |
| 20260906141721 | 13 | 100 | 1.6 | 3.2 | 0.00 | 0.00 | 0.00 | 86 | 1013.8 |
| 20260906141621 | 13 | 150 | 1.6 | 3.2 | 0.00 | 0.00 | 0.00 | 86 | 1013.8 |
| 20260906141521 | 13 | 138 | 1.6 | 3.2 | 0.00 | 0.00 | 0.00 | 86 | 1013.8 |
| 20260906141421 | 13 | 139 | 1.6 | 3.2 | 0.00 | 0.00 | 0.00 | 86 | 1013.8 |
| 20260906141322 | 13 | 136 | 1.6 | 4.8 | 0.00 | 0.00 | 0.00 | 86 | 1013.8 |
| 20260906141217 | 13 | 136 | 0.0 | 4.8 | 0.00 | 0.00 | 0.00 | 86 | 1013.7 |
| 20260906141134 | 13 | 135 | 1.6 | 4.8 | 0.00 | 0.00 | 0.00 | 86 | 1013.7 |
| 20260906141123 | 13 | 136 | 1.6 | 4.8 | 0.00 | 0.00 | 0.00 | 86 | 1013.7 |
| 20260906141017 | 13 | 135 | 1.6 | 4.8 | 0.00 | 0.00 | 0.00 | 86 | 1013.7 |
| 20260906140918 | 13 | 134 | 1.6 | 4.8 | 0.00 | 0.00 | 0.00 | 86 | 1013.7 |
| 20260906140818 | 13 | 134 | 1.6 | 6.4 | 0.00 | 0.00 | 0.00 | 86 | 1013.7 |
| 20260906140717 | 13 | 134 | 1.6 | 6.4 | 0.00 | 0.00 | 0.00 | 87 | 1013.7 |
| 20260906140617 | 13 | 134 | 1.6 | 6.4 | 0.00 | 0.00 | 0.00 | 87 | 1013.7 |
| 20260906140517 | 13 | 134 | 3.2 | 6.4 | 0.00 | 0.00 | 0.00 | 87 | 1013.6 |
| 20260906140417 | 13 | 113 | 3.2 | 6.4 | 0.00 | 0.00 | 0.00 | 87 | 1013.7 |
| 20260906140318 | 13 | 136 | 3.2 | 6.4 | 0.00 | 0.00 | 0.00 | 87 | 1013.6 |
| 20260906140217 | 13 | 136 | 3.2 | 6.4 | 0.00 | 0.00 | 0.00 | 87 | 1013.6 |
| 20260906140134 | 13 | 138 | 3.2 | 6.4 | 0.00 | 0.00 | 0.00 | 87 | 1013.6 |
| 20260906140119 | 13 | 141 | 3.2 | 6.4 | 0.00 | 0.00 | 0.00 | 87 | 1013.6 |
| 20260906140017 | 13 | 127 | 3.2 | 6.4 | 0.00 | 0.00 | 0.00 | 87 | 1013.6 |
| 20260906135918 | 13 | 137 | 3.2 | 6.4 | 0.00 | 0.00 | 0.00 | 87 | 1013.5 |
| 20260906135818 | 13 | 136 | 1.6 | 6.4 | 0.00 | 0.00 | 0.00 | 88 | 1013.5 |
| 20260906135717 | 13 | 117 | 1.6 | 6.4 | 0.00 | 0.00 | 0.00 | 88 | 1013.5 |
| 20260906135634 | 13 | 129 | 1.6 | 6.4 | 0.00 | 0.00 | 0.00 | 88 | 1013.5 |
| 20260906135618 | 13 | 130 | 1.6 | 6.4 | 0.00 | 0.00 | 0.00 | 88 | 1013.5 |
| 20260906135517 | 13 | 121 | 1.6 | 6.4 | 0.00 | 0.00 | 0.00 | 88 | 1013.5 |
| 20260906135417 | 13 | 126 | 1.6 | 4.8 | 0.00 | 0.00 | 0.00 | 88 | 1013.5 |
| 20260906135314 | 13 | 136 | 1.6 | 4.8 | 0.00 | 0.00 | 0.00 | 88 | 1013.5 |
| 20260906135213 | 13 | 141 | 1.6 | 4.8 | 0.00 | 0.00 | 0.00 | 88 | 1013.5 |
| 20260906135134 | 13 | 129 | 1.6 | 4.8 | 0.00 | 0.00 | 0.00 | 88 | 1013.5 |
| 20260906135111 | 13 | 135 | 1.6 | 4.8 | 0.00 | 0.00 | 0.00 | 88 | 1013.5 |
| 20260906135011 | 13 | 135 | 1.6 | 4.8 | 0.00 | 0.00 | 0.00 | 88 | 1013.5 |
| 20260906134911 | 13 | 141 | 1.6 | 4.8 | 0.00 | 0.00 | 0.00 | 88 | 1013.5 |
| 20260906134812 | 13 | 143 | 1.6 | 4.8 | 0.00 | 0.00 | 0.00 | 88 | 1013.5 |
| 20260906134711 | 13 | 138 | 1.6 | 4.8 | 0.00 | 0.00 | 0.00 | 88 | 1013.4 |
| 20260906134611 | 13 | 131 | 1.6 | 4.8 | 0.00 | 0.00 | 0.00 | 88 | 1013.4 |
| 20260906134511 | 13 | 135 | 1.6 | 3.2 | 0.00 | 0.00 | 0.00 | 88 | 1013.4 |
| 20260906134411 | 13 | 148 | 1.6 | 3.2 | 0.00 | 0.00 | 0.00 | 88 | 1013.4 |
| 20260906134312 | 13 | 148 | 1.6 | 3.2 | 0.00 | 0.00 | 0.00 | 88 | 1013.4 |
| 20260906134211 | 13 | 146 | 0.0 | 3.2 | 0.00 | 0.00 | 0.00 | 88 | 1013.3 |
| 20260906134132 | 13 | 143 | 0.0 | 3.2 | 0.00 | 0.00 | 0.00 | 88 | 1013.3 |
| 20260906134107 | 13 | 123 | 1.6 | 3.2 | 0.00 | 0.00 | 0.00 | 88 | 1013.4 |
| 20260906134007 | 13 | 143 | 1.6 | 3.2 | 0.00 | 0.00 | 0.00 | 88 | 1013.4 |
| 20260906133907 | 13 | 143 | 1.6 | 3.2 | 0.00 | 0.00 | 0.00 | 88 | 1013.4 |
| 20260906133808 | 13 | 144 | 1.6 | 3.2 | 0.00 | 0.00 | 0.00 | 88 | 1013.3 |
| 20260906133707 | 13 | 144 | 1.6 | 3.2 | 0.00 | 0.00 | 0.00 | 88 | 1013.3 |
| 20260906133632 | 13 | 143 | 1.6 | 3.2 | 0.00 | 0.00 | 0.00 | 88 | 1013.3 |
| 20260906133607 | 13 | 145 | 1.6 | 3.2 | 0.00 | 0.00 | 0.00 | 88 | 1013.3 |
| 20260906133507 | 13 | 142 | 1.6 | 3.2 | 0.00 | 0.00 | 0.00 | 88 | 1013.3 |
| 20260906133409 | 13 | 117 | 1.6 | 3.2 | 0.00 | 0.00 | 0.00 | 88 | 1013.3 |
| 20260906133308 | 13 | 137 | 1.6 | 3.2 | 0.00 | 0.00 | 0.00 | 88 | 1013.3 |
| 20260906133207 | 13 | 139 | 1.6 | 3.2 | 0.00 | 0.00 | 0.00 | 88 | 1013.3 |
| 20260906133132 | 13 | 140 | 1.6 | 3.2 | 0.00 | 0.00 | 0.00 | 88 | 1013.3 |
| 20260906133107 | 13 | 139 | 1.6 | 3.2 | 0.00 | 0.00 | 0.00 | 88 | 1013.3 |
| 20260906133007 | 13 | 129 | 0.0 | 3.2 | 0.00 | 0.00 | 0.00 | 88 | 1013.3 |
| 20260906132907 | 13 | 150 | 0.0 | 3.2 | 0.00 | 0.00 | 0.00 | 88 | 1013.2 |
| 20260906132808 | 13 | 164 | 0.0 | 3.2 | 0.00 | 0.00 | 0.00 | 88 | 1013.2 |
| 20260906132707 | 13 | 141 | 1.6 | 3.2 | 0.00 | 0.00 | 0.00 | 88 | 1013.3 |
| 20260906132633 | 13 | 141 | 1.6 | 3.2 | 0.00 | 0.00 | 0.00 | 88 | 1013.3 |
| 20260906132611 | 13 | 136 | 1.6 | 3.2 | 0.00 | 0.00 | 0.00 | 88 | 1013.2 |
| 20260906132607 | 13 | 139 | 1.6 | 3.2 | 0.00 | 0.00 | 0.00 | 88 | 1013.3 |
| 20260906132508 | 13 | 117 | 1.6 | 3.2 | 0.00 | 0.00 | 0.00 | 88 | 1013.3 |
| 20260906132459 | 13 | 122 | 1.6 | 3.2 | 0.00 | 0.00 | 0.00 | 88 | 1013.3 |
| 20260906132308 | 13 | 136 | 1.6 | 3.2 | 0.00 | 0.00 | 0.00 | 88 | 1013.3 |
| 20260906132203 | 13 | 135 | 1.6 | 3.2 | 0.00 | 0.00 | 0.00 | 88 | 1013.2 |
| 20260906132103 | 13 | 136 | 1.6 | 3.2 | 0.00 | 0.00 | 0.00 | 88 | 1013.3 |
| 20260906132005 | 13 | 136 | 1.6 | 3.2 | 0.00 | 0.00 | 0.00 | 88 | 1013.3 |
| 20260906131903 | 13 | 136 | 1.6 | 4.8 | 0.00 | 0.00 | 0.00 | 88 | 1013.3 |
| 20260906131805 | 13 | 132 | 1.6 | 4.8 | 0.00 | 0.00 | 0.00 | 88 | 1013.3 |
| 20260906131703 | 13 | 133 | 0.0 | 4.8 | 0.00 | 0.00 | 0.00 | 88 | 1013.2 |
| 20260906131641 | 13 | 150 | 0.0 | 4.8 | 0.00 | 0.00 | 0.00 | 88 | 1013.2 |
| 20260906131603 | 13 | 151 | 0.0 | 4.8 | 0.00 | 0.00 | 0.00 | 88 | 1013.3 |
| 20260906131503 | 13 | 150 | 0.0 | 4.8 | 0.00 | 0.00 | 0.00 | 88 | 1013.3 |
| 20260906131402 | 13 | 200 | 0.0 | 4.8 | 0.00 | 0.00 | 0.00 | 88 | 1013.3 |
| 20260906131304 | 13 | 200 | 0.0 | 4.8 | 0.00 | 0.00 | 0.00 | 88 | 1013.2 |
| 20260906131203 | 13 | 198 | 0.0 | 4.8 | 0.00 | 0.00 | 0.00 | 88 | 1013.2 |
| 20260906131128 | 13 | 198 | 0.0 | 4.8 | 0.00 | 0.00 | 0.00 | 88 | 1013.2 |
| 20260906131103 | 13 | 198 | 1.6 | 4.8 | 0.00 | 0.00 | 0.00 | 88 | 1013.2 |
| 20260906131004 | 13 | 200 | 0.0 | 4.8 | 0.00 | 0.00 | 0.00 | 88 | 1013.2 |
| 20260906130903 | 13 | 162 | 0.0 | 3.2 | 0.00 | 0.00 | 0.00 | 88 | 1013.2 |
| 20260906130803 | 13 | 150 | 0.0 | 3.2 | 0.00 | 0.00 | 0.00 | 88 | 1013.2 |
| 20260906130639 | 13 | 150 | 0.0 | 3.2 | 0.00 | 0.00 | 0.00 | 88 | 1013.2 |
| 20260906130601 | 13 | 150 | 0.0 | 3.2 | 0.00 | 0.00 | 0.00 | 88 | 1013.2 |
| 20260906130501 | 13 | 128 | 0.0 | 3.2 | 0.00 | 0.00 | 0.00 | 88 | 1013.2 |
| 20260906130400 | 13 | 129 | 0.0 | 3.2 | 0.00 | 0.00 | 0.00 | 88 | 1013.1 |
| 20260906130301 | 13 | 136 | 0.0 | 3.2 | 0.00 | 0.00 | 0.00 | 88 | 1013.1 |
| 20260906130159 | 13 | 146 | 0.0 | 3.2 | 0.00 | 0.00 | 0.00 | 88 | 1013.1 |
| 20260906130124 | 13 | 145 | 0.0 | 3.2 | 0.00 | 0.00 | 0.00 | 88 | 1013.1 |
| 20260906130059 | 13 | 155 | 0.0 | 3.2 | 0.00 | 0.00 | 0.00 | 88 | 1013.1 |
| 20260906125959 | 13 | 137 | 0.0 | 3.2 | 0.00 | 0.00 | 0.00 | 88 | 1013.1 |
| 20260906125859 | 13 | 216 | 0.0 | 3.2 | 0.00 | 0.00 | 0.00 | 88 | 1013.1 |
| 20260906125759 | 13 | 210 | 0.0 | 3.2 | 0.00 | 0.00 | 0.00 | 88 | 1013.1 |
| 20260906125659 | 13 | 210 | 0.0 | 3.2 | 0.00 | 0.00 | 0.00 | 88 | 1013.1 |
| 20260906125624 | 13 | 210 | 0.0 | 3.2 | 0.00 | 0.00 | 0.00 | 88 | 1013.1 |
| 20260906125559 | 13 | 210 | 1.6 | 4.8 | 0.00 | 0.00 | 0.00 | 88 | 1013.2 |
| 20260906125459 | 13 | 210 | 1.6 | 4.8 | 0.00 | 0.00 | 0.00 | 88 | 1013.2 |
| 20260906125359 | 13 | 155 | 1.6 | 4.8 | 0.00 | 0.00 | 0.00 | 87 | 1013.1 |
| 20260906125301 | 13 | 156 | 1.6 | 4.8 | 0.00 | 0.00 | 0.00 | 87 | 1013.1 |
| 20260906125200 | 13 | 156 | 1.6 | 4.8 | 0.00 | 0.00 | 0.00 | 87 | 1013.1 |
| 20260906125125 | 13 | 156 | 1.6 | 4.8 | 0.00 | 0.00 | 0.00 | 87 | 1013.1 |
| 20260906125055 | 13 | 156 | 1.6 | 4.8 | 0.00 | 0.00 | 0.00 | 87 | 1013.2 |
| 20260906124955 | 13 | 158 | 1.6 | 4.8 | 0.00 | 0.00 | 0.00 | 87 | 1013.1 |
| 20260906124855 | 13 | 143 | 1.6 | 4.8 | 0.00 | 0.00 | 0.00 | 87 | 1013.1 |
| 20260906124846 | 13 | 139 | 1.6 | 4.8 | 0.00 | 0.00 | 0.00 | 87 | 1013.1 |
| 20260906124754 | 13 | 143 | 1.6 | 4.8 | 0.00 | 0.00 | 0.00 | 87 | 1013.1 |
| 20260906124735 | 13 | 144 | 1.6 | 4.8 | 0.00 | 0.00 | 0.00 | 87 | 1013.1 |
| 20260906124555 | 13 | 120 | 1.6 | 4.8 | 0.00 | 0.00 | 0.00 | 87 | 1013.0 |
| 20260906124458 | 13 | 141 | 1.6 | 4.8 | 0.00 | 0.00 | 0.00 | 86 | 1013.1 |
| 20260906124355 | 13 | 140 | 1.6 | 4.8 | 0.00 | 0.00 | 0.00 | 86 | 1013.0 |
| 20260906124256 | 13 | 203 | 1.6 | 4.8 | 0.00 | 0.00 | 0.00 | 87 | 1013.0 |
| 20260906124155 | 13 | 208 | 1.6 | 4.8 | 0.00 | 0.00 | 0.00 | 87 | 1013.0 |
| 20260906124124 | 13 | 210 | 1.6 | 4.8 | 0.00 | 0.00 | 0.00 | 87 | 1013.0 |
| 20260906124055 | 13 | 210 | 1.6 | 6.4 | 0.00 | 0.00 | 0.00 | 86 | 1013.0 |
| 20260906123955 | 13 | 158 | 1.6 | 6.4 | 0.00 | 0.00 | 0.00 | 86 | 1013.0 |
| 20260906123855 | 14 | 215 | 1.6 | 8.0 | 0.00 | 0.00 | 0.00 | 86 | 1013.0 |
| 20260906123756 | 14 | 215 | 1.6 | 8.0 | 0.00 | 0.00 | 0.00 | 86 | 1013.0 |
| 20260906123655 | 14 | 194 | 1.6 | 8.0 | 0.00 | 0.00 | 0.00 | 86 | 1013.0 |
| 20260906123625 | 14 | 208 | 1.6 | 8.0 | 0.00 | 0.00 | 0.00 | 86 | 1013.0 |
| 20260906123555 | 14 | 208 | 1.6 | 8.0 | 0.00 | 0.00 | 0.00 | 86 | 1013.0 |
| 20260906123455 | 14 | 208 | 1.6 | 8.0 | 0.00 | 0.00 | 0.00 | 86 | 1013.0 |
| 20260906123355 | 14 | 188 | 1.6 | 8.0 | 0.00 | 0.00 | 0.00 | 86 | 1013.0 |
| 20260906123256 | 14 | 200 | 1.6 | 8.0 | 0.00 | 0.00 | 0.00 | 86 | 1013.0 |
| 20260906123151 | 14 | 146 | 1.6 | 8.0 | 0.00 | 0.00 | 0.00 | 86 | 1013.0 |
| 20260906123125 | 14 | 191 | 1.6 | 8.0 | 0.00 | 0.00 | 0.00 | 86 | 1013.0 |
| 20260906123051 | 14 | 187 | 1.6 | 8.0 | 0.00 | 0.00 | 0.00 | 86 | 1013.0 |
| 20260906122949 | 14 | 210 | 1.6 | 8.0 | 0.00 | 0.00 | 0.00 | 85 | 1013.0 |
| 20260906122850 | 14 | 217 | 1.6 | 6.4 | 0.00 | 0.00 | 0.00 | 85 | 1013.0 |
| 20260906122750 | 14 | 210 | 1.6 | 6.4 | 0.00 | 0.00 | 0.00 | 85 | 1013.0 |
| 20260906122624 | 14 | 205 | 1.6 | 6.4 | 0.00 | 0.00 | 0.00 | 85 | 1013.0 |
| 20260906122549 | 14 | 214 | 3.2 | 6.4 | 0.00 | 0.00 | 0.00 | 85 | 1013.0 |
| 20260906122448 | 14 | 225 | 1.6 | 6.4 | 0.00 | 0.00 | 0.00 | 85 | 1013.0 |
| 20260906122349 | 14 | 204 | 1.6 | 6.4 | 0.00 | 0.00 | 0.00 | 85 | 1013.0 |
| 20260906122250 | 14 | 233 | 3.2 | 6.4 | 0.00 | 0.00 | 0.00 | 85 | 1013.0 |
| 20260906122122 | 14 | 233 | 3.2 | 6.4 | 0.00 | 0.00 | 0.00 | 85 | 1012.9 |
| 20260906122050 | 14 | 233 | 3.2 | 6.4 | 0.00 | 0.00 | 0.00 | 85 | 1013.0 |
| 20260906121945 | 14 | 210 | 3.2 | 6.4 | 0.00 | 0.00 | 0.00 | 85 | 1013.0 |
| 20260906121845 | 14 | 214 | 3.2 | 6.4 | 0.00 | 0.00 | 0.00 | 85 | 1012.9 |
| 20260906121746 | 14 | 226 | 3.2 | 6.4 | 0.00 | 0.00 | 0.00 | 85 | 1013.0 |
| 20260906121645 | 14 | 225 | 3.2 | 8.0 | 0.00 | 0.00 | 0.00 | 85 | 1013.0 |
| 20260906121623 | 14 | 205 | 3.2 | 8.0 | 0.00 | 0.00 | 0.00 | 85 | 1013.0 |
| 20260906121545 | 14 | 226 | 3.2 | 8.0 | 0.00 | 0.00 | 0.00 | 85 | 1013.0 |
| 20260906121445 | 14 | 200 | 3.2 | 8.0 | 0.00 | 0.00 | 0.00 | 85 | 1013.0 |
| 20260906121345 | 14 | 205 | 3.2 | 8.0 | 0.00 | 0.00 | 0.00 | 85 | 1013.0 |
| 20260906121245 | 14 | 218 | 3.2 | 8.0 | 0.00 | 0.00 | 0.00 | 85 | 1013.0 |
| 20260906121145 | 14 | 224 | 3.2 | 8.0 | 0.00 | 0.00 | 0.00 | 85 | 1013.0 |
| 20260906121122 | 14 | 212 | 3.2 | 8.0 | 0.00 | 0.00 | 0.00 | 85 | 1013.0 |
| 20260906121045 | 14 | 212 | 1.6 | 8.0 | 0.00 | 0.00 | 0.00 | 85 | 1013.0 |
| 20260906120944 | 14 | 233 | 1.6 | 8.0 | 0.00 | 0.00 | 0.00 | 85 | 1013.0 |
| 20260906120845 | 14 | 226 | 1.6 | 8.0 | 0.00 | 0.00 | 0.00 | 85 | 1013.0 |
| 20260906120745 | 14 | 207 | 1.6 | 8.0 | 0.00 | 0.00 | 0.00 | 85 | 1013.0 |
| 20260906120644 | 14 | 194 | 1.6 | 4.8 | 0.00 | 0.00 | 0.00 | 85 | 1013.0 |
| 20260906120622 | 14 | 221 | 1.6 | 4.8 | 0.00 | 0.00 | 0.00 | 85 | 1013.0 |
| 20260906120545 | 14 | 210 | 1.6 | 4.8 | 0.00 | 0.00 | 0.00 | 84 | 1013.0 |
| 20260906120445 | 14 | 238 | 1.6 | 4.8 | 0.00 | 0.00 | 0.00 | 84 | 1013.0 |
| 20260906120345 | 14 | 236 | 1.6 | 6.4 | 0.00 | 0.00 | 0.00 | 84 | 1013.0 |
| 20260906120246 | 14 | 226 | 1.6 | 6.4 | 0.00 | 0.00 | 0.00 | 84 | 1013.1 |
| 20260906120145 | 14 | 207 | 1.6 | 6.4 | 0.00 | 0.00 | 0.00 | 84 | 1013.0 |
| 20260906120122 | 14 | 233 | 1.6 | 6.4 | 0.00 | 0.00 | 0.00 | 84 | 1013.0 |
| 20260906120045 | 14 | 198 | 1.6 | 6.4 | 0.00 | 0.00 | 0.00 | 84 | 1013.0 |
| 20260906115945 | 14 | 198 | 1.6 | 6.4 | 0.00 | 0.00 | 0.00 | 84 | 1013.0 |
| 20260906115845 | 14 | 197 | 1.6 | 6.4 | 0.00 | 0.00 | 0.00 | 84 | 1013.0 |
| 20260906115744 | 14 | 198 | 1.6 | 6.4 | 0.00 | 0.00 | 0.00 | 84 | 1013.0 |
| 20260906115644 | 14 | 214 | 1.6 | 6.4 | 0.00 | 0.00 | 0.00 | 84 | 1013.0 |
| 20260906115620 | 14 | 203 | 1.6 | 6.4 | 0.00 | 0.00 | 0.00 | 84 | 1013.0 |
| 20260906115543 | 14 | 203 | 1.6 | 6.4 | 0.00 | 0.00 | 0.00 | 84 | 1013.0 |
| 20260906115443 | 14 | 201 | 1.6 | 6.4 | 0.00 | 0.00 | 0.00 | 84 | 1013.0 |
| 20260906115343 | 14 | 235 | 1.6 | 6.4 | 0.00 | 0.00 | 0.00 | 84 | 1013.0 |
| 20260906115244 | 14 | 234 | 1.6 | 6.4 | 0.00 | 0.00 | 0.00 | 84 | 1013.0 |
| 20260906115143 | 14 | 235 | 1.6 | 6.4 | 0.00 | 0.00 | 0.00 | 84 | 1013.0 |
| 20260906115120 | 14 | 233 | 1.6 | 6.4 | 0.00 | 0.00 | 0.00 | 83 | 1013.0 |
| 20260906115043 | 14 | 226 | 1.6 | 6.4 | 0.00 | 0.00 | 0.00 | 83 | 1013.0 |
| 20260906114943 | 14 | 216 | 1.6 | 4.8 | 0.00 | 0.00 | 0.00 | 83 | 1013.0 |
| 20260906114843 | 14 | 212 | 1.6 | 4.8 | 0.00 | 0.00 | 0.00 | 83 | 1013.0 |
| 20260906114744 | 14 | 228 | 1.6 | 4.8 | 0.00 | 0.00 | 0.00 | 83 | 1013.0 |
| 20260906114620 | 14 | 245 | 1.6 | 4.8 | 0.00 | 0.00 | 0.00 | 83 | 1013.0 |
| 20260906114543 | 14 | 245 | 1.6 | 4.8 | 0.00 | 0.00 | 0.00 | 83 | 1013.0 |
| 20260906114443 | 14 | 217 | 1.6 | 4.8 | 0.00 | 0.00 | 0.00 | 83 | 1013.0 |
| 20260906114343 | 14 | 239 | 1.6 | 4.8 | 0.00 | 0.00 | 0.00 | 83 | 1013.0 |
| 20260906114244 | 13 | 225 | 1.6 | 3.2 | 0.00 | 0.00 | 0.00 | 83 | 1013.0 |
| 20260906114143 | 13 | 218 | 1.6 | 3.2 | 0.00 | 0.00 | 0.00 | 83 | 1013.0 |
| 20260906114118 | 13 | 223 | 1.6 | 3.2 | 0.00 | 0.00 | 0.00 | 83 | 1013.0 |
| 20260906114043 | 13 | 235 | 0.0 | 3.2 | 0.00 | 0.00 | 0.00 | 83 | 1013.0 |
| 20260906113942 | 13 | 235 | 0.0 | 3.2 | 0.00 | 0.00 | 0.00 | 83 | 1013.0 |
| 20260906113841 | 13 | 245 | 0.0 | 3.2 | 0.00 | 0.00 | 0.00 | 83 | 1013.0 |
| 20260906113742 | 13 | 149 | 0.0 | 3.2 | 0.00 | 0.00 | 0.00 | 83 | 1013.0 |
| 20260906113641 | 13 | 139 | 0.0 | 3.2 | 0.00 | 0.00 | 0.00 | 83 | 1013.0 |
| 20260906113618 | 13 | 140 | 0.0 | 3.2 | 0.00 | 0.00 | 0.00 | 83 | 1013.0 |
| 20260906113541 | 13 | 139 | 0.0 | 3.2 | 0.00 | 0.00 | 0.00 | 83 | 1013.0 |
| 20260906113441 | 13 | 139 | 0.0 | 3.2 | 0.00 | 0.00 | 0.00 | 82 | 1013.0 |
| 20260906113341 | 13 | 139 | 0.0 | 3.2 | 0.00 | 0.00 | 0.00 | 82 | 1013.0 |
| 20260906113242 | 13 | 139 | 0.0 | 3.2 | 0.00 | 0.00 | 0.00 | 82 | 1013.0 |
| 20260906113118 | 13 | 139 | 0.0 | 3.2 | 0.00 | 0.00 | 0.00 | 82 | 1012.9 |
| 20260906113041 | 13 | 139 | 0.0 | 3.2 | 0.00 | 0.00 | 0.00 | 82 | 1013.0 |
| 20260906112941 | 13 | 139 | 0.0 | 3.2 | 0.00 | 0.00 | 0.00 | 83 | 1013.0 |
| 20260906112841 | 13 | 139 | 0.0 | 3.2 | 0.00 | 0.00 | 0.00 | 83 | 1013.0 |
| 20260906112742 | 13 | 150 | 0.0 | 1.6 | 0.00 | 0.00 | 0.00 | 82 | 1013.0 |
| 20260906112619 | 13 | 148 | 0.0 | 1.6 | 0.00 | 0.00 | 0.00 | 83 | 1013.0 |
| 20260906112541 | 13 | 148 | 0.0 | 1.6 | 0.00 | 0.00 | 0.00 | 83 | 1013.0 |
| 20260906112441 | 13 | 148 | 0.0 | 1.6 | 0.00 | 0.00 | 0.00 | 83 | 1013.0 |
| 20260906112341 | 13 | 149 | 0.0 | 0.0 | 0.00 | 0.00 | 0.00 | 82 | 1013.0 |
| 20260906112238 | 13 | 148 | 0.0 | 0.0 | 0.00 | 0.00 | 0.00 | 82 | 1012.9 |
| 20260906112137 | 13 | 149 | 0.0 | 0.0 | 0.00 | 0.00 | 0.00 | 82 | 1012.9 |
| 20260906112118 | 13 | 150 | 0.0 | 0.0 | 0.00 | 0.00 | 0.00 | 82 | 1012.9 |
| 20260906112037 | 13 | 149 | 0.0 | 1.6 | 0.00 | 0.00 | 0.00 | 82 | 1013.0 |
| 20260906111937 | 13 | 148 | 0.0 | 1.6 | 0.00 | 0.00 | 0.00 | 81 | 1012.9 |
| 20260906111836 | 13 | 149 | 0.0 | 1.6 | 0.00 | 0.00 | 0.00 | 81 | 1012.9 |
| 20260906111738 | 13 | 148 | 0.0 | 1.6 | 0.00 | 0.00 | 0.00 | 81 | 1012.9 |
| 20260906111637 | 13 | 148 | 0.0 | 1.6 | 0.00 | 0.00 | 0.00 | 81 | 1012.9 |
| 20260906111618 | 13 | 149 | 0.0 | 1.6 | 0.00 | 0.00 | 0.00 | 81 | 1012.9 |
| 20260906111537 | 13 | 148 | 0.0 | 1.6 | 0.00 | 0.00 | 0.00 | 81 | 1012.9 |
| 20260906111437 | 13 | 149 | 0.0 | 1.6 | 0.00 | 0.00 | 0.00 | 81 | 1012.9 |
| 20260906111337 | 13 | 149 | 0.0 | 1.6 | 0.00 | 0.00 | 0.00 | 81 | 1012.9 |
| 20260906111238 | 13 | 148 | 0.0 | 1.6 | 0.00 | 0.00 | 0.00 | 81 | 1012.9 |
| 20260906111137 | 13 | 150 | 0.0 | 1.6 | 0.00 | 0.00 | 0.00 | 81 | 1012.9 |
| 20260906111118 | 13 | 148 | 0.0 | 1.6 | 0.00 | 0.00 | 0.00 | 81 | 1012.9 |
| 20260906111037 | 13 | 148 | 0.0 | 1.6 | 0.00 | 0.00 | 0.00 | 81 | 1012.9 |
| 20260906110937 | 13 | 150 | 0.0 | 1.6 | 0.00 | 0.00 | 0.00 | 81 | 1012.9 |
| 20260906110837 | 13 | 148 | 0.0 | 1.6 | 0.00 | 0.00 | 0.00 | 81 | 1012.9 |
| 20260906110737 | 13 | 148 | 0.0 | 1.6 | 0.00 | 0.00 | 0.00 | 80 | 1013.0 |
| 20260906110637 | 13 | 150 | 0.0 | 1.6 | 0.00 | 0.00 | 0.00 | 80 | 1012.9 |
| 20260906110620 | 13 | 149 | 0.0 | 1.6 | 0.00 | 0.00 | 0.00 | 80 | 1012.9 |
| 20260906110537 | 13 | 149 | 0.0 | 1.6 | 0.00 | 0.00 | 0.00 | 80 | 1012.9 |
| 20260906110437 | 13 | 149 | 0.0 | 1.6 | 0.00 | 0.00 | 0.00 | 81 | 1012.9 |
| 20260906110333 | 13 | 149 | 0.0 | 1.6 | 0.00 | 0.00 | 0.00 | 81 | 1012.9 |
| 20260906110234 | 13 | 149 | 0.0 | 1.6 | 0.00 | 0.00 | 0.00 | 81 | 1012.9 |
| 20260906110119 | 13 | 148 | 0.0 | 1.6 | 0.00 | 0.00 | 0.00 | 81 | 1012.9 |
| 20260906110033 | 13 | 148 | 0.0 | 1.6 | 0.00 | 0.00 | 0.00 | 81 | 1012.9 |
| 20260906105933 | 13 | 149 | 0.0 | 1.6 | 0.00 | 0.00 | 0.00 | 81 | 1012.9 |
| 20260906105833 | 13 | 149 | 0.0 | 1.6 | 0.00 | 0.00 | 0.00 | 81 | 1012.9 |
| 20260906105732 | 13 | 150 | 0.0 | 1.6 | 0.00 | 0.00 | 0.00 | 82 | 1012.8 |
| 20260906105631 | 13 | 148 | 0.0 | 1.6 | 0.00 | 0.00 | 0.00 | 81 | 1012.8 |
| 20260906105618 | 13 | 150 | 0.0 | 1.6 | 0.00 | 0.00 | 0.00 | 81 | 1012.8 |
| 20260906105531 | 13 | 149 | 0.0 | 1.6 | 0.00 | 0.00 | 0.00 | 81 | 1012.8 |
| 20260906105431 | 13 | 148 | 0.0 | 1.6 | 0.00 | 0.00 | 0.00 | 81 | 1012.8 |
| 20260906105331 | 13 | 150 | 0.0 | 1.6 | 0.00 | 0.00 | 0.00 | 81 | 1012.8 |
| 20260906105231 | 13 | 149 | 0.0 | 1.6 | 0.00 | 0.00 | 0.00 | 81 | 1012.7 |
| 20260906105118 | 13 | 150 | 0.0 | 1.6 | 0.00 | 0.00 | 0.00 | 81 | 1012.8 |
| 20260906105029 | 13 | 148 | 0.0 | 1.6 | 0.00 | 0.00 | 0.00 | 81 | 1012.8 |
| 20260906104929 | 13 | 149 | 0.0 | 1.6 | 0.00 | 0.00 | 0.00 | 81 | 1012.7 |
| 20260906104829 | 13 | 150 | 0.0 | 1.6 | 0.00 | 0.00 | 0.00 | 81 | 1012.7 |
| 20260906104731 | 13 | 148 | 0.0 | 1.6 | 0.00 | 0.00 | 0.00 | 81 | 1012.8 |
| 20260906104629 | 13 | 149 | 0.0 | 1.6 | 0.00 | 0.00 | 0.00 | 81 | 1012.8 |
| 20260906104618 | 13 | 150 | 0.0 | 1.6 | 0.00 | 0.00 | 0.00 | 81 | 1012.8 |
| 20260906104528 | 13 | 150 | 0.0 | 1.6 | 0.00 | 0.00 | 0.00 | 81 | 1012.8 |
| 20260906104427 | 13 | 149 | 0.0 | 1.6 | 0.00 | 0.00 | 0.00 | 80 | 1012.8 |
| 20260906104342 | 13 | 149 | 0.0 | 1.6 | 0.00 | 0.00 | 0.00 | 81 | 1012.8 |
| 20260906104327 | 13 | 149 | 0.0 | 1.6 | 0.00 | 0.00 | 0.00 | 80 | 1012.7 |
| 20260906104236 | 13 | 150 | 0.0 | 1.6 | 0.00 | 0.00 | 0.00 | 80 | 1012.7 |
| 20260906104228 | 13 | 150 | 0.0 | 1.6 | 0.00 | 0.00 | 0.00 | 81 | 1012.8 |
| 20260906104026 | 13 | 150 | 0.0 | 1.6 | 0.00 | 0.00 | 0.00 | 81 | 1012.8 |
| 20260906103927 | 13 | 150 | 0.0 | 1.6 | 0.00 | 0.00 | 0.00 | 81 | 1012.8 |
| 20260906103828 | 13 | 150 | 0.0 | 1.6 | 0.00 | 0.00 | 0.00 | 81 | 1012.8 |
| 20260906103728 | 13 | 150 | 0.0 | 0.0 | 0.00 | 0.00 | 0.00 | 81 | 1012.8 |
| 20260906103616 | 13 | 149 | 0.0 | 0.0 | 0.00 | 0.00 | 0.00 | 81 | 1012.8 |
| 20260906103527 | 13 | 149 | 0.0 | 0.0 | 0.00 | 0.00 | 0.00 | 81 | 1012.8 |
| 20260906103427 | 13 | 149 | 0.0 | 0.0 | 0.00 | 0.00 | 0.00 | 81 | 1012.8 |
| 20260906103328 | 13 | 150 | 0.0 | 0.0 | 0.00 | 0.00 | 0.00 | 81 | 1012.7 |
| 20260906103228 | 13 | 149 | 0.0 | 0.0 | 0.00 | 0.00 | 0.00 | 81 | 1012.7 |
| 20260906103126 | 13 | 148 | 0.0 | 0.0 | 0.00 | 0.00 | 0.00 | 81 | 1012.8 |
| 20260906103116 | 13 | 148 | 0.0 | 0.0 | 0.00 | 0.00 | 0.00 | 80 | 1012.8 |
| 20260906103027 | 13 | 149 | 0.0 | 0.0 | 0.00 | 0.00 | 0.00 | 80 | 1012.8 |
| 20260906102927 | 13 | 149 | 0.0 | 0.0 | 0.00 | 0.00 | 0.00 | 80 | 1012.7 |
| 20260906102827 | 13 | 148 | 0.0 | 0.0 | 0.00 | 0.00 | 0.00 | 80 | 1012.7 |
| 20260906102729 | 13 | 149 | 0.0 | 0.0 | 0.00 | 0.00 | 0.00 | 80 | 1012.7 |
| 20260906102616 | 13 | 149 | 0.0 | 0.0 | 0.00 | 0.00 | 0.00 | 80 | 1012.7 |
| 20260906102527 | 13 | 150 | 0.0 | 0.0 | 0.00 | 0.00 | 0.00 | 80 | 1012.7 |
| 20260906102425 | 13 | 148 | 0.0 | 0.0 | 0.00 | 0.00 | 0.00 | 80 | 1012.7 |
| 20260906102325 | 14 | 150 | 0.0 | 0.0 | 0.00 | 0.00 | 0.00 | 80 | 1012.7 |
| 20260906102227 | 14 | 149 | 0.0 | 0.0 | 0.00 | 0.00 | 0.00 | 80 | 1012.7 |
| 20260906102125 | 14 | 149 | 0.0 | 0.0 | 0.00 | 0.00 | 0.00 | 80 | 1012.7 |
| 20260906102114 | 14 | 150 | 0.0 | 0.0 | 0.00 | 0.00 | 0.00 | 80 | 1012.7 |
| 20260906102052 | 14 | 150 | 0.0 | 1.6 | 0.00 | 0.00 | 0.00 | 80 | 1012.7 |
| 20260906102025 | 14 | 148 | 0.0 | 0.0 | 0.00 | 0.00 | 0.00 | 80 | 1012.7 |
| 20260906101940 | 14 | 148 | 0.0 | 1.6 | 0.00 | 0.00 | 0.00 | 80 | 1012.7 |
| 20260906101825 | 14 | 150 | 0.0 | 1.6 | 0.00 | 0.00 | 0.00 | 80 | 1012.7 |
| 20260906101736 | 14 | 149 | 0.0 | 1.6 | 0.00 | 0.00 | 0.00 | 80 | 1012.7 |
| 20260906101728 | 14 | 149 | 0.0 | 1.6 | 0.00 | 0.00 | 0.00 | 80 | 1012.7 |
| 20260906101525 | 14 | 149 | 0.0 | 1.6 | 0.00 | 0.00 | 0.00 | 80 | 1012.7 |
| 20260906101425 | 14 | 149 | 0.0 | 1.6 | 0.00 | 0.00 | 0.00 | 80 | 1012.7 |
| 20260906101325 | 14 | 149 | 0.0 | 1.6 | 0.00 | 0.00 | 0.00 | 80 | 1012.6 |
| 20260906101227 | 14 | 150 | 0.0 | 1.6 | 0.00 | 0.00 | 0.00 | 80 | 1012.7 |
| 20260906101114 | 14 | 150 | 0.0 | 1.6 | 0.00 | 0.00 | 0.00 | 80 | 1012.7 |
| 20260906101023 | 14 | 149 | 0.0 | 1.6 | 0.00 | 0.00 | 0.00 | 80 | 1012.7 |
| 20260906100923 | 14 | 149 | 0.0 | 1.6 | 0.00 | 0.00 | 0.00 | 80 | 1012.7 |
| 20260906100841 | 14 | 149 | 0.0 | 1.6 | 0.00 | 0.00 | 0.00 | 80 | 1012.7 |
| 20260906100818 | 14 | 150 | 0.0 | 1.6 | 0.00 | 0.00 | 0.00 | 80 | 1012.7 |
| 20260906100734 | 14 | 150 | 0.0 | 1.6 | 0.00 | 0.00 | 0.00 | 80 | 1012.7 |
| 20260906100723 | 14 | 149 | 0.0 | 1.6 | 0.00 | 0.00 | 0.00 | 80 | 1012.7 |
| 20260906100517 | 14 | 150 | 0.0 | 1.6 | 0.00 | 0.00 | 0.00 | 80 | 1012.7 |
| 20260906100414 | 14 | 150 | 0.0 | 1.6 | 0.00 | 0.00 | 0.00 | 80 | 1012.7 |
| 20260906100312 | 14 | 148 | 0.0 | 1.6 | 0.00 | 0.00 | 0.00 | 80 | 1012.7 |
| 20260906100211 | 14 | 148 | 0.0 | 1.6 | 0.00 | 0.00 | 0.00 | 80 | 1012.7 |
| 20260906100108 | 14 | 150 | 0.0 | 1.6 | 0.00 | 0.00 | 0.00 | 80 | 1012.7 |
| 20260906100010 | 14 | 117 | 0.0 | 1.6 | 0.00 | 0.00 | 0.00 | 80 | 1012.7 |
| 20260906095909 | 14 | 117 | 0.0 | 1.6 | 0.00 | 0.00 | 0.00 | 80 | 1012.7 |
| 20260906095833 | 14 | 117 | 0.0 | 1.6 | 0.00 | 0.00 | 0.00 | 80 | 1012.8 |
| 20260906095809 | 14 | 117 | 0.0 | 1.6 | 0.00 | 0.00 | 0.00 | 80 | 1012.8 |
| 20260906095727 | 14 | 117 | 0.0 | 1.6 | 0.00 | 0.00 | 0.00 | 80 | 1012.8 |
| 20260906095609 | 14 | 117 | 0.0 | 1.6 | 0.00 | 0.00 | 0.00 | 80 | 1012.8 |
| 20260906095509 | 14 | 117 | 0.0 | 1.6 | 0.00 | 0.00 | 0.00 | 80 | 1012.8 |
| 20260906095409 | 14 | 117 | 0.0 | 1.6 | 0.00 | 0.00 | 0.00 | 80 | 1012.8 |
| 20260906095310 | 14 | 110 | 0.0 | 1.6 | 0.00 | 0.00 | 0.00 | 80 | 1012.9 |
| 20260906095209 | 14 | 110 | 0.0 | 1.6 | 0.00 | 0.00 | 0.00 | 80 | 1012.8 |
| 20260906095105 | 14 | 110 | 0.0 | 1.6 | 0.00 | 0.00 | 0.00 | 80 | 1012.9 |
| 20260906095006 | 14 | 110 | 0.0 | 1.6 | 0.00 | 0.00 | 0.00 | 79 | 1012.9 |
| 20260906094905 | 14 | 110 | 0.0 | 1.6 | 0.00 | 0.00 | 0.00 | 79 | 1012.9 |
| 20260906094806 | 14 | 110 | 0.0 | 1.6 | 0.00 | 0.00 | 0.00 | 80 | 1012.9 |
| 20260906094705 | 14 | 110 | 0.0 | 1.6 | 0.00 | 0.00 | 0.00 | 80 | 1012.8 |
| 20260906094609 | 14 | 110 | 0.0 | 1.6 | 0.00 | 0.00 | 0.00 | 79 | 1012.9 |
| 20260906094604 | 14 | 110 | 0.0 | 1.6 | 0.00 | 0.00 | 0.00 | 79 | 1012.9 |
| 20260906094543 | 14 | 110 | 0.0 | 1.6 | 0.00 | 0.00 | 0.00 | 79 | 1012.8 |
| 20260906094504 | 14 | 110 | 0.0 | 1.6 | 0.00 | 0.00 | 0.00 | 79 | 1012.9 |
| 20260906094403 | 14 | 110 | 0.0 | 1.6 | 0.00 | 0.00 | 0.00 | 79 | 1012.9 |
| 20260906094303 | 14 | 110 | 0.0 | 1.6 | 0.00 | 0.00 | 0.00 | 79 | 1012.8 |
| 20260906094219 | 14 | 110 | 0.0 | 1.6 | 0.00 | 0.00 | 0.00 | 79 | 1012.8 |
| 20260906094103 | 14 | 110 | 0.0 | 1.6 | 0.00 | 0.00 | 0.00 | 79 | 1012.8 |
| 20260906094003 | 14 | 110 | 0.0 | 1.6 | 0.00 | 0.00 | 0.00 | 79 | 1012.8 |
| 20260906093859 | 14 | 110 | 0.0 | 1.6 | 0.00 | 0.00 | 0.00 | 79 | 1012.8 |
| 20260906093800 | 14 | 110 | 0.0 | 1.6 | 0.00 | 0.00 | 0.00 | 79 | 1012.9 |
| 20260906093659 | 14 | 110 | 0.0 | 1.6 | 0.00 | 0.00 | 0.00 | 79 | 1012.9 |
| 20260906093609 | 14 | 110 | 0.0 | 1.6 | 0.00 | 0.00 | 0.00 | 80 | 1012.9 |
| 20260906093559 | 14 | 110 | 0.0 | 1.6 | 0.00 | 0.00 | 0.00 | 80 | 1012.9 |
| 20260906093459 | 14 | 110 | 0.0 | 1.6 | 0.00 | 0.00 | 0.00 | 80 | 1012.9 |
| 20260906093359 | 14 | 141 | 0.0 | 1.6 | 0.00 | 0.00 | 0.00 | 80 | 1013.0 |
| 20260906093301 | 14 | 141 | 0.0 | 0.0 | 0.00 | 0.00 | 0.00 | 80 | 1013.0 |
| 20260906093159 | 14 | 141 | 0.0 | 0.0 | 0.00 | 0.00 | 0.00 | 79 | 1012.9 |
| 20260906093108 | 14 | 141 | 0.0 | 0.0 | 0.00 | 0.00 | 0.00 | 79 | 1012.9 |
| 20260906093103 | 14 | 141 | 0.0 | 0.0 | 0.00 | 0.00 | 0.00 | 79 | 1012.9 |
| 20260906092959 | 14 | 141 | 0.0 | 1.6 | 0.00 | 0.00 | 0.00 | 79 | 1013.0 |
| 20260906092859 | 14 | 141 | 0.0 | 1.6 | 0.00 | 0.00 | 0.00 | 79 | 1012.9 |
| 20260906092800 | 14 | 141 | 0.0 | 1.6 | 0.00 | 0.00 | 0.00 | 79 | 1012.9 |
| 20260906092659 | 14 | 141 | 0.0 | 1.6 | 0.00 | 0.00 | 0.00 | 79 | 1012.9 |
| 20260906092608 | 14 | 141 | 0.0 | 1.6 | 0.00 | 0.00 | 0.00 | 79 | 1013.0 |
| 20260906092559 | 14 | 141 | 0.0 | 1.6 | 0.00 | 0.00 | 0.00 | 79 | 1013.0 |
| 20260906092459 | 14 | 141 | 0.0 | 1.6 | 0.00 | 0.00 | 0.00 | 79 | 1013.0 |
| 20260906092359 | 14 | 141 | 0.0 | 1.6 | 0.00 | 0.00 | 0.00 | 79 | 1013.0 |
| 20260906092300 | 14 | 141 | 0.0 | 1.6 | 0.00 | 0.00 | 0.00 | 79 | 1013.0 |
| 20260906092159 | 14 | 141 | 0.0 | 1.6 | 0.00 | 0.00 | 0.00 | 79 | 1013.0 |
| 20260906092108 | 14 | 141 | 0.0 | 1.6 | 0.00 | 0.00 | 0.00 | 78 | 1013.0 |
| 20260906092102 | 14 | 140 | 0.0 | 1.6 | 0.00 | 0.00 | 0.00 | 78 | 1013.0 |
| 20260906091958 | 14 | 141 | 0.0 | 1.6 | 0.00 | 0.00 | 0.00 | 78 | 1013.0 |
| 20260906091857 | 14 | 139 | 0.0 | 0.0 | 0.00 | 0.00 | 0.00 | 78 | 1013.0 |
| 20260906091758 | 14 | 141 | 0.0 | 0.0 | 0.00 | 0.00 | 0.00 | 78 | 1013.1 |
| 20260906091655 | 14 | 141 | 0.0 | 0.0 | 0.00 | 0.00 | 0.00 | 78 | 1013.0 |
| 20260906091605 | 14 | 141 | 0.0 | 0.0 | 0.00 | 0.00 | 0.00 | 78 | 1013.0 |
| 20260906091555 | 14 | 141 | 0.0 | 0.0 | 0.00 | 0.00 | 0.00 | 78 | 1013.0 |
| 20260906091455 | 14 | 141 | 0.0 | 0.0 | 0.00 | 0.00 | 0.00 | 79 | 1013.0 |
| 20260906091355 | 14 | 141 | 0.0 | 0.0 | 0.00 | 0.00 | 0.00 | 79 | 1013.1 |
| 20260906091255 | 14 | 141 | 0.0 | 0.0 | 0.00 | 0.00 | 0.00 | 79 | 1013.0 |
| 20260906091155 | 14 | 141 | 0.0 | 0.0 | 0.00 | 0.00 | 0.00 | 79 | 1013.0 |
| 20260906091103 | 14 | 141 | 0.0 | 0.0 | 0.00 | 0.00 | 0.00 | 79 | 1013.0 |
| 20260906091053 | 14 | 141 | 0.0 | 0.0 | 0.00 | 0.00 | 0.00 | 79 | 1013.0 |
| 20260906090953 | 14 | 141 | 0.0 | 0.0 | 0.00 | 0.00 | 0.00 | 79 | 1013.0 |
| 20260906090851 | 14 | 141 | 0.0 | 0.0 | 0.00 | 0.00 | 0.00 | 79 | 1013.0 |
| 20260906090823 | 14 | 141 | 0.0 | 0.0 | 0.00 | 0.00 | 0.00 | 78 | 1012.9 |
| 20260906090752 | 14 | 141 | 0.0 | 0.0 | 0.00 | 0.00 | 0.00 | 79 | 1012.9 |
| 20260906090714 | 14 | 141 | 0.0 | 0.0 | 0.00 | 0.00 | 0.00 | 78 | 1013.0 |
| 20260906090551 | 15 | 141 | 0.0 | 0.0 | 0.00 | 0.00 | 0.00 | 78 | 1012.9 |
| 20260906090449 | 15 | 141 | 0.0 | 0.0 | 0.00 | 0.00 | 0.00 | 78 | 1013.0 |
| 20260906090349 | 15 | 141 | 0.0 | 0.0 | 0.00 | 0.00 | 0.00 | 78 | 1012.9 |
| 20260906090250 | 15 | 141 | 0.0 | 0.0 | 0.00 | 0.00 | 0.00 | 78 | 1012.9 |
| 20260906090147 | 15 | 141 | 0.0 | 0.0 | 0.00 | 0.00 | 0.00 | 78 | 1013.0 |
| 20260906090106 | 15 | 141 | 0.0 | 0.0 | 0.00 | 0.00 | 0.00 | 78 | 1013.0 |
| 20260906090047 | 15 | 141 | 0.0 | 0.0 | 0.00 | 0.00 | 0.00 | 78 | 1013.0 |
| 20260906085947 | 15 | 141 | 0.0 | 0.0 | 0.00 | 0.00 | 0.00 | 78 | 1013.0 |
| 20260906085847 | 15 | 141 | 0.0 | 0.0 | 0.00 | 0.00 | 0.00 | 78 | 1013.0 |
| 20260906085747 | 15 | 141 | 0.0 | 0.0 | 0.00 | 0.00 | 0.00 | 78 | 1013.0 |
| 20260906085647 | 15 | 141 | 0.0 | 0.0 | 0.00 | 0.00 | 0.00 | 78 | 1013.0 |
| 20260906085605 | 15 | 141 | 0.0 | 0.0 | 0.00 | 0.00 | 0.00 | 78 | 1013.0 |
| 20260906085547 | 15 | 141 | 0.0 | 0.0 | 0.00 | 0.00 | 0.00 | 78 | 1013.0 |
| 20260906085447 | 15 | 141 | 0.0 | 0.0 | 0.00 | 0.00 | 0.00 | 78 | 1013.0 |
| 20260906085347 | 15 | 141 | 0.0 | 0.0 | 0.00 | 0.00 | 0.00 | 78 | 1013.0 |
| 20260906085248 | 15 | 141 | 0.0 | 0.0 | 0.00 | 0.00 | 0.00 | 77 | 1013.0 |
| 20260906085147 | 15 | 141 | 0.0 | 0.0 | 0.00 | 0.00 | 0.00 | 77 | 1013.1 |
| 20260906085104 | 15 | 141 | 0.0 | 0.0 | 0.00 | 0.00 | 0.00 | 77 | 1013.1 |
| 20260906085047 | 15 | 141 | 0.0 | 1.6 | 0.00 | 0.00 | 0.00 | 77 | 1013.1 |
| 20260906084947 | 15 | 141 | 0.0 | 1.6 | 0.00 | 0.00 | 0.00 | 77 | 1013.1 |
| 20260906084848 | 15 | 141 | 0.0 | 1.6 | 0.00 | 0.00 | 0.00 | 77 | 1013.1 |
| 20260906084825 | 15 | 141 | 0.0 | 1.6 | 0.00 | 0.00 | 0.00 | 76 | 1013.1 |
| 20260906084748 | 15 | 141 | 0.0 | 1.6 | 0.00 | 0.00 | 0.00 | 77 | 1013.1 |
| 20260906084716 | 15 | 141 | 0.0 | 1.6 | 0.00 | 0.00 | 0.00 | 77 | 1013.1 |
| 20260906084548 | 15 | 141 | 0.0 | 1.6 | 0.00 | 0.00 | 0.00 | 76 | 1013.1 |
| 20260906084447 | 15 | 141 | 0.0 | 1.6 | 0.00 | 0.00 | 0.00 | 76 | 1013.1 |
| 20260906084347 | 15 | 141 | 0.0 | 1.6 | 0.00 | 0.00 | 0.00 | 76 | 1013.1 |
| 20260906084246 | 15 | 141 | 0.0 | 1.6 | 0.00 | 0.00 | 0.00 | 76 | 1013.1 |
| 20260906084145 | 15 | 141 | 0.0 | 1.6 | 0.00 | 0.00 | 0.00 | 76 | 1013.1 |
| 20260906084102 | 15 | 141 | 0.0 | 1.6 | 0.00 | 0.00 | 0.00 | 76 | 1013.1 |
| 20260906084045 | 15 | 141 | 0.0 | 1.6 | 0.00 | 0.00 | 0.00 | 76 | 1013.1 |
| 20260906083945 | 15 | 141 | 0.0 | 1.6 | 0.00 | 0.00 | 0.00 | 76 | 1013.1 |
| 20260906083843 | 15 | 141 | 0.0 | 1.6 | 0.00 | 0.00 | 0.00 | 76 | 1013.1 |
| 20260906083745 | 15 | 141 | 0.0 | 1.6 | 0.00 | 0.00 | 0.00 | 76 | 1013.1 |
| 20260906083642 | 15 | 141 | 0.0 | 1.6 | 0.00 | 0.00 | 0.00 | 76 | 1013.1 |
| 20260906083543 | 15 | 141 | 0.0 | 3.2 | 0.00 | 0.00 | 0.00 | 76 | 1013.0 |
| 20260906083443 | 15 | 141 | 0.0 | 3.2 | 0.00 | 0.00 | 0.00 | 76 | 1013.1 |
| 20260906083343 | 15 | 110 | 0.0 | 3.2 | 0.00 | 0.00 | 0.00 | 76 | 1013.1 |
| 20260906083244 | 15 | 110 | 1.6 | 3.2 | 0.00 | 0.00 | 0.00 | 76 | 1013.1 |
| 20260906083142 | 15 | 110 | 1.6 | 3.2 | 0.00 | 0.00 | 0.00 | 76 | 1013.1 |
| 20260906083041 | 15 | 110 | 1.6 | 3.2 | 0.00 | 0.00 | 0.00 | 76 | 1013.1 |
| 20260906082941 | 15 | 110 | 1.6 | 3.2 | 0.00 | 0.00 | 0.00 | 76 | 1013.1 |
| 20260906082841 | 15 | 104 | 1.6 | 3.2 | 0.00 | 0.00 | 0.00 | 76 | 1013.1 |
| 20260906082814 | 15 | 107 | 0.0 | 3.2 | 0.00 | 0.00 | 0.00 | 76 | 1013.1 |
| 20260906082740 | 15 | 105 | 1.6 | 3.2 | 0.00 | 0.00 | 0.00 | 76 | 1013.1 |
| 20260906082708 | 15 | 110 | 0.0 | 1.6 | 0.00 | 0.00 | 0.00 | 76 | 1013.2 |
| 20260906082704 | 15 | 105 | 1.6 | 3.2 | 0.00 | 0.00 | 0.00 | 76 | 1013.1 |
| 20260906082529 | 15 | 130 | 0.0 | 3.2 | 0.00 | 0.00 | 0.00 | 76 | 1013.1 |
| 20260906082446 | 15 | 133 | 0.0 | 3.2 | 0.00 | 0.00 | 0.00 | 76 | 1013.1 |
| 20260906082329 | 15 | 89 | 0.0 | 3.2 | 0.00 | 0.00 | 0.00 | 76 | 1013.2 |
| 20260906082231 | 15 | 111 | 0.0 | 3.2 | 0.00 | 0.00 | 0.00 | 76 | 1013.2 |
| 20260906082219 | 15 | 110 | 0.0 | 1.6 | 0.00 | 0.00 | 0.00 | 76 | 1013.2 |
| 20260906082028 | 15 | 110 | 0.0 | 1.6 | 0.00 | 0.00 | 0.00 | 76 | 1013.2 |
| 20260906081927 | 15 | 110 | 0.0 | 1.6 | 0.00 | 0.00 | 0.00 | 76 | 1013.2 |
| 20260906081827 | 15 | 110 | 0.0 | 3.2 | 0.00 | 0.00 | 0.00 | 76 | 1013.2 |
| 20260906081729 | 16 | 110 | 0.0 | 3.2 | 0.00 | 0.00 | 0.00 | 76 | 1013.2 |
| 20260906081627 | 16 | 110 | 0.0 | 3.2 | 0.00 | 0.00 | 0.00 | 76 | 1013.2 |
| 20260906081528 | 16 | 110 | 0.0 | 3.2 | 0.00 | 0.00 | 0.00 | 76 | 1013.2 |
| 20260906081428 | 16 | 110 | 0.0 | 3.2 | 0.00 | 0.00 | 0.00 | 76 | 1013.2 |
| 20260906081331 | 16 | 132 | 0.0 | 3.2 | 0.00 | 0.00 | 0.00 | 76 | 1013.2 |
| 20260906081327 | 16 | 110 | 0.0 | 3.2 | 0.00 | 0.00 | 0.00 | 76 | 1013.2 |
| 20260906081228 | 16 | 132 | 0.0 | 3.2 | 0.00 | 0.00 | 0.00 | 76 | 1013.2 |
| 20260906081216 | 16 | 132 | 0.0 | 3.2 | 0.00 | 0.00 | 0.00 | 75 | 1013.2 |
| 20260906081027 | 16 | 132 | 0.0 | 3.2 | 0.00 | 0.00 | 0.00 | 76 | 1013.2 |
| 20260906080927 | 16 | 136 | 0.0 | 3.2 | 0.00 | 0.00 | 0.00 | 75 | 1013.2 |
| 20260906080827 | 16 | 136 | 0.0 | 3.2 | 0.00 | 0.00 | 0.00 | 75 | 1013.2 |
| 20260906080728 | 16 | 150 | 0.0 | 3.2 | 0.00 | 0.00 | 0.00 | 75 | 1013.2 |
| 20260906080625 | 16 | 150 | 0.0 | 3.2 | 0.00 | 0.00 | 0.00 | 75 | 1013.1 |
| 20260906080525 | 16 | 150 | 0.0 | 3.2 | 0.00 | 0.00 | 0.00 | 75 | 1013.1 |
| 20260906080425 | 16 | 150 | 0.0 | 3.2 | 0.00 | 0.00 | 0.00 | 75 | 1013.1 |
| 20260906080329 | 16 | 172 | 0.0 | 3.2 | 0.00 | 0.00 | 0.00 | 75 | 1013.1 |
| 20260906080325 | 16 | 150 | 0.0 | 3.2 | 0.00 | 0.00 | 0.00 | 75 | 1013.1 |
| 20260906080225 | 16 | 137 | 0.0 | 3.2 | 0.00 | 0.00 | 0.00 | 75 | 1013.0 |
| 20260906080215 | 16 | 172 | 0.0 | 3.2 | 0.00 | 0.00 | 0.00 | 75 | 1013.1 |
| 20260906080024 | 16 | 172 | 0.0 | 3.2 | 0.00 | 0.00 | 0.00 | 75 | 1013.1 |
| 20260906075923 | 16 | 172 | 0.0 | 3.2 | 0.00 | 0.00 | 0.00 | 75 | 1013.1 |
| 20260906075823 | 16 | 172 | 0.0 | 3.2 | 0.00 | 0.00 | 0.00 | 75 | 1013.1 |
| 20260906075726 | 16 | 188 | 0.0 | 3.2 | 0.00 | 0.00 | 0.00 | 74 | 1013.1 |
| 20260906075624 | 16 | 199 | 0.0 | 3.2 | 0.00 | 0.00 | 0.00 | 74 | 1013.1 |
| 20260906075523 | 16 | 199 | 0.0 | 3.2 | 0.00 | 0.00 | 0.00 | 74 | 1013.1 |
| 20260906075423 | 16 | 135 | 0.0 | 3.2 | 0.00 | 0.00 | 0.00 | 74 | 1013.1 |
| 20260906075323 | 16 | 135 | 0.0 | 3.2 | 0.00 | 0.00 | 0.00 | 74 | 1013.1 |
| 20260906075224 | 16 | 136 | 0.0 | 3.2 | 0.00 | 0.00 | 0.00 | 74 | 1013.1 |
| 20260906075123 | 16 | 136 | 0.0 | 3.2 | 0.00 | 0.00 | 0.00 | 74 | 1013.1 |
| 20260906075049 | 16 | 135 | 0.0 | 3.2 | 0.00 | 0.00 | 0.00 | 74 | 1013.1 |
| 20260906075023 | 16 | 136 | 0.0 | 3.2 | 0.00 | 0.00 | 0.00 | 74 | 1013.1 |
| 20260906074921 | 16 | 136 | 0.0 | 3.2 | 0.00 | 0.00 | 0.00 | 73 | 1013.1 |
| 20260906074821 | 16 | 110 | 0.0 | 1.6 | 0.00 | 0.00 | 0.00 | 73 | 1013.1 |
| 20260906074724 | 16 | 110 | 0.0 | 1.6 | 0.00 | 0.00 | 0.00 | 73 | 1013.1 |
| 20260906074621 | 16 | 110 | 0.0 | 1.6 | 0.00 | 0.00 | 0.00 | 73 | 1013.2 |
| 20260906074520 | 16 | 110 | 0.0 | 1.6 | 0.00 | 0.00 | 0.00 | 73 | 1013.1 |
| 20260906074422 | 16 | 110 | 0.0 | 1.6 | 0.00 | 0.00 | 0.00 | 73 | 1013.1 |
| 20260906074321 | 16 | 110 | 0.0 | 1.6 | 0.00 | 0.00 | 0.00 | 73 | 1013.1 |
| 20260906074223 | 16 | 245 | 0.0 | 1.6 | 0.00 | 0.00 | 0.00 | 73 | 1013.1 |
| 20260906074120 | 16 | 245 | 0.0 | 1.6 | 0.00 | 0.00 | 0.00 | 73 | 1013.1 |
| 20260906074021 | 16 | 245 | 0.0 | 1.6 | 0.00 | 0.00 | 0.00 | 72 | 1013.1 |
| 20260906073921 | 16 | 245 | 0.0 | 1.6 | 0.00 | 0.00 | 0.00 | 72 | 1013.1 |
| 20260906073821 | 16 | 245 | 0.0 | 1.6 | 0.00 | 0.00 | 0.00 | 71 | 1013.0 |
| 20260906073725 | 16 | 245 | 0.0 | 1.6 | 0.00 | 0.00 | 0.00 | 71 | 1013.1 |
| 20260906073617 | 16 | 245 | 0.0 | 1.6 | 0.00 | 0.00 | 0.00 | 72 | 1013.0 |
| 20260906073518 | 16 | 245 | 0.0 | 1.6 | 0.00 | 0.00 | 0.00 | 72 | 1013.1 |
| 20260906073417 | 16 | 245 | 0.0 | 0.0 | 0.00 | 0.00 | 0.00 | 71 | 1013.0 |
| 20260906073318 | 16 | 245 | 0.0 | 0.0 | 0.00 | 0.00 | 0.00 | 71 | 1013.0 |
| 20260906073219 | 16 | 245 | 0.0 | 0.0 | 0.00 | 0.00 | 0.00 | 71 | 1013.0 |
| 20260906073117 | 16 | 245 | 0.0 | 4.8 | 0.00 | 0.00 | 0.00 | 71 | 1013.0 |
| 20260906073016 | 16 | 245 | 0.0 | 4.8 | 0.00 | 0.00 | 0.00 | 71 | 1013.0 |
| 20260906072915 | 16 | 245 | 0.0 | 4.8 | 0.00 | 0.00 | 0.00 | 70 | 1013.0 |
| 20260906072815 | 16 | 245 | 0.0 | 4.8 | 0.00 | 0.00 | 0.00 | 70 | 1012.9 |
| 20260906072715 | 16 | 245 | 0.0 | 4.8 | 0.00 | 0.00 | 0.00 | 70 | 1012.9 |
| 20260906072614 | 16 | 245 | 0.0 | 4.8 | 0.00 | 0.00 | 0.00 | 70 | 1012.9 |
| 20260906072515 | 16 | 245 | 0.0 | 4.8 | 0.00 | 0.00 | 0.00 | 70 | 1012.9 |
| 20260906072413 | 16 | 245 | 0.0 | 4.8 | 0.00 | 0.00 | 0.00 | 70 | 1012.9 |
| 20260906072314 | 16 | 245 | 0.0 | 4.8 | 0.00 | 0.00 | 0.00 | 70 | 1012.9 |
| 20260906072213 | 16 | 245 | 0.0 | 4.8 | 0.00 | 0.00 | 0.00 | 70 | 1012.9 |
| 20260906072113 | 16 | 229 | 0.0 | 0.0 | 0.00 | 0.00 | 0.00 | 69 | 1012.8 |
| 20260906072038 | 16 | 229 | 0.0 | 0.0 | 0.00 | 0.00 | 0.00 | 69 | 1012.8 |
| 20260906072013 | 16 | 229 | 0.0 | 0.0 | 0.00 | 0.00 | 0.00 | 69 | 1012.9 |
| 20260906071913 | 16 | 229 | 0.0 | 0.0 | 0.00 | 0.00 | 0.00 | 69 | 1012.9 |
| 20260906071814 | 16 | 229 | 0.0 | 0.0 | 0.00 | 0.00 | 0.00 | 69 | 1012.9 |
| 20260906071713 | 16 | 229 | 0.0 | 0.0 | 0.00 | 0.00 | 0.00 | 68 | 1012.8 |
| 20260906071611 | 16 | 229 | 0.0 | 1.6 | 0.00 | 0.00 | 0.00 | 68 | 1012.8 |
| 20260906071537 | 16 | 229 | 0.0 | 1.6 | 0.00 | 0.00 | 0.00 | 68 | 1012.8 |
| 20260906071511 | 16 | 229 | 0.0 | 1.6 | 0.00 | 0.00 | 0.00 | 68 | 1012.9 |
| 20260906071411 | 16 | 229 | 0.0 | 1.6 | 0.00 | 0.00 | 0.00 | 68 | 1012.9 |
| 20260906071312 | 16 | 229 | 0.0 | 1.6 | 0.00 | 0.00 | 0.00 | 68 | 1012.8 |
| 20260906071207 | 16 | 229 | 0.0 | 1.6 | 0.00 | 0.00 | 0.00 | 67 | 1012.9 |
| 20260906071107 | 16 | 229 | 0.0 | 1.6 | 0.00 | 0.00 | 0.00 | 67 | 1012.9 |
| 20260906071036 | 16 | 229 | 0.0 | 1.6 | 0.00 | 0.00 | 0.00 | 67 | 1012.9 |
| 20260906071007 | 17 | 229 | 0.0 | 1.6 | 0.00 | 0.00 | 0.00 | 67 | 1012.9 |
| 20260906070907 | 17 | 230 | 0.0 | 3.2 | 0.00 | 0.00 | 0.00 | 67 | 1012.9 |
| 20260906070808 | 17 | 229 | 0.0 | 3.2 | 0.00 | 0.00 | 0.00 | 67 | 1012.8 |
| 20260906070706 | 17 | 229 | 0.0 | 3.2 | 0.00 | 0.00 | 0.00 | 67 | 1012.8 |
| 20260906070607 | 17 | 230 | 0.0 | 3.2 | 0.00 | 0.00 | 0.00 | 67 | 1012.8 |
| 20260906070507 | 17 | 229 | 0.0 | 4.8 | 0.00 | 0.00 | 0.00 | 67 | 1012.8 |
| 20260906070407 | 17 | 229 | 0.0 | 4.8 | 0.00 | 0.00 | 0.00 | 67 | 1012.8 |
| 20260906070308 | 17 | 229 | 1.6 | 4.8 | 0.00 | 0.00 | 0.00 | 67 | 1012.8 |
| 20260906070207 | 17 | 229 | 1.6 | 6.4 | 0.00 | 0.00 | 0.00 | 66 | 1012.8 |
| 20260906070108 | 17 | 230 | 1.6 | 8.0 | 0.00 | 0.00 | 0.00 | 66 | 1012.9 |
| 20260906070049 | 17 | 231 | 1.6 | 8.0 | 0.00 | 0.00 | 0.00 | 66 | 1012.9 |
| 20260906070007 | 17 | 231 | 1.6 | 8.0 | 0.00 | 0.00 | 0.00 | 66 | 1012.9 |
| 20260906065907 | 17 | 232 | 1.6 | 8.0 | 0.00 | 0.00 | 0.00 | 66 | 1012.9 |
| 20260906065808 | 17 | 232 | 1.6 | 8.0 | 0.00 | 0.00 | 0.00 | 66 | 1012.9 |
| 20260906065707 | 17 | 232 | 1.6 | 8.0 | 0.00 | 0.00 | 0.00 | 66 | 1012.9 |
| 20260906065606 | 17 | 236 | 1.6 | 8.0 | 0.00 | 0.00 | 0.00 | 66 | 1012.8 |
| 20260906065536 | 17 | 233 | 1.6 | 8.0 | 0.00 | 0.00 | 0.00 | 66 | 1012.8 |
| 20260906065507 | 17 | 248 | 1.6 | 8.0 | 0.00 | 0.00 | 0.00 | 65 | 1012.8 |
| 20260906065406 | 17 | 250 | 1.6 | 8.0 | 0.00 | 0.00 | 0.00 | 65 | 1012.8 |
| 20260906065305 | 17 | 250 | 1.6 | 8.0 | 0.00 | 0.00 | 0.00 | 65 | 1012.8 |
| 20260906065202 | 17 | 235 | 1.6 | 8.0 | 0.00 | 0.00 | 0.00 | 65 | 1012.8 |
| 20260906065101 | 17 | 245 | 1.6 | 4.8 | 0.00 | 0.00 | 0.00 | 65 | 1012.8 |
| 20260906065036 | 17 | 221 | 1.6 | 4.8 | 0.00 | 0.00 | 0.00 | 64 | 1012.8 |
| 20260906065018 | 17 | 225 | 1.6 | 4.8 | 0.00 | 0.00 | 0.00 | 64 | 1012.8 |
| 20260906065000 | 17 | 221 | 1.6 | 4.8 | 0.00 | 0.00 | 0.00 | 64 | 1012.8 |
| 20260906064907 | 17 | 221 | 1.6 | 4.8 | 0.00 | 0.00 | 0.00 | 64 | 1012.8 |
| 20260906064752 | 17 | 221 | 1.6 | 4.8 | 0.00 | 0.00 | 0.00 | 64 | 1012.8 |
| 20260906064652 | 17 | 232 | 1.6 | 4.8 | 0.00 | 0.00 | 0.00 | 64 | 1012.8 |
| 20260906064640 | 17 | 225 | 1.6 | 4.8 | 0.00 | 0.00 | 0.00 | 64 | 1012.8 |
| 20260906064452 | 17 | 225 | 1.6 | 4.8 | 0.00 | 0.00 | 0.00 | 64 | 1012.8 |
| 20260906064353 | 17 | 260 | 1.6 | 4.8 | 0.00 | 0.00 | 0.00 | 64 | 1012.8 |
| 20260906064250 | 17 | 228 | 1.6 | 4.8 | 0.00 | 0.00 | 0.00 | 64 | 1012.8 |
| 20260906064150 | 17 | 219 | 1.6 | 6.4 | 0.00 | 0.00 | 0.00 | 64 | 1012.8 |
| 20260906064024 | 17 | 226 | 1.6 | 6.4 | 0.00 | 0.00 | 0.00 | 63 | 1012.8 |
| 20260906063947 | 17 | 226 | 1.6 | 6.4 | 0.00 | 0.00 | 0.00 | 63 | 1012.9 |
| 20260906063845 | 17 | 226 | 1.6 | 6.4 | 0.00 | 0.00 | 0.00 | 63 | 1012.9 |
| 20260906063745 | 17 | 226 | 1.6 | 6.4 | 0.00 | 0.00 | 0.00 | 63 | 1012.9 |
| 20260906063643 | 17 | 226 | 1.6 | 6.4 | 0.00 | 0.00 | 0.00 | 63 | 1012.9 |
| 20260906063541 | 17 | 226 | 1.6 | 6.4 | 0.00 | 0.00 | 0.00 | 63 | 1012.9 |
| 20260906063519 | 17 | 245 | 1.6 | 6.4 | 0.00 | 0.00 | 0.00 | 63 | 1012.9 |
| 20260906063441 | 17 | 245 | 1.6 | 6.4 | 0.00 | 0.00 | 0.00 | 63 | 1012.9 |
| 20260906063339 | 17 | 243 | 1.6 | 6.4 | 0.00 | 0.00 | 0.00 | 63 | 1012.9 |
| 20260906063239 | 17 | 270 | 1.6 | 9.7 | 0.00 | 0.00 | 0.00 | 62 | 1012.9 |
| 20260906063235 | 17 | 248 | 1.6 | 6.4 | 0.00 | 0.00 | 0.00 | 62 | 1012.9 |
| 20260906063134 | 17 | 226 | 1.6 | 6.4 | 0.00 | 0.00 | 0.00 | 62 | 1012.9 |
| 20260906063122 | 17 | 242 | 1.6 | 9.7 | 0.00 | 0.00 | 0.00 | 62 | 1012.9 |
| 20260906062933 | 17 | 242 | 1.6 | 9.7 | 0.00 | 0.00 | 0.00 | 62 | 1012.9 |
| 20260906062833 | 17 | 238 | 1.6 | 9.7 | 0.00 | 0.00 | 0.00 | 62 | 1012.9 |
| 20260906062734 | 17 | 266 | 1.6 | 9.7 | 0.00 | 0.00 | 0.00 | 62 | 1012.9 |
| 20260906062631 | 17 | 221 | 1.6 | 9.7 | 0.00 | 0.00 | 0.00 | 61 | 1012.9 |
| 20260906062531 | 17 | 222 | 1.6 | 9.7 | 0.00 | 0.00 | 0.00 | 61 | 1012.9 |
| 20260906062506 | 17 | 239 | 1.6 | 9.7 | 0.00 | 0.00 | 0.00 | 61 | 1012.9 |
| 20260906062430 | 17 | 235 | 1.6 | 9.7 | 0.00 | 0.00 | 0.00 | 61 | 1012.9 |
| 20260906062327 | 17 | 216 | 1.6 | 9.7 | 0.00 | 0.00 | 0.00 | 61 | 1012.9 |
| 20260906062227 | 18 | 228 | 1.6 | 9.7 | 0.00 | 0.00 | 0.00 | 61 | 1012.9 |
| 20260906062125 | 18 | 216 | 1.6 | 9.7 | 0.00 | 0.00 | 0.00 | 61 | 1012.9 |
| 20260906062023 | 18 | 259 | 1.6 | 9.7 | 0.00 | 0.00 | 0.00 | 60 | 1012.9 |
| 20260906062000 | 18 | 242 | 1.6 | 9.7 | 0.00 | 0.00 | 0.00 | 60 | 1012.9 |
| 20260906061924 | 18 | 236 | 1.6 | 9.7 | 0.00 | 0.00 | 0.00 | 60 | 1012.9 |
| 20260906061821 | 18 | 236 | 1.6 | 9.7 | 0.00 | 0.00 | 0.00 | 60 | 1012.9 |
| 20260906061718 | 18 | 228 | 1.6 | 9.7 | 0.00 | 0.00 | 0.00 | 60 | 1012.8 |
| 20260906061615 | 18 | 257 | 1.6 | 6.4 | 0.00 | 0.00 | 0.00 | 60 | 1012.8 |
| 20260906061517 | 18 | 284 | 1.6 | 6.4 | 0.00 | 0.00 | 0.00 | 60 | 1012.8 |
| 20260906061507 | 18 | 226 | 1.6 | 6.4 | 0.00 | 0.00 | 0.00 | 60 | 1012.8 |
| 20260906061415 | 18 | 235 | 1.6 | 8.0 | 0.00 | 0.00 | 0.00 | 60 | 1012.8 |
| 20260906061316 | 18 | 250 | 1.6 | 8.0 | 0.00 | 0.00 | 0.00 | 59 | 1012.8 |
| 20260906061210 | 18 | 240 | 1.6 | 8.0 | 0.00 | 0.00 | 0.00 | 59 | 1012.8 |
| 20260906061110 | 18 | 240 | 1.6 | 8.0 | 0.00 | 0.00 | 0.00 | 59 | 1012.8 |
| 20260906061010 | 18 | 208 | 0.0 | 8.0 | 0.00 | 0.00 | 0.00 | 59 | 1012.8 |
| 20260906060949 | 18 | 215 | 0.0 | 8.0 | 0.00 | 0.00 | 0.00 | 59 | 1012.8 |
| 20260906060910 | 18 | 250 | 0.0 | 8.0 | 0.00 | 0.00 | 0.00 | 59 | 1012.8 |
| 20260906060810 | 18 | 250 | 0.0 | 8.0 | 0.00 | 0.00 | 0.00 | 58 | 1012.8 |
| 20260906060710 | 18 | 221 | 0.0 | 8.0 | 0.00 | 0.00 | 0.00 | 58 | 1012.7 |
| 20260906060702 | 18 | 228 | 0.0 | 8.0 | 0.00 | 0.00 | 0.00 | 58 | 1012.8 |
| 20260906060607 | 18 | 226 | 0.0 | 8.0 | 0.00 | 0.00 | 0.00 | 58 | 1012.7 |
| 20260906060554 | 18 | 228 | 0.0 | 8.0 | 0.00 | 0.00 | 0.00 | 58 | 1012.8 |
| 20260906060406 | 18 | 278 | 0.0 | 6.4 | 0.00 | 0.00 | 0.00 | 58 | 1012.8 |
| 20260906060304 | 18 | 229 | 0.0 | 6.4 | 0.00 | 0.00 | 0.00 | 57 | 1012.8 |
| 20260906060204 | 18 | 229 | 1.6 | 6.4 | 0.00 | 0.00 | 0.00 | 57 | 1012.8 |
| 20260906060002 | 18 | 222 | 1.6 | 6.4 | 0.00 | 0.00 | 0.00 | 57 | 1012.8 |
| 20260906055936 | 18 | 222 | 1.6 | 6.4 | 0.00 | 0.00 | 0.00 | 56 | 1012.8 |
| 20260906055859 | 18 | 222 | 1.6 | 6.4 | 0.00 | 0.00 | 0.00 | 56 | 1012.8 |
| 20260906055758 | 18 | 242 | 1.6 | 6.4 | 0.00 | 0.00 | 0.00 | 56 | 1012.8 |
| 20260906055651 | 18 | 241 | 1.6 | 6.4 | 0.00 | 0.00 | 0.00 | 56 | 1012.8 |
| 20260906055552 | 18 | 248 | 1.6 | 6.4 | 0.00 | 0.00 | 0.00 | 56 | 1012.9 |
| 20260906055451 | 18 | 233 | 1.6 | 4.8 | 0.00 | 0.00 | 0.00 | 55 | 1012.9 |
| 20260906055431 | 18 | 239 | 1.6 | 4.8 | 0.00 | 0.00 | 0.00 | 55 | 1012.9 |
| 20260906055351 | 18 | 241 | 1.6 | 4.8 | 0.00 | 0.00 | 0.00 | 55 | 1012.9 |
| 20260906055253 | 18 | 267 | 1.6 | 4.8 | 0.00 | 0.00 | 0.00 | 55 | 1012.9 |
| 20260906055147 | 18 | 238 | 1.6 | 4.8 | 0.00 | 0.00 | 0.00 | 55 | 1012.9 |
| 20260906055049 | 18 | 218 | 1.6 | 4.8 | 0.00 | 0.00 | 0.00 | 56 | 1012.9 |
| 20260906054924 | 18 | 218 | 1.6 | 4.8 | 0.00 | 0.00 | 0.00 | 54 | 1012.9 |
| 20260906054846 | 19 | 226 | 1.6 | 4.8 | 0.00 | 0.00 | 0.00 | 54 | 1012.9 |
| 20260906054746 | 19 | 235 | 1.6 | 4.8 | 0.00 | 0.00 | 0.00 | 54 | 1012.9 |
| 20260906054639 | 19 | 222 | 1.6 | 6.4 | 0.00 | 0.00 | 0.00 | 54 | 1012.9 |
| 20260906054540 | 19 | 235 | 1.6 | 6.4 | 0.00 | 0.00 | 0.00 | 54 | 1012.9 |
| 20260906054418 | 19 | 235 | 1.6 | 6.4 | 0.00 | 0.00 | 0.00 | 53 | 1012.9 |
| 20260906054339 | 19 | 245 | 1.6 | 6.4 | 0.00 | 0.00 | 0.00 | 53 | 1012.9 |
| 20260906054241 | 19 | 232 | 1.6 | 8.0 | 0.00 | 0.00 | 0.00 | 53 | 1012.9 |
| 20260906054137 | 19 | 240 | 1.6 | 8.0 | 0.00 | 0.00 | 0.00 | 53 | 1012.9 |
| 20260906054036 | 19 | 218 | 1.6 | 8.0 | 0.00 | 0.00 | 0.00 | 53 | 1012.9 |
| 20260906053935 | 19 | 252 | 1.6 | 8.0 | 0.00 | 0.00 | 0.00 | 53 | 1012.9 |
| 20260906053913 | 19 | 250 | 1.6 | 8.0 | 0.00 | 0.00 | 0.00 | 53 | 1012.9 |
| 20260906053835 | 19 | 219 | 1.6 | 8.0 | 0.00 | 0.00 | 0.00 | 52 | 1012.9 |
| 20260906053734 | 19 | 235 | 1.6 | 11.3 | 0.00 | 0.00 | 0.00 | 52 | 1012.9 |
| 20260906053627 | 19 | 220 | 1.6 | 11.3 | 0.00 | 0.00 | 0.00 | 52 | 1012.9 |
| 20260906053527 | 19 | 219 | 1.6 | 11.3 | 0.00 | 0.00 | 0.00 | 52 | 1012.9 |
| 20260906053427 | 19 | 231 | 1.6 | 11.3 | 0.00 | 0.00 | 0.00 | 52 | 1012.8 |
| 20260906053406 | 19 | 230 | 1.6 | 11.3 | 0.00 | 0.00 | 0.00 | 52 | 1012.9 |
| 20260906053328 | 19 | 250 | 1.6 | 11.3 | 0.00 | 0.00 | 0.00 | 52 | 1012.9 |
| 20260906053228 | 19 | 219 | 1.6 | 11.3 | 0.00 | 0.00 | 0.00 | 52 | 1012.9 |
| 20260906053123 | 19 | 266 | 3.2 | 11.3 | 0.00 | 0.00 | 0.00 | 51 | 1012.9 |
| 20260906053022 | 19 | 221 | 3.2 | 11.3 | 0.00 | 0.00 | 0.00 | 51 | 1012.9 |
| 20260906052921 | 20 | 221 | 3.2 | 11.3 | 0.00 | 0.00 | 0.00 | 51 | 1012.9 |
| 20260906052901 | 20 | 252 | 3.2 | 11.3 | 0.00 | 0.00 | 0.00 | 51 | 1012.9 |
| 20260906052822 | 20 | 242 | 3.2 | 11.3 | 0.00 | 0.00 | 0.00 | 51 | 1012.9 |
| 20260906052723 | 20 | 221 | 3.2 | 9.7 | 0.00 | 0.00 | 0.00 | 51 | 1012.9 |
| 20260906052615 | 20 | 263 | 3.2 | 8.0 | 0.00 | 0.00 | 0.00 | 51 | 1012.9 |
| 20260906052516 | 20 | 239 | 3.2 | 8.0 | 0.00 | 0.00 | 0.00 | 51 | 1012.8 |
| 20260906052417 | 20 | 248 | 3.2 | 8.0 | 0.00 | 0.00 | 0.00 | 51 | 1012.9 |
| 20260906052407 | 20 | 208 | 3.2 | 8.0 | 0.00 | 0.00 | 0.00 | 51 | 1012.9 |
| 20260906052316 | 20 | 240 | 3.2 | 8.0 | 0.00 | 0.00 | 0.00 | 50 | 1012.9 |
| 20260906052220 | 20 | 233 | 1.6 | 8.0 | 0.00 | 0.00 | 0.00 | 50 | 1012.9 |
| 20260906052114 | 20 | 242 | 1.6 | 8.0 | 0.00 | 0.00 | 0.00 | 50 | 1012.9 |
| 20260906052014 | 20 | 229 | 1.6 | 8.0 | 0.00 | 0.00 | 0.00 | 50 | 1012.9 |
| 20260906051914 | 20 | 229 | 1.6 | 8.0 | 0.00 | 0.00 | 0.00 | 50 | 1012.9 |
| 20260906051848 | 20 | 229 | 1.6 | 8.0 | 0.00 | 0.00 | 0.00 | 50 | 1012.9 |
| 20260906051812 | 20 | 238 | 1.6 | 8.0 | 0.00 | 0.00 | 0.00 | 49 | 1012.9 |
| 20260906051709 | 20 | 250 | 1.6 | 8.0 | 0.00 | 0.00 | 0.00 | 49 | 1012.9 |
| 20260906051615 | 20 | 260 | 1.6 | 8.0 | 0.00 | 0.00 | 0.00 | 49 | 1012.9 |
| 20260906051610 | 20 | 230 | 1.6 | 8.0 | 0.00 | 0.00 | 0.00 | 49 | 1012.9 |
| 20260906051508 | 20 | 257 | 1.6 | 8.0 | 0.00 | 0.00 | 0.00 | 49 | 1012.9 |
| 20260906051408 | 20 | 248 | 1.6 | 8.0 | 0.00 | 0.00 | 0.00 | 49 | 1012.9 |
| 20260906051306 | 20 | 217 | 1.6 | 8.0 | 0.00 | 0.00 | 0.00 | 49 | 1012.9 |
| 20260906051204 | 20 | 243 | 1.6 | 8.0 | 0.00 | 0.00 | 0.00 | 49 | 1012.9 |
| 20260906051104 | 20 | 271 | 1.6 | 8.0 | 0.00 | 0.00 | 0.00 | 49 | 1012.9 |
| 20260906051002 | 20 | 259 | 1.6 | 8.0 | 0.00 | 0.00 | 0.00 | 49 | 1012.9 |
| 20260906050838 | 20 | 252 | 1.6 | 8.0 | 0.00 | 0.00 | 0.00 | 49 | 1012.9 |
| 20260906050801 | 20 | 252 | 1.6 | 8.0 | 0.00 | 0.00 | 0.00 | 49 | 1013.0 |
| 20260906050658 | 20 | 235 | 1.6 | 6.4 | 0.00 | 0.00 | 0.00 | 49 | 1012.9 |
| 20260906050556 | 20 | 228 | 1.6 | 6.4 | 0.00 | 0.00 | 0.00 | 49 | 1012.9 |
| 20260906050457 | 20 | 214 | 1.6 | 6.4 | 0.00 | 0.00 | 0.00 | 49 | 1012.9 |
| 20260906050353 | 20 | 186 | 1.6 | 6.4 | 0.00 | 0.00 | 0.00 | 48 | 1012.9 |
| 20260906050339 | 20 | 250 | 1.6 | 6.4 | 0.00 | 0.00 | 0.00 | 48 | 1012.9 |
| 20260906050254 | 20 | 243 | 1.6 | 6.4 | 0.00 | 0.00 | 0.00 | 49 | 1012.9 |
| 20260906050151 | 20 | 243 | 1.6 | 6.4 | 0.00 | 0.00 | 0.00 | 48 | 1012.9 |
| 20260906050045 | 20 | 250 | 1.6 | 6.4 | 0.00 | 0.00 | 0.00 | 49 | 1012.9 |
| 20260906045945 | 20 | 248 | 1.6 | 6.4 | 0.00 | 0.00 | 0.00 | 48 | 1012.9 |
| 20260906045850 | 20 | 219 | 1.6 | 9.7 | 0.00 | 0.00 | 0.00 | 48 | 1012.9 |
| 20260906045839 | 20 | 239 | 1.6 | 9.7 | 0.00 | 0.00 | 0.00 | 48 | 1012.9 |
| 20260906045746 | 20 | 224 | 3.2 | 9.7 | 0.00 | 0.00 | 0.00 | 48 | 1012.8 |
| 20260906045645 | 20 | 231 | 3.2 | 9.7 | 0.00 | 0.00 | 0.00 | 48 | 1012.9 |
| 20260906045545 | 20 | 248 | 3.2 | 11.3 | 0.00 | 0.00 | 0.00 | 48 | 1012.8 |
| 20260906045443 | 20 | 250 | 3.2 | 11.3 | 0.00 | 0.00 | 0.00 | 48 | 1012.8 |
| 20260906045343 | 20 | 238 | 3.2 | 11.3 | 0.00 | 0.00 | 0.00 | 48 | 1012.8 |
| 20260906045242 | 20 | 245 | 3.2 | 11.3 | 0.00 | 0.00 | 0.00 | 48 | 1012.8 |
| 20260906045139 | 20 | 238 | 3.2 | 11.3 | 0.00 | 0.00 | 0.00 | 48 | 1012.7 |
| 20260906045035 | 20 | 242 | 3.2 | 11.3 | 0.00 | 0.00 | 0.00 | 48 | 1012.8 |
| 20260906044933 | 20 | 290 | 3.2 | 16.1 | 0.00 | 0.00 | 0.00 | 48 | 1012.8 |
| 20260906044839 | 20 | 248 | 3.2 | 16.1 | 0.00 | 0.00 | 0.00 | 49 | 1012.8 |
| 20260906044833 | 20 | 262 | 3.2 | 16.1 | 0.00 | 0.00 | 0.00 | 49 | 1012.8 |
| 20260906044733 | 20 | 248 | 3.2 | 16.1 | 0.00 | 0.00 | 0.00 | 49 | 1012.8 |
| 20260906044633 | 20 | 245 | 3.2 | 16.1 | 0.00 | 0.00 | 0.00 | 49 | 1012.8 |
| 20260906044529 | 20 | 217 | 3.2 | 16.1 | 0.00 | 0.00 | 0.00 | 49 | 1012.8 |
| 20260906044427 | 20 | 238 | 3.2 | 16.1 | 0.00 | 0.00 | 0.00 | 49 | 1012.7 |
| 20260906044329 | 20 | 235 | 3.2 | 16.1 | 0.00 | 0.00 | 0.00 | 49 | 1012.8 |
| 20260906044229 | 20 | 242 | 1.6 | 16.1 | 0.00 | 0.00 | 0.00 | 49 | 1012.8 |
| 20260906044127 | 20 | 221 | 1.6 | 16.1 | 0.00 | 0.00 | 0.00 | 49 | 1012.8 |
| 20260906044023 | 20 | 263 | 1.6 | 11.3 | 0.00 | 0.00 | 0.00 | 50 | 1012.8 |
| 20260906043924 | 20 | 242 | 1.6 | 11.3 | 0.00 | 0.00 | 0.00 | 51 | 1012.8 |
| 20260906043836 | 20 | 262 | 1.6 | 11.3 | 0.00 | 0.00 | 0.00 | 51 | 1012.8 |
| 20260906043826 | 20 | 214 | 1.6 | 11.3 | 0.00 | 0.00 | 0.00 | 51 | 1012.8 |
| 20260906043725 | 20 | 236 | 0.0 | 6.4 | 0.00 | 0.00 | 0.00 | 51 | 1012.8 |
| 20260906043621 | 20 | 235 | 0.0 | 3.2 | 0.00 | 0.00 | 0.00 | 51 | 1012.9 |
| 20260906043515 | 20 | 233 | 0.0 | 3.2 | 0.00 | 0.00 | 0.00 | 51 | 1012.9 |
| 20260906043415 | 20 | 238 | 0.0 | 3.2 | 0.00 | 0.00 | 0.00 | 51 | 1012.8 |
| 20260906043336 | 20 | 239 | 0.0 | 3.2 | 0.00 | 0.00 | 0.00 | 51 | 1012.8 |
| 20260906043316 | 20 | 239 | 0.0 | 3.2 | 0.00 | 0.00 | 0.00 | 51 | 1012.9 |
| 20260906043219 | 20 | 239 | 0.0 | 3.2 | 0.00 | 0.00 | 0.00 | 51 | 1012.9 |
| 20260906043116 | 21 | 238 | 0.0 | 3.2 | 0.00 | 0.00 | 0.00 | 51 | 1012.9 |
| 20260906043012 | 21 | 239 | 0.0 | 3.2 | 0.00 | 0.00 | 0.00 | 51 | 1012.8 |
| 20260906042911 | 21 | 239 | 0.0 | 3.2 | 0.00 | 0.00 | 0.00 | 51 | 1012.9 |
| 20260906042836 | 21 | 238 | 0.0 | 3.2 | 0.00 | 0.00 | 0.00 | 50 | 1012.9 |
| 20260906042812 | 21 | 239 | 0.0 | 4.8 | 0.00 | 0.00 | 0.00 | 50 | 1012.9 |
| 20260906042712 | 21 | 239 | 0.0 | 4.8 | 0.00 | 0.00 | 0.00 | 50 | 1012.9 |
| 20260906042610 | 21 | 239 | 1.6 | 4.8 | 0.00 | 0.00 | 0.00 | 50 | 1012.9 |
| 20260906042507 | 21 | 224 | 1.6 | 4.8 | 0.00 | 0.00 | 0.00 | 50 | 1012.9 |
| 20260906042407 | 21 | 248 | 0.0 | 4.8 | 0.00 | 0.00 | 0.00 | 50 | 1012.8 |
| 20260906042337 | 21 | 238 | 0.0 | 4.8 | 0.00 | 0.00 | 0.00 | 50 | 1012.8 |
| 20260906042308 | 21 | 242 | 0.0 | 4.8 | 0.00 | 0.00 | 0.00 | 50 | 1012.8 |
| 20260906042205 | 21 | 235 | 0.0 | 4.8 | 0.00 | 0.00 | 0.00 | 51 | 1012.7 |
| 20260906042109 | 21 | 236 | 1.6 | 4.8 | 0.00 | 0.00 | 0.00 | 50 | 1012.8 |
| 20260906042100 | 21 | 239 | 0.0 | 4.8 | 0.00 | 0.00 | 0.00 | 50 | 1012.7 |
| 20260906042006 | 21 | 235 | 1.6 | 4.8 | 0.00 | 0.00 | 0.00 | 50 | 1012.7 |
| 20260906041947 | 21 | 234 | 0.0 | 4.8 | 0.00 | 0.00 | 0.00 | 50 | 1012.7 |
| 20260906041807 | 21 | 195 | 1.6 | 4.8 | 0.00 | 0.00 | 0.00 | 50 | 1012.7 |
| 20260906041703 | 21 | 262 | 1.6 | 4.8 | 0.00 | 0.00 | 0.00 | 50 | 1012.6 |
| 20260906041604 | 21 | 238 | 1.6 | 4.8 | 0.00 | 0.00 | 0.00 | 50 | 1012.6 |
| 20260906041501 | 21 | 235 | 1.6 | 4.8 | 0.00 | 0.00 | 0.00 | 50 | 1012.6 |
| 20260906041350 | 21 | 235 | 1.6 | 4.8 | 0.00 | 0.00 | 0.00 | 50 | 1012.6 |
| 20260906041300 | 21 | 238 | 1.6 | 4.8 | 0.00 | 0.00 | 0.00 | 50 | 1012.5 |
| 20260906041157 | 21 | 233 | 1.6 | 4.8 | 0.00 | 0.00 | 0.00 | 50 | 1012.5 |
| 20260906041055 | 21 | 233 | 1.6 | 6.4 | 0.00 | 0.00 | 0.00 | 50 | 1012.5 |
| 20260906040955 | 21 | 231 | 1.6 | 6.4 | 0.00 | 0.00 | 0.00 | 50 | 1012.5 |
| 20260906040901 | 21 | 231 | 1.6 | 6.4 | 0.00 | 0.00 | 0.00 | 50 | 1012.5 |
| 20260906040850 | 21 | 228 | 1.6 | 6.4 | 0.00 | 0.00 | 0.00 | 50 | 1012.5 |
| 20260906040754 | 21 | 235 | 1.6 | 6.4 | 0.00 | 0.00 | 0.00 | 49 | 1012.5 |
| 20260906040651 | 21 | 232 | 1.6 | 6.4 | 0.00 | 0.00 | 0.00 | 49 | 1012.5 |
| 20260906040549 | 21 | 238 | 1.6 | 9.7 | 0.00 | 0.00 | 0.00 | 49 | 1012.5 |
| 20260906040450 | 21 | 236 | 1.6 | 9.7 | 0.00 | 0.00 | 0.00 | 49 | 1012.5 |
| 20260906040401 | 21 | 240 | 3.2 | 9.7 | 0.00 | 0.00 | 0.00 | 49 | 1012.4 |
| 20260906040350 | 21 | 241 | 3.2 | 9.7 | 0.00 | 0.00 | 0.00 | 49 | 1012.4 |
| 20260906040251 | 22 | 241 | 3.2 | 9.7 | 0.00 | 0.00 | 0.00 | 49 | 1012.5 |
| 20260906040149 | 22 | 239 | 3.2 | 9.7 | 0.00 | 0.00 | 0.00 | 49 | 1012.4 |
| 20260906040050 | 22 | 224 | 3.2 | 9.7 | 0.00 | 0.00 | 0.00 | 49 | 1012.5 |
| 20260906035947 | 22 | 259 | 3.2 | 9.7 | 0.00 | 0.00 | 0.00 | 49 | 1012.5 |
| 20260906035846 | 22 | 241 | 3.2 | 9.7 | 0.00 | 0.00 | 0.00 | 48 | 1012.4 |
| 20260906035836 | 22 | 239 | 3.2 | 9.7 | 0.00 | 0.00 | 0.00 | 48 | 1012.4 |
| 20260906035746 | 22 | 240 | 3.2 | 9.7 | 0.00 | 0.00 | 0.00 | 48 | 1012.5 |
| 20260906035643 | 22 | 256 | 3.2 | 9.7 | 0.00 | 0.00 | 0.00 | 48 | 1012.5 |
| 20260906035542 | 22 | 236 | 3.2 | 9.7 | 0.00 | 0.00 | 0.00 | 48 | 1012.5 |
| 20260906035443 | 22 | 248 | 3.2 | 9.7 | 0.00 | 0.00 | 0.00 | 48 | 1012.5 |
| 20260906035340 | 22 | 229 | 1.6 | 9.7 | 0.00 | 0.00 | 0.00 | 48 | 1012.5 |
| 20260906035239 | 22 | 240 | 1.6 | 9.7 | 0.00 | 0.00 | 0.00 | 48 | 1012.4 |
| 20260906035137 | 22 | 239 | 1.6 | 14.5 | 0.00 | 0.00 | 0.00 | 48 | 1012.4 |
| 20260906035041 | 22 | 233 | 1.6 | 14.5 | 0.00 | 0.00 | 0.00 | 48 | 1012.4 |
| 20260906034937 | 22 | 233 | 3.2 | 14.5 | 0.00 | 0.00 | 0.00 | 48 | 1012.4 |
| 20260906034839 | 22 | 231 | 3.2 | 14.5 | 0.00 | 0.00 | 0.00 | 48 | 1012.4 |
| 20260906034735 | 22 | 277 | 3.2 | 14.5 | 0.00 | 0.00 | 0.00 | 48 | 1012.4 |
| 20260906034631 | 22 | 245 | 3.2 | 14.5 | 0.00 | 0.00 | 0.00 | 48 | 1012.4 |
| 20260906034556 | 22 | 233 | 3.2 | 14.5 | 0.00 | 0.00 | 0.00 | 48 | 1012.3 |
| 20260906034531 | 22 | 226 | 3.2 | 14.5 | 0.00 | 0.00 | 0.00 | 48 | 1012.3 |
| 20260906034447 | 22 | 233 | 3.2 | 14.5 | 0.00 | 0.00 | 0.00 | 48 | 1012.4 |
| 20260906034437 | 22 | 233 | 3.2 | 14.5 | 0.00 | 0.00 | 0.00 | 48 | 1012.3 |
| 20260906034226 | 22 | 239 | 4.8 | 14.5 | 0.00 | 0.00 | 0.00 | 47 | 1012.4 |
| 20260906034125 | 22 | 246 | 4.8 | 14.5 | 0.00 | 0.00 | 0.00 | 47 | 1012.4 |
| 20260906034025 | 22 | 245 | 3.2 | 14.5 | 0.00 | 0.00 | 0.00 | 47 | 1012.3 |
| 20260906033925 | 22 | 232 | 4.8 | 14.5 | 0.00 | 0.00 | 0.00 | 47 | 1012.3 |
| 20260906033827 | 22 | 253 | 3.2 | 14.5 | 0.00 | 0.00 | 0.00 | 47 | 1012.3 |
| 20260906033723 | 22 | 233 | 3.2 | 14.5 | 0.00 | 0.00 | 0.00 | 47 | 1012.3 |
| 20260906033621 | 22 | 219 | 4.8 | 14.5 | 0.00 | 0.00 | 0.00 | 47 | 1012.3 |
| 20260906033522 | 22 | 211 | 3.2 | 14.5 | 0.00 | 0.00 | 0.00 | 47 | 1012.3 |
| 20260906033422 | 22 | 259 | 3.2 | 14.5 | 0.00 | 0.00 | 0.00 | 47 | 1012.3 |
| 20260906033320 | 22 | 219 | 3.2 | 14.5 | 0.00 | 0.00 | 0.00 | 47 | 1012.3 |
| 20260906033216 | 22 | 229 | 3.2 | 8.0 | 0.00 | 0.00 | 0.00 | 47 | 1012.3 |
| 20260906033114 | 22 | 267 | 3.2 | 8.0 | 0.00 | 0.00 | 0.00 | 47 | 1012.2 |
| 20260906033014 | 22 | 224 | 3.2 | 8.0 | 0.00 | 0.00 | 0.00 | 47 | 1012.3 |
| 20260906032913 | 22 | 216 | 3.2 | 9.7 | 0.00 | 0.00 | 0.00 | 47 | 1012.2 |
| 20260906032816 | 22 | 263 | 1.6 | 9.7 | 0.00 | 0.00 | 0.00 | 48 | 1012.2 |
| 20260906032715 | 22 | 238 | 1.6 | 9.7 | 0.00 | 0.00 | 0.00 | 47 | 1012.2 |
| 20260906032611 | 22 | 273 | 1.6 | 9.7 | 0.00 | 0.00 | 0.00 | 48 | 1012.2 |
| 20260906032512 | 22 | 226 | 1.6 | 9.7 | 0.00 | 0.00 | 0.00 | 48 | 1012.2 |
| 20260906032409 | 22 | 287 | 1.6 | 9.7 | 0.00 | 0.00 | 0.00 | 48 | 1012.2 |
| 20260906032310 | 22 | 246 | 1.6 | 9.7 | 0.00 | 0.00 | 0.00 | 48 | 1012.1 |
| 20260906032205 | 22 | 245 | 1.6 | 9.7 | 0.00 | 0.00 | 0.00 | 48 | 1012.2 |
| 20260906032105 | 22 | 245 | 1.6 | 9.7 | 0.00 | 0.00 | 0.00 | 48 | 1012.2 |
| 20260906032007 | 22 | 236 | 0.0 | 9.7 | 0.00 | 0.00 | 0.00 | 48 | 1012.2 |
| 20260906031903 | 22 | 236 | 1.6 | 9.7 | 0.00 | 0.00 | 0.00 | 49 | 1012.2 |
| 20260906031804 | 22 | 203 | 1.6 | 9.7 | 0.00 | 0.00 | 0.00 | 49 | 1012.2 |
| 20260906031658 | 22 | 285 | 1.6 | 9.7 | 0.00 | 0.00 | 0.00 | 49 | 1012.2 |
| 20260906031557 | 22 | 285 | 0.0 | 9.7 | 0.00 | 0.00 | 0.00 | 49 | 1012.2 |
| 20260906031456 | 22 | 241 | 0.0 | 4.8 | 0.00 | 0.00 | 0.00 | 49 | 1012.2 |
| 20260906031356 | 22 | 233 | 0.0 | 4.8 | 0.00 | 0.00 | 0.00 | 49 | 1012.2 |
| 20260906031257 | 22 | 233 | 0.0 | 4.8 | 0.00 | 0.00 | 0.00 | 49 | 1012.2 |
| 20260906031155 | 22 | 233 | 0.0 | 4.8 | 0.00 | 0.00 | 0.00 | 49 | 1012.1 |
| 20260906031053 | 22 | 231 | 0.0 | 3.2 | 0.00 | 0.00 | 0.00 | 49 | 1012.2 |
| 20260906030954 | 22 | 219 | 0.0 | 3.2 | 0.00 | 0.00 | 0.00 | 50 | 1012.1 |
| 20260906030852 | 22 | 219 | 0.0 | 3.2 | 0.00 | 0.00 | 0.00 | 50 | 1012.1 |
| 20260906030751 | 22 | 222 | 0.0 | 1.6 | 0.00 | 0.00 | 0.00 | 49 | 1012.1 |
| 20260906030648 | 22 | 222 | 0.0 | 1.6 | 0.00 | 0.00 | 0.00 | 49 | 1012.1 |
| 20260906030547 | 23 | 222 | 0.0 | 1.6 | 0.00 | 0.00 | 0.00 | 49 | 1012.1 |
| 20260906030447 | 23 | 222 | 0.0 | 3.2 | 0.00 | 0.00 | 0.00 | 49 | 1012.1 |
| 20260906030345 | 23 | 222 | 0.0 | 3.2 | 0.00 | 0.00 | 0.00 | 49 | 1012.1 |
| 20260906030245 | 23 | 222 | 0.0 | 6.4 | 0.00 | 0.00 | 0.00 | 49 | 1012.1 |
| 20260906030137 | 23 | 223 | 0.0 | 6.4 | 0.00 | 0.00 | 0.00 | 48 | 1012.1 |
| 20260906030043 | 23 | 222 | 0.0 | 6.4 | 0.00 | 0.00 | 0.00 | 48 | 1012.1 |
| 20260906025937 | 23 | 222 | 0.0 | 6.4 | 0.00 | 0.00 | 0.00 | 48 | 1012.1 |
| 20260906025838 | 23 | 223 | 0.0 | 6.4 | 0.00 | 0.00 | 0.00 | 48 | 1012.1 |
| 20260906025740 | 23 | 222 | 0.0 | 6.4 | 0.00 | 0.00 | 0.00 | 48 | 1012.1 |
| 20260906025632 | 23 | 222 | 0.0 | 6.4 | 0.00 | 0.00 | 0.00 | 48 | 1012.1 |
| 20260906025532 | 23 | 219 | 1.6 | 6.4 | 0.00 | 0.00 | 0.00 | 47 | 1012.1 |
| 20260906025432 | 23 | 220 | 1.6 | 9.7 | 0.00 | 0.00 | 0.00 | 48 | 1012.0 |
| 20260906025331 | 23 | 219 | 1.6 | 9.7 | 0.00 | 0.00 | 0.00 | 48 | 1012.0 |
| 20260906025234 | 23 | 223 | 1.6 | 9.7 | 0.00 | 0.00 | 0.00 | 47 | 1012.0 |
| 20260906025129 | 23 | 222 | 1.6 | 9.7 | 0.00 | 0.00 | 0.00 | 47 | 1011.9 |
| 20260906025030 | 23 | 223 | 1.6 | 9.7 | 0.00 | 0.00 | 0.00 | 47 | 1012.0 |
| 20260906024952 | 23 | 222 | 3.2 | 9.7 | 0.00 | 0.00 | 0.00 | 47 | 1011.9 |
| 20260906024927 | 23 | 222 | 1.6 | 9.7 | 0.00 | 0.00 | 0.00 | 47 | 1012.0 |
| 20260906024842 | 23 | 222 | 1.6 | 9.7 | 0.00 | 0.00 | 0.00 | 47 | 1012.0 |
| 20260906024832 | 23 | 222 | 3.2 | 9.7 | 0.00 | 0.00 | 0.00 | 47 | 1011.9 |
| 20260906024620 | 23 | 236 | 3.2 | 9.7 | 0.00 | 0.00 | 0.00 | 46 | 1012.0 |
| 20260906024520 | 23 | 219 | 3.2 | 9.7 | 0.00 | 0.00 | 0.00 | 46 | 1012.0 |
| 20260906024419 | 23 | 241 | 3.2 | 9.7 | 0.00 | 0.00 | 0.00 | 46 | 1012.0 |
| 20260906024319 | 23 | 228 | 3.2 | 9.7 | 0.00 | 0.00 | 0.00 | 46 | 1012.0 |
| 20260906024222 | 23 | 228 | 3.2 | 9.7 | 0.00 | 0.00 | 0.00 | 46 | 1011.9 |
| 20260906024113 | 23 | 291 | 3.2 | 11.3 | 0.00 | 0.00 | 0.00 | 46 | 1012.0 |
| 20260906024013 | 23 | 211 | 3.2 | 11.3 | 0.00 | 0.00 | 0.00 | 46 | 1012.0 |
| 20260906023913 | 23 | 300 | 4.8 | 19.3 | 0.00 | 0.00 | 0.00 | 45 | 1012.0 |
| 20260906023814 | 24 | 250 | 4.8 | 19.3 | 0.00 | 0.00 | 0.00 | 45 | 1012.0 |
| 20260906023718 | 24 | 264 | 4.8 | 19.3 | 0.00 | 0.00 | 0.00 | 45 | 1011.9 |
| 20260906023607 | 24 | 199 | 4.8 | 19.3 | 0.00 | 0.00 | 0.00 | 45 | 1011.9 |
| 20260906023508 | 24 | 238 | 4.8 | 19.3 | 0.00 | 0.00 | 0.00 | 45 | 1011.9 |
| 20260906023407 | 24 | 268 | 4.8 | 19.3 | 0.00 | 0.00 | 0.00 | 45 | 1011.9 |
| 20260906023307 | 24 | 246 | 4.8 | 19.3 | 0.00 | 0.00 | 0.00 | 45 | 1011.9 |
| 20260906023209 | 24 | 230 | 4.8 | 19.3 | 0.00 | 0.00 | 0.00 | 45 | 1011.9 |
| 20260906023104 | 24 | 235 | 4.8 | 19.3 | 0.00 | 0.00 | 0.00 | 45 | 1011.9 |
| 20260906023001 | 24 | 256 | 3.2 | 19.3 | 0.00 | 0.00 | 0.00 | 44 | 1011.9 |
| 20260906022901 | 24 | 245 | 3.2 | 11.3 | 0.00 | 0.00 | 0.00 | 45 | 1011.9 |
| 20260906022802 | 24 | 204 | 3.2 | 11.3 | 0.00 | 0.00 | 0.00 | 44 | 1011.9 |
| 20260906022702 | 24 | 218 | 1.6 | 11.3 | 0.00 | 0.00 | 0.00 | 44 | 1011.9 |
| 20260906022602 | 24 | 239 | 1.6 | 9.7 | 0.00 | 0.00 | 0.00 | 44 | 1011.9 |
| 20260906022459 | 24 | 228 | 3.2 | 9.7 | 0.00 | 0.00 | 0.00 | 44 | 1011.9 |
| 20260906022357 | 24 | 228 | 3.2 | 9.7 | 0.00 | 0.00 | 0.00 | 44 | 1011.9 |
| 20260906022258 | 24 | 229 | 3.2 | 9.7 | 0.00 | 0.00 | 0.00 | 44 | 1011.9 |
| 20260906022157 | 24 | 236 | 1.6 | 9.7 | 0.00 | 0.00 | 0.00 | 44 | 1011.9 |
| 20260906022054 | 24 | 211 | 1.6 | 11.3 | 0.00 | 0.00 | 0.00 | 44 | 1011.9 |
| 20260906021953 | 25 | 232 | 3.2 | 11.3 | 0.00 | 0.00 | 0.00 | 44 | 1011.9 |
| 20260906021854 | 25 | 219 | 3.2 | 11.3 | 0.00 | 0.00 | 0.00 | 44 | 1011.9 |
| 20260906021753 | 25 | 226 | 3.2 | 11.3 | 0.00 | 0.00 | 0.00 | 44 | 1011.9 |
| 20260906021650 | 25 | 238 | 3.2 | 11.3 | 0.00 | 0.00 | 0.00 | 44 | 1011.8 |
| 20260906021546 | 25 | 270 | 3.2 | 11.3 | 0.00 | 0.00 | 0.00 | 43 | 1011.9 |
| 20260906021444 | 25 | 210 | 4.8 | 14.5 | 0.00 | 0.00 | 0.00 | 44 | 1011.9 |
| 20260906021343 | 25 | 235 | 4.8 | 14.5 | 0.00 | 0.00 | 0.00 | 44 | 1011.9 |
| 20260906021245 | 25 | 143 | 4.8 | 14.5 | 0.00 | 0.00 | 0.00 | 44 | 1011.9 |
| 20260906021145 | 25 | 240 | 6.4 | 16.1 | 0.00 | 0.00 | 0.00 | 44 | 1012.0 |
| 20260906021040 | 25 | 241 | 6.4 | 16.1 | 0.00 | 0.00 | 0.00 | 43 | 1011.9 |
| 20260906020939 | 25 | 198 | 6.4 | 16.1 | 0.00 | 0.00 | 0.00 | 43 | 1011.9 |
| 20260906020839 | 25 | 243 | 6.4 | 16.1 | 0.00 | 0.00 | 0.00 | 43 | 1011.9 |
| 20260906020740 | 25 | 257 | 6.4 | 16.1 | 0.00 | 0.00 | 0.00 | 43 | 1011.9 |
| 20260906020638 | 25 | 238 | 6.4 | 16.1 | 0.00 | 0.00 | 0.00 | 43 | 1012.0 |
| 20260906020533 | 25 | 246 | 6.4 | 16.1 | 0.00 | 0.00 | 0.00 | 43 | 1012.0 |
| 20260906020432 | 25 | 225 | 6.4 | 17.7 | 0.00 | 0.00 | 0.00 | 43 | 1012.0 |
| 20260906020331 | 25 | 259 | 6.4 | 17.7 | 0.00 | 0.00 | 0.00 | 43 | 1012.0 |
| 20260906020232 | 25 | 224 | 6.4 | 17.7 | 0.00 | 0.00 | 0.00 | 43 | 1012.0 |
| 20260906020133 | 25 | 245 | 6.4 | 17.7 | 0.00 | 0.00 | 0.00 | 43 | 1012.0 |
| 20260906020027 | 25 | 271 | 6.4 | 17.7 | 0.00 | 0.00 | 0.00 | 44 | 1012.0 |
| 20260906015925 | 25 | 222 | 6.4 | 17.7 | 0.00 | 0.00 | 0.00 | 43 | 1012.0 |
| 20260906015825 | 25 | 211 | 6.4 | 17.7 | 0.00 | 0.00 | 0.00 | 43 | 1012.0 |
| 20260906015727 | 25 | 226 | 4.8 | 17.7 | 0.00 | 0.00 | 0.00 | 43 | 1012.1 |
| 20260906015627 | 25 | 276 | 4.8 | 17.7 | 0.00 | 0.00 | 0.00 | 43 | 1012.1 |
| 20260906015521 | 25 | 239 | 4.8 | 14.5 | 0.00 | 0.00 | 0.00 | 43 | 1012.0 |
| 20260906015420 | 25 | 231 | 4.8 | 14.5 | 0.00 | 0.00 | 0.00 | 43 | 1012.0 |
| 20260906015319 | 25 | 231 | 4.8 | 12.9 | 0.00 | 0.00 | 0.00 | 43 | 1012.0 |
| 20260906015221 | 25 | 217 | 3.2 | 12.9 | 0.00 | 0.00 | 0.00 | 43 | 1012.0 |
| 20260906015120 | 25 | 268 | 3.2 | 12.9 | 0.00 | 0.00 | 0.00 | 43 | 1012.0 |
| 20260906015013 | 25 | 226 | 3.2 | 12.9 | 0.00 | 0.00 | 0.00 | 42 | 1012.0 |
| 20260906014913 | 25 | 274 | 3.2 | 12.9 | 0.00 | 0.00 | 0.00 | 42 | 1012.0 |
| 20260906014813 | 25 | 232 | 3.2 | 12.9 | 0.00 | 0.00 | 0.00 | 42 | 1012.0 |
| 20260906014717 | 26 | 253 | 3.2 | 12.9 | 0.00 | 0.00 | 0.00 | 42 | 1011.9 |
| 20260906014614 | 26 | 235 | 3.2 | 12.9 | 0.00 | 0.00 | 0.00 | 42 | 1011.9 |
| 20260906014508 | 26 | 257 | 3.2 | 12.9 | 0.00 | 0.00 | 0.00 | 41 | 1011.9 |
| 20260906014407 | 26 | 236 | 3.2 | 12.9 | 0.00 | 0.00 | 0.00 | 40 | 1012.0 |
| 20260906014308 | 26 | 259 | 4.8 | 12.9 | 0.00 | 0.00 | 0.00 | 39 | 1011.9 |
| 20260906014208 | 26 | 238 | 4.8 | 14.5 | 0.00 | 0.00 | 0.00 | 39 | 1011.9 |
| 20260906014108 | 26 | 226 | 4.8 | 14.5 | 0.00 | 0.00 | 0.00 | 39 | 1011.9 |
| 20260906014005 | 26 | 228 | 4.8 | 14.5 | 0.00 | 0.00 | 0.00 | 38 | 1011.9 |
| 20260906013905 | 26 | 243 | 3.2 | 14.5 | 0.00 | 0.00 | 0.00 | 37 | 1011.9 |
| 20260906013804 | 26 | 250 | 3.2 | 14.5 | 0.00 | 0.00 | 0.00 | 36 | 1011.9 |
| 20260906013703 | 26 | 248 | 3.2 | 14.5 | 0.00 | 0.00 | 0.00 | 36 | 1011.9 |
| 20260906013602 | 26 | 242 | 3.2 | 14.5 | 0.00 | 0.00 | 0.00 | 35 | 1011.9 |
| 20260906013456 | 26 | 245 | 3.2 | 14.5 | 0.00 | 0.00 | 0.00 | 35 | 1011.9 |
| 20260906013355 | 26 | 249 | 3.2 | 14.5 | 0.00 | 0.00 | 0.00 | 34 | 1011.9 |
| 20260906013256 | 26 | 224 | 3.2 | 14.5 | 0.00 | 0.00 | 0.00 | 33 | 1011.9 |
| 20260906013155 | 26 | 250 | 3.2 | 9.7 | 0.00 | 0.00 | 0.00 | 34 | 1011.9 |
| 20260906013057 | 26 | 218 | 3.2 | 9.7 | 0.00 | 0.00 | 0.00 | 34 | 1011.9 |
| 20260906012952 | 26 | 263 | 3.2 | 9.7 | 0.00 | 0.00 | 0.00 | 34 | 1011.9 |
| 20260906012849 | 26 | 243 | 3.2 | 9.7 | 0.00 | 0.00 | 0.00 | 33 | 1011.9 |
| 20260906012751 | 26 | 273 | 3.2 | 9.7 | 0.00 | 0.00 | 0.00 | 34 | 1011.9 |
| 20260906012649 | 26 | 231 | 3.2 | 9.7 | 0.00 | 0.00 | 0.00 | 34 | 1011.9 |
| 20260906012551 | 26 | 231 | 3.2 | 9.7 | 0.00 | 0.00 | 0.00 | 34 | 1011.9 |
| 20260906012449 | 26 | 232 | 3.2 | 9.7 | 0.00 | 0.00 | 0.00 | 34 | 1011.9 |
| 20260906012347 | 26 | 236 | 3.2 | 11.3 | 0.00 | 0.00 | 0.00 | 34 | 1011.9 |
| 20260906012246 | 26 | 226 | 3.2 | 11.3 | 0.00 | 0.00 | 0.00 | 34 | 1011.9 |
| 20260906012145 | 26 | 295 | 3.2 | 11.3 | 0.00 | 0.00 | 0.00 | 34 | 1011.9 |
| 20260906012046 | 26 | 224 | 3.2 | 11.3 | 0.00 | 0.00 | 0.00 | 34 | 1011.9 |
| 20260906011942 | 26 | 260 | 3.2 | 11.3 | 0.00 | 0.00 | 0.00 | 35 | 1011.9 |
| 20260906011842 | 26 | 260 | 3.2 | 11.3 | 0.00 | 0.00 | 0.00 | 34 | 1012.0 |
| 20260906011740 | 26 | 219 | 3.2 | 11.3 | 0.00 | 0.00 | 0.00 | 34 | 1011.9 |
| 20260906011639 | 26 | 240 | 3.2 | 11.3 | 0.00 | 0.00 | 0.00 | 35 | 1012.0 |
| 20260906011538 | 26 | 208 | 3.2 | 11.3 | 0.00 | 0.00 | 0.00 | 35 | 1011.9 |
| 20260906011431 | 26 | 200 | 3.2 | 11.3 | 0.00 | 0.00 | 0.00 | 35 | 1012.0 |
| 20260906011332 | 26 | 214 | 3.2 | 9.7 | 0.00 | 0.00 | 0.00 | 35 | 1011.9 |
| 20260906011232 | 26 | 218 | 3.2 | 9.7 | 0.00 | 0.00 | 0.00 | 35 | 1011.9 |
| 20260906011132 | 26 | 231 | 3.2 | 9.7 | 0.00 | 0.00 | 0.00 | 35 | 1012.0 |
| 20260906011037 | 26 | 232 | 4.8 | 9.7 | 0.00 | 0.00 | 0.00 | 35 | 1012.0 |
| 20260906010928 | 26 | 222 | 4.8 | 11.3 | 0.00 | 0.00 | 0.00 | 35 | 1012.0 |
| 20260906010827 | 26 | 241 | 4.8 | 11.3 | 0.00 | 0.00 | 0.00 | 35 | 1011.9 |
| 20260906010728 | 26 | 212 | 3.2 | 11.3 | 0.00 | 0.00 | 0.00 | 35 | 1011.9 |
| 20260906010627 | 26 | 246 | 3.2 | 11.3 | 0.00 | 0.00 | 0.00 | 35 | 1011.9 |
| 20260906010531 | 26 | 259 | 3.2 | 11.3 | 0.00 | 0.00 | 0.00 | 35 | 1011.9 |
| 20260906010526 | 26 | 257 | 3.2 | 11.3 | 0.00 | 0.00 | 0.00 | 35 | 1011.9 |
| 20260906010422 | 26 | 231 | 3.2 | 11.3 | 0.00 | 0.00 | 0.00 | 35 | 1011.9 |
| 20260906010319 | 26 | 96 | 3.2 | 11.3 | 0.00 | 0.00 | 0.00 | 36 | 1011.9 |
| 20260906010220 | 26 | 224 | 3.2 | 11.3 | 0.00 | 0.00 | 0.00 | 35 | 1011.9 |
| 20260906010120 | 26 | 257 | 3.2 | 11.3 | 0.00 | 0.00 | 0.00 | 35 | 1011.9 |
| 20260906010049 | 26 | 225 | 3.2 | 11.3 | 0.00 | 0.00 | 0.00 | 35 | 1011.9 |
| 20260906010019 | 26 | 226 | 1.6 | 11.3 | 0.00 | 0.00 | 0.00 | 35 | 1012.0 |
| 20260906005913 | 26 | 224 | 1.6 | 11.3 | 0.00 | 0.00 | 0.00 | 35 | 1011.9 |
| 20260906005813 | 26 | 245 | 1.6 | 9.7 | 0.00 | 0.00 | 0.00 | 36 | 1011.9 |
| 20260906005716 | 26 | 211 | 1.6 | 9.7 | 0.00 | 0.00 | 0.00 | 36 | 1011.9 |
| 20260906005613 | 26 | 245 | 1.6 | 9.7 | 0.00 | 0.00 | 0.00 | 35 | 1011.9 |
| 20260906005528 | 26 | 246 | 1.6 | 9.7 | 0.00 | 0.00 | 0.00 | 35 | 1011.9 |
| 20260906005513 | 26 | 238 | 1.6 | 9.7 | 0.00 | 0.00 | 0.00 | 35 | 1011.8 |
| 20260906005414 | 26 | 243 | 1.6 | 9.7 | 0.00 | 0.00 | 0.00 | 35 | 1011.9 |
| 20260906005313 | 26 | 245 | 1.6 | 9.7 | 0.00 | 0.00 | 0.00 | 36 | 1011.9 |
| 20260906005216 | 26 | 233 | 1.6 | 9.7 | 0.00 | 0.00 | 0.00 | 36 | 1011.9 |
| 20260906005113 | 26 | 238 | 1.6 | 9.7 | 0.00 | 0.00 | 0.00 | 35 | 1011.8 |
| 20260906005036 | 26 | 198 | 1.6 | 12.9 | 0.00 | 0.00 | 0.00 | 35 | 1011.8 |
| 20260906005013 | 26 | 242 | 1.6 | 12.9 | 0.00 | 0.00 | 0.00 | 36 | 1011.8 |
| 20260906004911 | 26 | 249 | 1.6 | 12.9 | 0.00 | 0.00 | 0.00 | 35 | 1011.9 |
| 20260906004810 | 26 | 226 | 1.6 | 12.9 | 0.00 | 0.00 | 0.00 | 36 | 1011.9 |
| 20260906004710 | 26 | 226 | 3.2 | 12.9 | 0.00 | 0.00 | 0.00 | 36 | 1011.9 |
| 20260906004607 | 26 | 226 | 3.2 | 12.9 | 0.00 | 0.00 | 0.00 | 36 | 1011.8 |
| 20260906004508 | 26 | 226 | 3.2 | 12.9 | 0.00 | 0.00 | 0.00 | 36 | 1011.8 |
| 20260906004405 | 26 | 243 | 3.2 | 12.9 | 0.00 | 0.00 | 0.00 | 35 | 1011.9 |
| 20260906004304 | 26 | 240 | 3.2 | 12.9 | 0.00 | 0.00 | 0.00 | 35 | 1011.9 |
| 20260906004203 | 26 | 225 | 3.2 | 12.9 | 0.00 | 0.00 | 0.00 | 35 | 1011.9 |
| 20260906004101 | 26 | 271 | 3.2 | 12.9 | 0.00 | 0.00 | 0.00 | 35 | 1011.9 |
| 20260906004032 | 26 | 193 | 3.2 | 11.3 | 0.00 | 0.00 | 0.00 | 35 | 1011.9 |
| 20260906004002 | 26 | 235 | 3.2 | 11.3 | 0.00 | 0.00 | 0.00 | 35 | 1011.9 |
| 20260906003901 | 26 | 232 | 3.2 | 11.3 | 0.00 | 0.00 | 0.00 | 35 | 1011.9 |
| 20260906003803 | 26 | 246 | 3.2 | 11.3 | 0.00 | 0.00 | 0.00 | 34 | 1011.9 |
| 20260906003702 | 26 | 228 | 3.2 | 9.7 | 0.00 | 0.00 | 0.00 | 35 | 1011.9 |
| 20260906003559 | 26 | 203 | 1.6 | 9.7 | 0.00 | 0.00 | 0.00 | 35 | 1011.9 |
| 20260906003526 | 26 | 243 | 1.6 | 9.7 | 0.00 | 0.00 | 0.00 | 35 | 1011.9 |
| 20260906003459 | 26 | 243 | 1.6 | 9.7 | 0.00 | 0.00 | 0.00 | 35 | 1011.9 |
| 20260906003359 | 26 | 241 | 1.6 | 9.7 | 0.00 | 0.00 | 0.00 | 35 | 1011.9 |
| 20260906003300 | 26 | 278 | 1.6 | 8.0 | 0.00 | 0.00 | 0.00 | 35 | 1011.8 |
| 20260906003159 | 26 | 236 | 1.6 | 6.4 | 0.00 | 0.00 | 0.00 | 35 | 1011.9 |
| 20260906003058 | 26 | 226 | 1.6 | 6.4 | 0.00 | 0.00 | 0.00 | 35 | 1011.9 |
| 20260906003037 | 26 | 181 | 1.6 | 6.4 | 0.00 | 0.00 | 0.00 | 36 | 1011.9 |
| 20260906002957 | 26 | 225 | 1.6 | 9.7 | 0.00 | 0.00 | 0.00 | 35 | 1011.8 |
| 20260906002855 | 26 | 187 | 3.2 | 17.7 | 0.00 | 0.00 | 0.00 | 36 | 1011.8 |
| 20260906002755 | 26 | 187 | 4.8 | 17.7 | 0.00 | 0.00 | 0.00 | 36 | 1011.8 |
| 20260906002654 | 26 | 187 | 4.8 | 17.7 | 0.00 | 0.00 | 0.00 | 35 | 1011.8 |
| 20260906002551 | 27 | 239 | 6.4 | 19.3 | 0.00 | 0.00 | 0.00 | 36 | 1011.9 |
| 20260906002526 | 27 | 239 | 6.4 | 22.5 | 0.00 | 0.00 | 0.00 | 35 | 1011.9 |
| 20260906002452 | 27 | 238 | 8.0 | 22.5 | 0.00 | 0.00 | 0.00 | 35 | 1011.8 |
| 20260906002349 | 27 | 239 | 8.0 | 22.5 | 0.00 | 0.00 | 0.00 | 35 | 1011.8 |
| 20260906002248 | 27 | 233 | 9.7 | 22.5 | 0.00 | 0.00 | 0.00 | 35 | 1011.8 |
| 20260906002148 | 27 | 239 | 9.7 | 22.5 | 0.00 | 0.00 | 0.00 | 34 | 1011.8 |
| 20260906002050 | 27 | 239 | 11.3 | 22.5 | 0.00 | 0.00 | 0.00 | 34 | 1011.8 |
| 20260906002040 | 27 | 249 | 11.3 | 22.5 | 0.00 | 0.00 | 0.00 | 34 | 1011.8 |
| 20260906001948 | 27 | 240 | 9.7 | 22.5 | 0.00 | 0.00 | 0.00 | 34 | 1011.7 |
| 20260906001847 | 27 | 253 | 9.7 | 22.5 | 0.00 | 0.00 | 0.00 | 35 | 1011.8 |
| 20260906001747 | 27 | 242 | 9.7 | 22.5 | 0.00 | 0.00 | 0.00 | 34 | 1011.8 |
| 20260906001642 | 27 | 217 | 8.0 | 22.5 | 0.00 | 0.00 | 0.00 | 34 | 1011.8 |
| 20260906001542 | 27 | 243 | 6.4 | 16.1 | 0.00 | 0.00 | 0.00 | 34 | 1011.8 |
| 20260906001527 | 27 | 239 | 6.4 | 16.1 | 0.00 | 0.00 | 0.00 | 34 | 1011.8 |
| 20260906001442 | 27 | 245 | 6.4 | 16.1 | 0.00 | 0.00 | 0.00 | 34 | 1011.8 |
| 20260906001341 | 27 | 243 | 4.8 | 16.1 | 0.00 | 0.00 | 0.00 | 34 | 1011.8 |
| 20260906001242 | 27 | 241 | 4.8 | 16.1 | 0.00 | 0.00 | 0.00 | 35 | 1011.8 |
| 20260906001138 | 27 | 170 | 4.8 | 17.7 | 0.00 | 0.00 | 0.00 | 35 | 1011.8 |
| 20260906001040 | 27 | 232 | 4.8 | 17.7 | 0.00 | 0.00 | 0.00 | 35 | 1011.8 |
| 20260906001030 | 27 | 240 | 4.8 | 17.7 | 0.00 | 0.00 | 0.00 | 35 | 1011.8 |
| 20260906000938 | 27 | 151 | 4.8 | 17.7 | 0.00 | 0.00 | 0.00 | 35 | 1011.9 |
| 20260906000837 | 27 | 293 | 4.8 | 17.7 | 0.00 | 0.00 | 0.00 | 36 | 1011.8 |
| 20260906000736 | 27 | 11 | 4.8 | 20.9 | 0.00 | 0.00 | 0.00 | 37 | 1011.8 |
| 20260906000636 | 27 | 225 | 6.4 | 20.9 | 0.00 | 0.00 | 0.00 | 35 | 1011.8 |
| 20260906000526 | 27 | 210 | 6.4 | 20.9 | 0.00 | 0.00 | 0.00 | 35 | 1011.8 |
| 20260906000433 | 27 | 267 | 6.4 | 20.9 | 0.00 | 0.00 | 0.00 | 36 | 1011.9 |
| 20260906000333 | 27 | 255 | 6.4 | 20.9 | 0.00 | 0.00 | 0.00 | 35 | 1011.9 |
| 20260906000233 | 27 | 205 | 6.4 | 20.9 | 0.00 | 0.00 | 0.00 | 35 | 1011.9 |
| 20260906000131 | 27 | 210 | 4.8 | 20.9 | 0.00 | 0.00 | 0.00 | 35 | 1011.8 |
| 20260906000100 | 27 | 203 | 4.8 | 20.9 | 0.00 | 0.00 | 0.00 | 35 | 1011.8 |
| 20260906000050 | 27 | 211 | 4.8 | 20.9 | 0.00 | 0.00 | 0.00 | 35 | 1011.8 |
| 20260905235931 | 27 | 193 | 4.8 | 20.9 | 0.00 | 0.00 | 0.00 | 35 | 1011.8 |
| 20260905235832 | 27 | 222 | 4.8 | 20.9 | 0.00 | 0.00 | 0.00 | 35 | 1011.8 |
| 20260905235732 | 27 | 238 | 4.8 | 16.1 | 0.00 | 0.00 | 0.00 | 35 | 1011.8 |
| 20260905235629 | 27 | 239 | 4.8 | 16.1 | 0.00 | 0.00 | 0.00 | 35 | 1011.8 |
| 20260905235528 | 27 | 270 | 4.8 | 16.1 | 0.00 | 0.00 | 0.00 | 35 | 1011.8 |
| 20260905235428 | 27 | 210 | 4.8 | 16.1 | 0.00 | 0.00 | 0.00 | 35 | 1011.9 |
| 20260905235327 | 27 | 236 | 4.8 | 16.1 | 0.00 | 0.00 | 0.00 | 35 | 1011.9 |
| 20260905235228 | 27 | 228 | 4.8 | 16.1 | 0.00 | 0.00 | 0.00 | 35 | 1011.9 |
| 20260905235127 | 27 | 235 | 4.8 | 16.1 | 0.00 | 0.00 | 0.00 | 34 | 1011.9 |
| 20260905235038 | 27 | 243 | 4.8 | 16.1 | 0.00 | 0.00 | 0.00 | 35 | 1011.9 |
| 20260905234926 | 27 | 241 | 4.8 | 14.5 | 0.00 | 0.00 | 0.00 | 34 | 1011.9 |
| 20260905234825 | 27 | 220 | 4.8 | 14.5 | 0.00 | 0.00 | 0.00 | 36 | 1011.9 |
| 20260905234724 | 27 | 165 | 4.8 | 14.5 | 0.00 | 0.00 | 0.00 | 36 | 1011.9 |
| 20260905234623 | 27 | 248 | 4.8 | 14.5 | 0.00 | 0.00 | 0.00 | 35 | 1011.9 |
| 20260905234523 | 27 | 235 | 4.8 | 14.5 | 0.00 | 0.00 | 0.00 | 35 | 1011.9 |
| 20260905234415 | 27 | 160 | 4.8 | 14.5 | 0.00 | 0.00 | 0.00 | 35 | 1011.9 |
| 20260905234315 | 27 | 225 | 6.4 | 14.5 | 0.00 | 0.00 | 0.00 | 35 | 1012.0 |
| 20260905234216 | 27 | 235 | 6.4 | 16.1 | 0.00 | 0.00 | 0.00 | 35 | 1012.0 |
| 20260905234116 | 27 | 248 | 6.4 | 16.1 | 0.00 | 0.00 | 0.00 | 36 | 1012.0 |
| 20260905234016 | 27 | 248 | 6.4 | 16.1 | 0.00 | 0.00 | 0.00 | 36 | 1012.0 |
| 20260905233909 | 27 | 231 | 6.4 | 16.1 | 0.00 | 0.00 | 0.00 | 36 | 1011.9 |
| 20260905233810 | 27 | 253 | 6.4 | 16.1 | 0.00 | 0.00 | 0.00 | 36 | 1011.9 |
| 20260905233730 | 27 | 243 | 8.0 | 16.1 | 0.00 | 0.00 | 0.00 | 36 | 1012.0 |
| 20260905233714 | 27 | 248 | 6.4 | 16.1 | 0.00 | 0.00 | 0.00 | 36 | 1011.9 |
| 20260905233626 | 27 | 238 | 8.0 | 16.1 | 0.00 | 0.00 | 0.00 | 36 | 1011.9 |
| 20260905233616 | 27 | 243 | 8.0 | 16.1 | 0.00 | 0.00 | 0.00 | 36 | 1012.0 |
| 20260905233403 | 27 | 259 | 8.0 | 17.7 | 0.00 | 0.00 | 0.00 | 36 | 1011.9 |
| 20260905233304 | 27 | 249 | 8.0 | 17.7 | 0.00 | 0.00 | 0.00 | 36 | 1011.9 |
| 20260905233203 | 27 | 238 | 8.0 | 17.7 | 0.00 | 0.00 | 0.00 | 36 | 1012.0 |
| 20260905233103 | 27 | 233 | 8.0 | 17.7 | 0.00 | 0.00 | 0.00 | 36 | 1012.0 |
| 20260905233005 | 27 | 233 | 8.0 | 17.7 | 0.00 | 0.00 | 0.00 | 35 | 1012.0 |
| 20260905232859 | 27 | 229 | 8.0 | 17.7 | 0.00 | 0.00 | 0.00 | 35 | 1012.0 |
| 20260905232757 | 27 | 243 | 8.0 | 17.7 | 0.00 | 0.00 | 0.00 | 35 | 1012.0 |
| 20260905232657 | 27 | 226 | 8.0 | 17.7 | 0.00 | 0.00 | 0.00 | 35 | 1012.0 |
| 20260905232557 | 27 | 224 | 8.0 | 17.7 | 0.00 | 0.00 | 0.00 | 35 | 1012.0 |
| 20260905232458 | 27 | 239 | 8.0 | 17.7 | 0.00 | 0.00 | 0.00 | 35 | 1012.0 |
| 20260905232351 | 28 | 200 | 8.0 | 19.3 | 0.00 | 0.00 | 0.00 | 35 | 1012.0 |
| 20260905232251 | 28 | 242 | 8.0 | 19.3 | 0.00 | 0.00 | 0.00 | 35 | 1012.0 |
| 20260905232151 | 28 | 231 | 8.0 | 19.3 | 0.00 | 0.00 | 0.00 | 35 | 1012.0 |
| 20260905232052 | 28 | 233 | 8.0 | 19.3 | 0.00 | 0.00 | 0.00 | 35 | 1012.0 |
| 20260905231953 | 28 | 270 | 8.0 | 19.3 | 0.00 | 0.00 | 0.00 | 35 | 1012.0 |
| 20260905231845 | 28 | 194 | 8.0 | 19.3 | 0.00 | 0.00 | 0.00 | 35 | 1012.0 |
| 20260905231747 | 28 | 212 | 8.0 | 19.3 | 0.00 | 0.00 | 0.00 | 36 | 1012.0 |
| 20260905231710 | 28 | 229 | 6.4 | 14.5 | 0.00 | 0.00 | 0.00 | 34 | 1012.0 |
| 20260905231645 | 28 | 226 | 8.0 | 19.3 | 0.00 | 0.00 | 0.00 | 35 | 1012.0 |
| 20260905231601 | 28 | 222 | 6.4 | 19.3 | 0.00 | 0.00 | 0.00 | 35 | 1012.0 |
| 20260905231551 | 28 | 229 | 6.4 | 14.5 | 0.00 | 0.00 | 0.00 | 34 | 1012.0 |
| 20260905231339 | 28 | 238 | 4.8 | 14.5 | 0.00 | 0.00 | 0.00 | 35 | 1012.0 |
| 20260905231240 | 28 | 148 | 4.8 | 14.5 | 0.00 | 0.00 | 0.00 | 34 | 1012.0 |
| 20260905231139 | 28 | 167 | 4.8 | 14.5 | 0.00 | 0.00 | 0.00 | 35 | 1012.0 |
| 20260905231039 | 28 | 218 | 4.8 | 14.5 | 0.00 | 0.00 | 0.00 | 35 | 1012.0 |
| 20260905230940 | 28 | 176 | 3.2 | 14.5 | 0.00 | 0.00 | 0.00 | 35 | 1012.0 |
| 20260905230833 | 28 | 179 | 3.2 | 14.5 | 0.00 | 0.00 | 0.00 | 37 | 1012.0 |
| 20260905230736 | 28 | 233 | 3.2 | 17.7 | 0.00 | 0.00 | 0.00 | 36 | 1012.1 |
| 20260905230633 | 28 | 206 | 3.2 | 17.7 | 0.00 | 0.00 | 0.00 | 36 | 1012.1 |
| 20260905230533 | 28 | 206 | 4.8 | 17.7 | 0.00 | 0.00 | 0.00 | 36 | 1012.1 |
| 20260905230435 | 28 | 234 | 3.2 | 17.7 | 0.00 | 0.00 | 0.00 | 35 | 1012.0 |
| 20260905230327 | 28 | 204 | 3.2 | 17.7 | 0.00 | 0.00 | 0.00 | 36 | 1012.1 |
| 20260905230228 | 28 | 214 | 3.2 | 17.7 | 0.00 | 0.00 | 0.00 | 35 | 1012.1 |
| 20260905230149 | 28 | 205 | 4.8 | 17.7 | 0.00 | 0.00 | 0.00 | 35 | 1012.1 |
| 20260905230127 | 28 | 197 | 3.2 | 17.7 | 0.00 | 0.00 | 0.00 | 35 | 1012.1 |
| 20260905230046 | 28 | 212 | 4.8 | 17.7 | 0.00 | 0.00 | 0.00 | 35 | 1012.1 |
| 20260905230033 | 28 | 205 | 4.8 | 17.7 | 0.00 | 0.00 | 0.00 | 35 | 1012.1 |
| 20260905225828 | 28 | 235 | 4.8 | 17.7 | 0.00 | 0.00 | 0.00 | 35 | 1012.1 |
| 20260905225727 | 28 | 243 | 3.2 | 14.5 | 0.00 | 0.00 | 0.00 | 35 | 1012.1 |
| 20260905225625 | 28 | 275 | 3.2 | 14.5 | 0.00 | 0.00 | 0.00 | 35 | 1012.0 |
| 20260905225524 | 28 | 266 | 4.8 | 14.5 | 0.00 | 0.00 | 0.00 | 36 | 1012.1 |
| 20260905225422 | 28 | 257 | 4.8 | 14.5 | 0.00 | 0.00 | 0.00 | 36 | 1012.1 |
| 20260905225317 | 28 | 238 | 4.8 | 14.5 | 0.00 | 0.00 | 0.00 | 35 | 1012.1 |
| 20260905225215 | 28 | 188 | 4.8 | 14.5 | 0.00 | 0.00 | 0.00 | 35 | 1012.1 |
| 20260905225115 | 28 | 149 | 4.8 | 14.5 | 0.00 | 0.00 | 0.00 | 35 | 1012.1 |
| 20260905225016 | 28 | 131 | 4.8 | 14.5 | 0.00 | 0.00 | 0.00 | 35 | 1012.1 |
| 20260905224916 | 28 | 197 | 3.2 | 14.5 | 0.00 | 0.00 | 0.00 | 35 | 1012.2 |
| 20260905224809 | 28 | 250 | 3.2 | 14.5 | 0.00 | 0.00 | 0.00 | 36 | 1012.2 |
| 20260905224712 | 28 | 210 | 3.2 | 14.5 | 0.00 | 0.00 | 0.00 | 35 | 1012.2 |
| 20260905224610 | 28 | 250 | 3.2 | 14.5 | 0.00 | 0.00 | 0.00 | 35 | 1012.2 |
| 20260905224510 | 28 | 197 | 1.6 | 14.5 | 0.00 | 0.00 | 0.00 | 35 | 1012.3 |
| 20260905224411 | 28 | 239 | 1.6 | 14.5 | 0.00 | 0.00 | 0.00 | 35 | 1012.4 |
| 20260905224307 | 28 | 194 | 1.6 | 9.7 | 0.00 | 0.00 | 0.00 | 35 | 1012.3 |
| 20260905224212 | 28 | 235 | 1.6 | 9.7 | 0.00 | 0.00 | 0.00 | 35 | 1012.3 |
| 20260905224107 | 28 | 224 | 1.6 | 9.7 | 0.00 | 0.00 | 0.00 | 35 | 1012.4 |
| 20260905224005 | 28 | 231 | 1.6 | 9.7 | 0.00 | 0.00 | 0.00 | 35 | 1012.3 |
| 20260905223909 | 28 | 170 | 1.6 | 6.4 | 0.00 | 0.00 | 0.00 | 36 | 1012.4 |
| 20260905223903 | 28 | 214 | 1.6 | 6.4 | 0.00 | 0.00 | 0.00 | 36 | 1012.4 |
| 20260905223800 | 28 | 215 | 1.6 | 6.4 | 0.00 | 0.00 | 0.00 | 37 | 1012.4 |
| 20260905223657 | 28 | 215 | 1.6 | 6.4 | 0.00 | 0.00 | 0.00 | 36 | 1012.4 |
| 20260905223557 | 28 | 215 | 1.6 | 6.4 | 0.00 | 0.00 | 0.00 | 37 | 1012.4 |
| 20260905223457 | 28 | 215 | 1.6 | 6.4 | 0.00 | 0.00 | 0.00 | 36 | 1012.4 |
| 20260905223407 | 28 | 222 | 1.6 | 6.4 | 0.00 | 0.00 | 0.00 | 36 | 1012.4 |
| 20260905223357 | 28 | 222 | 1.6 | 6.4 | 0.00 | 0.00 | 0.00 | 36 | 1012.4 |
| 20260905223258 | 28 | 238 | 1.6 | 4.8 | 0.00 | 0.00 | 0.00 | 36 | 1012.4 |
| 20260905223156 | 28 | 240 | 1.6 | 4.8 | 0.00 | 0.00 | 0.00 | 37 | 1012.4 |
| 20260905223054 | 28 | 214 | 3.2 | 6.4 | 0.00 | 0.00 | 0.00 | 37 | 1012.4 |
| 20260905222954 | 28 | 311 | 3.2 | 8.0 | 0.00 | 0.00 | 0.00 | 36 | 1012.4 |
| 20260905222906 | 28 | 311 | 3.2 | 8.0 | 0.00 | 0.00 | 0.00 | 37 | 1012.4 |
| 20260905222851 | 28 | 359 | 3.2 | 8.0 | 0.00 | 0.00 | 0.00 | 37 | 1012.4 |
| 20260905222750 | 28 | 284 | 3.2 | 8.0 | 0.00 | 0.00 | 0.00 | 38 | 1012.5 |
| 20260905222649 | 28 | 340 | 3.2 | 8.0 | 0.00 | 0.00 | 0.00 | 37 | 1012.5 |
| 20260905222627 | 28 | 243 | 3.2 | 12.9 | 0.00 | 0.00 | 0.00 | 37 | 1012.5 |
| 20260905222549 | 28 | 304 | 3.2 | 12.9 | 0.00 | 0.00 | 0.00 | 37 | 1012.5 |
| 20260905222515 | 28 | 243 | 3.2 | 12.9 | 0.00 | 0.00 | 0.00 | 37 | 1012.4 |
| 20260905222345 | 28 | 243 | 3.2 | 12.9 | 0.00 | 0.00 | 0.00 | 37 | 1012.5 |
| 20260905222242 | 28 | 243 | 3.2 | 12.9 | 0.00 | 0.00 | 0.00 | 37 | 1012.4 |
| 20260905222139 | 28 | 259 | 3.2 | 12.9 | 0.00 | 0.00 | 0.00 | 36 | 1012.4 |
| 20260905222040 | 28 | 231 | 3.2 | 12.9 | 0.00 | 0.00 | 0.00 | 37 | 1012.4 |
| 20260905221939 | 28 | 242 | 3.2 | 12.9 | 0.00 | 0.00 | 0.00 | 37 | 1012.5 |
| 20260905221905 | 28 | 242 | 3.2 | 12.9 | 0.00 | 0.00 | 0.00 | 37 | 1012.5 |
| 20260905221839 | 28 | 231 | 3.2 | 12.9 | 0.00 | 0.00 | 0.00 | 37 | 1012.5 |
| 20260905221736 | 28 | 245 | 3.2 | 12.9 | 0.00 | 0.00 | 0.00 | 37 | 1012.5 |
| 20260905221635 | 27 | 231 | 3.2 | 12.9 | 0.00 | 0.00 | 0.00 | 37 | 1012.4 |
| 20260905221535 | 27 | 205 | 3.2 | 9.7 | 0.00 | 0.00 | 0.00 | 36 | 1012.5 |
| 20260905221435 | 28 | 229 | 3.2 | 9.7 | 0.00 | 0.00 | 0.00 | 36 | 1012.5 |
| 20260905221404 | 28 | 232 | 3.2 | 9.7 | 0.00 | 0.00 | 0.00 | 35 | 1012.5 |
| 20260905221333 | 28 | 232 | 3.2 | 11.3 | 0.00 | 0.00 | 0.00 | 35 | 1012.5 |
| 20260905221233 | 28 | 215 | 3.2 | 11.3 | 0.00 | 0.00 | 0.00 | 36 | 1012.5 |
| 20260905221135 | 28 | 205 | 3.2 | 11.3 | 0.00 | 0.00 | 0.00 | 36 | 1012.6 |
| 20260905221131 | 28 | 236 | 1.6 | 11.3 | 0.00 | 0.00 | 0.00 | 36 | 1012.5 |
| 20260905221034 | 28 | 238 | 1.6 | 11.3 | 0.00 | 0.00 | 0.00 | 36 | 1012.5 |
| 20260905221015 | 28 | 193 | 3.2 | 11.3 | 0.00 | 0.00 | 0.00 | 36 | 1012.5 |
| 20260905220827 | 28 | 226 | 3.2 | 11.3 | 0.00 | 0.00 | 0.00 | 37 | 1012.6 |
| 20260905220722 | 28 | 216 | 3.2 | 11.3 | 0.00 | 0.00 | 0.00 | 37 | 1012.6 |
| 20260905220628 | 28 | 243 | 3.2 | 11.3 | 0.00 | 0.00 | 0.00 | 36 | 1012.6 |
| 20260905220622 | 28 | 215 | 3.2 | 11.3 | 0.00 | 0.00 | 0.00 | 36 | 1012.5 |
| 20260905220524 | 28 | 215 | 3.2 | 11.3 | 0.00 | 0.00 | 0.00 | 37 | 1012.5 |
| 20260905220515 | 28 | 243 | 3.2 | 11.3 | 0.00 | 0.00 | 0.00 | 36 | 1012.6 |
| 20260905220322 | 27 | 304 | 3.2 | 11.3 | 0.00 | 0.00 | 0.00 | 36 | 1012.6 |
| 20260905220217 | 27 | 231 | 3.2 | 11.3 | 0.00 | 0.00 | 0.00 | 37 | 1012.6 |
| 20260905220115 | 27 | 223 | 4.8 | 11.3 | 0.00 | 0.00 | 0.00 | 37 | 1012.6 |
| 20260905220025 | 27 | 238 | 4.8 | 11.3 | 0.00 | 0.00 | 0.00 | 36 | 1012.7 |
| 20260905215915 | 27 | 236 | 3.2 | 11.3 | 0.00 | 0.00 | 0.00 | 37 | 1012.7 |
| 20260905215903 | 27 | 238 | 3.2 | 11.3 | 0.00 | 0.00 | 0.00 | 37 | 1012.7 |
| 20260905215815 | 27 | 224 | 3.2 | 11.3 | 0.00 | 0.00 | 0.00 | 37 | 1012.8 |
| 20260905215710 | 27 | 225 | 3.2 | 11.3 | 0.00 | 0.00 | 0.00 | 38 | 1012.8 |
| 20260905215615 | 28 | 239 | 1.6 | 9.7 | 0.00 | 0.00 | 0.00 | 37 | 1012.8 |
| 20260905215609 | 27 | 293 | 3.2 | 11.3 | 0.00 | 0.00 | 0.00 | 37 | 1012.8 |
| 20260905215519 | 27 | 305 | 3.2 | 11.3 | 0.00 | 0.00 | 0.00 | 36 | 1012.8 |
| 20260905215510 | 27 | 321 | 3.2 | 8.0 | 0.00 | 0.00 | 0.00 | 36 | 1012.7 |
| 20260905215459 | 28 | 316 | 3.2 | 8.0 | 0.00 | 0.00 | 0.00 | 36 | 1012.7 |
| 20260905215309 | 28 | 311 | 3.2 | 8.0 | 0.00 | 0.00 | 0.00 | 36 | 1012.7 |
| 20260905215241 | 28 | 333 | 1.6 | 8.0 | 0.00 | 0.00 | 0.00 | 36 | 1012.7 |
| 20260905215103 | 28 | 249 | 1.6 | 8.0 | 0.00 | 0.00 | 0.00 | 37 | 1012.7 |
| 20260905215019 | 28 | 9 | 1.6 | 8.0 | 0.00 | 0.00 | 0.00 | 38 | 1012.8 |
| 20260905215009 | 28 | 239 | 1.6 | 9.7 | 0.00 | 0.00 | 0.00 | 37 | 1012.8 |
| 20260905214805 | 27 | 224 | 1.6 | 9.7 | 0.00 | 0.00 | 0.00 | 37 | 1012.8 |
| 20260905214705 | 27 | 285 | 3.2 | 9.7 | 0.00 | 0.00 | 0.00 | 37 | 1012.8 |
| 20260905214600 | 27 | 302 | 1.6 | 9.7 | 0.00 | 0.00 | 0.00 | 36 | 1012.8 |
| 20260905214501 | 27 | 162 | 1.6 | 9.7 | 0.00 | 0.00 | 0.00 | 36 | 1012.8 |
| 20260905214405 | 27 | 236 | 1.6 | 9.7 | 0.00 | 0.00 | 0.00 | 36 | 1012.8 |
| 20260905214257 | 27 | 232 | 1.6 | 9.7 | 0.00 | 0.00 | 0.00 | 37 | 1012.8 |
| 20260905214157 | 27 | 222 | 1.6 | 9.7 | 0.00 | 0.00 | 0.00 | 36 | 1012.9 |
| 20260905214055 | 27 | 221 | 1.6 | 9.7 | 0.00 | 0.00 | 0.00 | 36 | 1012.8 |
| 20260905213956 | 27 | 191 | 1.6 | 9.7 | 0.00 | 0.00 | 0.00 | 35 | 1012.9 |
| 20260905213858 | 27 | 236 | 1.6 | 8.0 | 0.00 | 0.00 | 0.00 | 36 | 1012.9 |
| 20260905213853 | 27 | 233 | 1.6 | 8.0 | 0.00 | 0.00 | 0.00 | 36 | 1012.9 |
| 20260905213752 | 28 | 334 | 1.6 | 11.3 | 0.00 | 0.00 | 0.00 | 35 | 1012.9 |
| 20260905213645 | 28 | 338 | 3.2 | 11.3 | 0.00 | 0.00 | 0.00 | 36 | 1012.9 |
| 20260905213545 | 28 | 300 | 3.2 | 11.3 | 0.00 | 0.00 | 0.00 | 37 | 1012.9 |
| 20260905213445 | 28 | 281 | 3.2 | 11.3 | 0.00 | 0.00 | 0.00 | 36 | 1012.9 |
| 20260905213358 | 27 | 270 | 3.2 | 12.9 | 0.00 | 0.00 | 0.00 | 36 | 1012.9 |
| 20260905213345 | 27 | 270 | 3.2 | 12.9 | 0.00 | 0.00 | 0.00 | 37 | 1012.9 |
| 20260905213245 | 27 | 243 | 4.8 | 12.9 | 0.00 | 0.00 | 0.00 | 37 | 1012.9 |
| 20260905213142 | 27 | 243 | 4.8 | 12.9 | 0.00 | 0.00 | 0.00 | 37 | 1012.9 |
| 20260905213059 | 27 | 245 | 4.8 | 14.5 | 0.00 | 0.00 | 0.00 | 37 | 1013.0 |
| 20260905212939 | 27 | 232 | 4.8 | 14.5 | 0.00 | 0.00 | 0.00 | 39 | 1013.0 |
| 20260905212859 | 27 | 228 | 4.8 | 14.5 | 0.00 | 0.00 | 0.00 | 39 | 1013.0 |
| 20260905212846 | 27 | 210 | 3.2 | 14.5 | 0.00 | 0.00 | 0.00 | 39 | 1013.0 |
| 20260905212839 | 27 | 226 | 4.8 | 14.5 | 0.00 | 0.00 | 0.00 | 39 | 1013.0 |
| 20260905212740 | 27 | 201 | 4.8 | 14.5 | 0.00 | 0.00 | 0.00 | 38 | 1013.0 |
| 20260905212732 | 27 | 151 | 4.8 | 14.5 | 0.00 | 0.00 | 0.00 | 38 | 1013.0 |
| 20260905212537 | 27 | 226 | 3.2 | 14.5 | 0.00 | 0.00 | 0.00 | 38 | 1013.0 |
| 20260905212509 | 27 | 228 | 3.2 | 14.5 | 0.00 | 0.00 | 0.00 | 39 | 1013.0 |
| 20260905212335 | 27 | 200 | 3.2 | 14.5 | 0.00 | 0.00 | 0.00 | 38 | 1013.0 |
| 20260905212235 | 27 | 246 | 3.2 | 14.5 | 0.00 | 0.00 | 0.00 | 39 | 1013.0 |
| 20260905212127 | 27 | 219 | 3.2 | 14.5 | 0.00 | 0.00 | 0.00 | 38 | 1013.1 |
| 20260905212027 | 27 | 240 | 3.2 | 9.7 | 0.00 | 0.00 | 0.00 | 38 | 1013.1 |
| 20260905211927 | 27 | 226 | 1.6 | 9.7 | 0.00 | 0.00 | 0.00 | 37 | 1013.0 |
| 20260905211859 | 27 | 233 | 1.6 | 8.0 | 0.00 | 0.00 | 0.00 | 37 | 1013.1 |
| 20260905211825 | 27 | 160 | 1.6 | 8.0 | 0.00 | 0.00 | 0.00 | 38 | 1013.1 |
| 20260905211726 | 27 | 214 | 1.6 | 8.0 | 0.00 | 0.00 | 0.00 | 38 | 1013.1 |
| 20260905211620 | 27 | 355 | 1.6 | 8.0 | 0.00 | 0.00 | 0.00 | 38 | 1013.1 |
| 20260905211519 | 27 | 355 | 1.6 | 8.0 | 0.00 | 0.00 | 0.00 | 38 | 1013.1 |
| 20260905211421 | 27 | 11 | 1.6 | 8.0 | 0.00 | 0.00 | 0.00 | 38 | 1013.2 |
| 20260905211411 | 27 | 11 | 1.6 | 8.0 | 0.00 | 0.00 | 0.00 | 38 | 1013.2 |
| 20260905211320 | 27 | 333 | 1.6 | 8.0 | 0.00 | 0.00 | 0.00 | 38 | 1013.2 |
| 20260905211220 | 27 | 302 | 1.6 | 4.8 | 0.00 | 0.00 | 0.00 | 39 | 1013.2 |
| 20260905211120 | 27 | 284 | 1.6 | 4.8 | 0.00 | 0.00 | 0.00 | 39 | 1013.2 |
| 20260905211113 | 27 | 264 | 1.6 | 4.8 | 0.00 | 0.00 | 0.00 | 40 | 1013.1 |
| 20260905211016 | 27 | 217 | 1.6 | 4.8 | 0.00 | 0.00 | 0.00 | 39 | 1013.2 |
| 20260905211008 | 27 | 284 | 1.6 | 4.8 | 0.00 | 0.00 | 0.00 | 39 | 1013.2 |
| 20260905210814 | 27 | 291 | 1.6 | 4.8 | 0.00 | 0.00 | 0.00 | 40 | 1013.2 |
| 20260905210715 | 27 | 291 | 1.6 | 4.8 | 0.00 | 0.00 | 0.00 | 39 | 1013.2 |
| 20260905210608 | 27 | 316 | 1.6 | 4.8 | 0.00 | 0.00 | 0.00 | 40 | 1013.1 |
| 20260905210507 | 27 | 240 | 1.6 | 6.4 | 0.00 | 0.00 | 0.00 | 41 | 1013.2 |
| 20260905210407 | 27 | 240 | 1.6 | 9.7 | 0.00 | 0.00 | 0.00 | 41 | 1013.2 |
| 20260905210356 | 27 | 240 | 1.6 | 9.7 | 0.00 | 0.00 | 0.00 | 41 | 1013.2 |
| 20260905210308 | 27 | 95 | 1.6 | 9.7 | 0.00 | 0.00 | 0.00 | 40 | 1013.1 |
| 20260905210211 | 27 | 70 | 1.6 | 9.7 | 0.00 | 0.00 | 0.00 | 41 | 1013.1 |
| 20260905210108 | 27 | 70 | 3.2 | 9.7 | 0.00 | 0.00 | 0.00 | 41 | 1013.2 |
| 20260905210005 | 26 | 72 | 3.2 | 9.7 | 0.00 | 0.00 | 0.00 | 42 | 1013.2 |
| 20260905205905 | 26 | 72 | 4.8 | 14.5 | 0.00 | 0.00 | 0.00 | 42 | 1013.1 |
| 20260905205855 | 26 | 72 | 4.8 | 14.5 | 0.00 | 0.00 | 0.00 | 42 | 1013.1 |
| 20260905205804 | 26 | 59 | 4.8 | 14.5 | 0.00 | 0.00 | 0.00 | 41 | 1013.2 |
| 20260905205701 | 26 | 119 | 4.8 | 14.5 | 0.00 | 0.00 | 0.00 | 41 | 1013.1 |
| 20260905205557 | 26 | 86 | 4.8 | 14.5 | 0.00 | 0.00 | 0.00 | 41 | 1013.2 |
| 20260905205456 | 26 | 213 | 4.8 | 16.1 | 0.00 | 0.00 | 0.00 | 41 | 1013.2 |
| 20260905205357 | 26 | 215 | 4.8 | 16.1 | 0.00 | 0.00 | 0.00 | 42 | 1013.2 |
| 20260905205256 | 26 | 234 | 4.8 | 16.1 | 0.00 | 0.00 | 0.00 | 43 | 1013.3 |
| 20260905205155 | 26 | 170 | 4.8 | 16.1 | 0.00 | 0.00 | 0.00 | 42 | 1013.3 |
| 20260905205052 | 26 | 224 | 4.8 | 16.1 | 0.00 | 0.00 | 0.00 | 42 | 1013.3 |
| 20260905204951 | 26 | 242 | 4.8 | 16.1 | 0.00 | 0.00 | 0.00 | 41 | 1013.3 |
| 20260905204857 | 26 | 243 | 3.2 | 16.1 | 0.00 | 0.00 | 0.00 | 41 | 1013.3 |
| 20260905204851 | 26 | 242 | 3.2 | 16.1 | 0.00 | 0.00 | 0.00 | 41 | 1013.3 |
| 20260905204752 | 26 | 253 | 3.2 | 16.1 | 0.00 | 0.00 | 0.00 | 41 | 1013.3 |
| 20260905204649 | 26 | 242 | 3.2 | 16.1 | 0.00 | 0.00 | 0.00 | 41 | 1013.3 |
| 20260905204546 | 26 | 226 | 3.2 | 16.1 | 0.00 | 0.00 | 0.00 | 42 | 1013.3 |
| 20260905204444 | 26 | 226 | 3.2 | 8.0 | 0.00 | 0.00 | 0.00 | 43 | 1013.3 |
| 20260905204353 | 26 | 201 | 3.2 | 8.0 | 0.00 | 0.00 | 0.00 | 43 | 1013.3 |
| 20260905204344 | 26 | 232 | 3.2 | 8.0 | 0.00 | 0.00 | 0.00 | 43 | 1013.3 |
| 20260905204244 | 26 | 337 | 3.2 | 8.0 | 0.00 | 0.00 | 0.00 | 43 | 1013.2 |
| 20260905204143 | 26 | 335 | 3.2 | 8.0 | 0.00 | 0.00 | 0.00 | 44 | 1013.3 |
| 20260905204111 | 26 | 355 | 3.2 | 8.0 | 0.00 | 0.00 | 0.00 | 43 | 1013.4 |
| 20260905204037 | 26 | 356 | 3.2 | 8.0 | 0.00 | 0.00 | 0.00 | 45 | 1013.3 |
| 20260905204001 | 26 | 355 | 3.2 | 8.0 | 0.00 | 0.00 | 0.00 | 44 | 1013.3 |
| 20260905203838 | 26 | 355 | 3.2 | 8.0 | 0.00 | 0.00 | 0.00 | 43 | 1013.4 |
| 20260905203738 | 26 | 356 | 3.2 | 8.0 | 0.00 | 0.00 | 0.00 | 44 | 1013.4 |
| 20260905203637 | 26 | 316 | 3.2 | 8.0 | 0.00 | 0.00 | 0.00 | 43 | 1013.4 |
| 20260905203535 | 26 | 311 | 3.2 | 8.0 | 0.00 | 0.00 | 0.00 | 42 | 1013.4 |
| 20260905203436 | 26 | 347 | 1.6 | 6.4 | 0.00 | 0.00 | 0.00 | 42 | 1013.4 |
| 20260905203350 | 26 | 338 | 1.6 | 6.4 | 0.00 | 0.00 | 0.00 | 42 | 1013.4 |
| 20260905203335 | 26 | 339 | 1.6 | 6.4 | 0.00 | 0.00 | 0.00 | 42 | 1013.4 |
| 20260905203233 | 26 | 242 | 1.6 | 6.4 | 0.00 | 0.00 | 0.00 | 43 | 1013.4 |
| 20260905203131 | 26 | 243 | 1.6 | 6.4 | 0.00 | 0.00 | 0.00 | 43 | 1013.4 |
| 20260905203025 | 26 | 242 | 1.6 | 6.4 | 0.00 | 0.00 | 0.00 | 42 | 1013.4 |
| 20260905202925 | 26 | 231 | 1.6 | 6.4 | 0.00 | 0.00 | 0.00 | 43 | 1013.4 |
| 20260905202851 | 26 | 228 | 1.6 | 6.4 | 0.00 | 0.00 | 0.00 | 44 | 1013.4 |
| 20260905202825 | 26 | 190 | 1.6 | 6.4 | 0.00 | 0.00 | 0.00 | 44 | 1013.4 |
| 20260905202726 | 26 | 321 | 1.6 | 8.0 | 0.00 | 0.00 | 0.00 | 43 | 1013.4 |
| 20260905202626 | 26 | 231 | 1.6 | 8.0 | 0.00 | 0.00 | 0.00 | 42 | 1013.4 |
| 20260905202526 | 26 | 309 | 1.6 | 8.0 | 0.00 | 0.00 | 0.00 | 42 | 1013.4 |
| 20260905202424 | 26 | 316 | 1.6 | 8.0 | 0.00 | 0.00 | 0.00 | 42 | 1013.5 |
| 20260905202348 | 26 | 316 | 1.6 | 8.0 | 0.00 | 0.00 | 0.00 | 42 | 1013.5 |
| 20260905202324 | 26 | 233 | 1.6 | 8.0 | 0.00 | 0.00 | 0.00 | 42 | 1013.5 |
| 20260905202221 | 26 | 231 | 1.6 | 8.0 | 0.00 | 0.00 | 0.00 | 43 | 1013.5 |
| 20260905202119 | 26 | 231 | 1.6 | 8.0 | 0.00 | 0.00 | 0.00 | 44 | 1013.5 |
| 20260905202017 | 26 | 231 | 1.6 | 8.0 | 0.00 | 0.00 | 0.00 | 44 | 1013.4 |
| 20260905201913 | 26 | 231 | 1.6 | 8.0 | 0.00 | 0.00 | 0.00 | 44 | 1013.4 |
| 20260905201849 | 26 | 243 | 1.6 | 8.0 | 0.00 | 0.00 | 0.00 | 44 | 1013.4 |
| 20260905201813 | 26 | 217 | 1.6 | 6.4 | 0.00 | 0.00 | 0.00 | 44 | 1013.4 |
| 20260905201715 | 26 | 314 | 1.6 | 4.8 | 0.00 | 0.00 | 0.00 | 44 | 1013.4 |
| 20260905201613 | 26 | 288 | 1.6 | 4.8 | 0.00 | 0.00 | 0.00 | 44 | 1013.5 |
| 20260905201513 | 26 | 288 | 1.6 | 4.8 | 0.00 | 0.00 | 0.00 | 45 | 1013.5 |
| 20260905201411 | 26 | 288 | 1.6 | 4.8 | 0.00 | 0.00 | 0.00 | 45 | 1013.4 |
| 20260905201348 | 26 | 291 | 1.6 | 4.8 | 0.00 | 0.00 | 0.00 | 45 | 1013.4 |
| 20260905201311 | 26 | 291 | 1.6 | 4.8 | 0.00 | 0.00 | 0.00 | 46 | 1013.4 |
| 20260905201212 | 26 | 11 | 1.6 | 4.8 | 0.00 | 0.00 | 0.00 | 45 | 1013.5 |
| 20260905201109 | 26 | 318 | 1.6 | 6.4 | 0.00 | 0.00 | 0.00 | 46 | 1013.5 |
| 20260905201010 | 26 | 50 | 1.6 | 6.4 | 0.00 | 0.00 | 0.00 | 46 | 1013.5 |
| 20260905200910 | 25 | 307 | 1.6 | 6.4 | 0.00 | 0.00 | 0.00 | 46 | 1013.5 |
| 20260905200849 | 25 | 307 | 1.6 | 6.4 | 0.00 | 0.00 | 0.00 | 46 | 1013.5 |
| 20260905200809 | 25 | 287 | 1.6 | 6.4 | 0.00 | 0.00 | 0.00 | 48 | 1013.6 |
| 20260905200711 | 25 | 232 | 1.6 | 6.4 | 0.00 | 0.00 | 0.00 | 48 | 1013.6 |
| 20260905200609 | 25 | 346 | 1.6 | 6.4 | 0.00 | 0.00 | 0.00 | 48 | 1013.6 |
| 20260905200510 | 25 | 346 | 1.6 | 6.4 | 0.00 | 0.00 | 0.00 | 49 | 1013.6 |
| 20260905200408 | 25 | 314 | 1.6 | 6.4 | 0.00 | 0.00 | 0.00 | 48 | 1013.6 |
| 20260905200349 | 25 | 314 | 1.6 | 6.4 | 0.00 | 0.00 | 0.00 | 48 | 1013.6 |
| 20260905200306 | 25 | 314 | 1.6 | 6.4 | 0.00 | 0.00 | 0.00 | 47 | 1013.6 |
| 20260905200209 | 25 | 314 | 1.6 | 6.4 | 0.00 | 0.00 | 0.00 | 47 | 1013.6 |
| 20260905200106 | 25 | 322 | 1.6 | 6.4 | 0.00 | 0.00 | 0.00 | 48 | 1013.6 |
| 20260905200004 | 25 | 321 | 3.2 | 6.4 | 0.00 | 0.00 | 0.00 | 47 | 1013.7 |
| 20260905195847 | 25 | 321 | 3.2 | 12.9 | 0.00 | 0.00 | 0.00 | 47 | 1013.6 |
| 20260905195804 | 25 | 321 | 3.2 | 12.9 | 0.00 | 0.00 | 0.00 | 46 | 1013.7 |
| 20260905195703 | 25 | 328 | 3.2 | 12.9 | 0.00 | 0.00 | 0.00 | 47 | 1013.7 |
| 20260905195601 | 25 | 26 | 3.2 | 12.9 | 0.00 | 0.00 | 0.00 | 46 | 1013.7 |